[[{"header":{"parameterUnit":"m.s-1","parameterCategory":1,"la1":30.6,"la2":28.766,"lo1":-90.7593,"lo2":-88.6598,"dx":0.0162,"dy":0.0183,"nx":116,"ny":114,"refTime":"2023-01-03T06:00:00:Z","depth":0,"parameterNumber":2,"parameterNumberName":"U-component_of_WINDS"},"data":[0.0,0.0,0.0,0.0,0.0,0.0,0.0,0.0,0.0,0.0,0.0,0.0,0.0,0.0,0.0,0.0,0.0,0.0,0.0,0.0,0.0,0.0,0.0,0.0,0.0,0.0,0.0,0.0,0.0,0.0,0.0,0.0,0.0,0.0,0.0,0.0,0.0,0.0,0.0,0.0,0.0,0.0,0.0,0.0,0.0,0.0,0.0,0.0,0.0,0.0,0.0,0.0,0.0,0.0,0.0,0.0,0.0,0.0,0.0,0.0,0.0,0.0,0.0,0.0,0.0,0.0,0.0,0.0,0.0,0.0,0.0,0.0,0.0,0.0,0.0,0.0,0.0,0.0,0.0,0.0,0.0,0.0,0.0,0.0,0.0,0.0,0.0,0.0,0.0,0.0,0.0,0.0,0.0,0.0,0.0,0.0,0.0,0.0,0.0,0.0,0.0,0.0,0.0,0.0,0.0,0.0,0.0,0.0,0.0,0.0,0.0,0.0,0.0,0.0,0.0,0.0,0.0,0.0,0.0,0.0,0.0,0.0,0.0,0.0,0.0,0.0,0.0,0.0,0.0,0.0,0.0,0.0,0.0,0.0,0.0,0.0,0.0,0.0,0.0,0.0,0.0,0.0,0.0,0.0,0.0,0.0,0.0,0.0,0.0,0.0,0.0,0.0,0.0,0.0,0.0,0.0,0.0,0.0,0.0,0.0,0.0,0.0,0.0,0.0,0.0,0.0,0.0,0.0,0.0,0.0,0.0,0.0,0.0,0.0,0.0,0.0,0.0,0.0,0.0,0.0,0.0,0.0,0.0,0.0,0.0,0.0,0.0,0.0,0.0,0.0,0.0,0.0,0.0,0.0,0.0,0.0,0.0,0.0,0.0,0.0,0.0,0.0,0.0,0.0,0.0,0.0,0.0,0.0,0.0,0.0,0.0,0.0,0.0,0.0,0.0,0.0,0.0,0.0,0.0,0.0,0.0,0.0,0.0,0.0,0.0,0.0,0.0,0.0,0.0,0.0,0.0,0.0,0.0,0.0,0.0,0.0,0.0,0.0,0.0,0.0,0.0,0.0,0.0,0.0,0.0,0.0,0.0,0.0,0.0,0.0,0.0,0.0,0.0,0.0,0.0,0.0,0.0,0.0,0.0,0.0,0.0,0.0,0.0,0.0,0.0,0.0,0.0,0.0,0.0,0.0,0.0,0.0,0.0,0.0,0.0,0.0,0.0,0.0,0.0,0.0,0.0,0.0,0.0,0.0,0.0,0.0,0.0,0.0,0.0,0.0,0.0,0.0,0.0,0.0,0.0,0.0,0.0,0.0,0.0,0.0,0.0,0.0,0.0,0.0,0.0,0.0,0.0,0.0,0.0,0.0,0.0,0.0,0.0,0.0,0.0,0.0,0.0,0.0,0.0,0.0,0.0,0.0,0.0,0.0,0.0,0.0,0.0,0.0,0.0,0.0,0.0,0.0,0.0,0.0,0.0,0.0,0.0,0.0,0.0,0.0,0.0,0.0,0.0,0.0,0.0,0.0,0.0,0.0,0.0,0.0,0.0,0.0,0.0,0.0,0.0,0.0,0.0,0.0,0.0,0.0,0.0,0.0,0.0,0.0,0.0,0.0,0.0,0.0,0.0,0.0,0.0,0.0,0.0,0.0,0.0,0.0,0.0,0.0,0.0,0.0,0.0,0.0,0.0,0.0,0.0,0.0,0.0,0.0,0.0,0.0,0.0,0.0,0.0,0.0,0.0,0.0,0.0,0.0,0.0,0.0,0.0,0.0,0.0,0.0,0.0,0.0,0.0,0.0,0.0,0.0,0.0,0.0,0.0,0.0,0.0,0.0,0.0,0.0,0.0,0.0,0.0,0.0,0.0,0.0,0.0,0.0,0.0,0.0,0.0,0.0,0.0,0.0,0.0,0.0,0.0,0.0,0.0,0.0,0.0,0.0,0.0,0.0,0.0,0.0,0.0,0.0,0.0,0.0,0.0,0.0,0.0,0.0,0.0,0.0,0.0,0.0,0.0,0.0,0.0,0.0,0.0,0.0,0.0,0.0,0.0,0.0,0.0,0.0,0.0,0.0,0.0,0.0,0.0,0.0,0.0,0.0,0.0,0.0,0.0,0.0,0.0,0.0,0.0,0.0,0.0,0.0,0.0,0.0,0.0,0.0,0.0,0.0,0.0,0.0,0.0,0.0,0.0,0.0,0.0,0.0,0.0,0.0,0.0,0.0,0.0,0.0,0.0,0.0,0.0,0.0,0.0,0.0,0.0,0.0,0.0,0.0,0.0,0.0,0.0,0.0,0.0,0.0,0.0,0.0,0.0,0.0,0.0,0.0,0.0,0.0,0.0,0.0,0.0,0.0,0.0,0.0,0.0,0.0,0.0,0.0,0.0,0.0,0.0,0.0,0.0,0.0,0.0,0.0,0.0,0.0,0.0,0.0,0.0,0.0,0.0,0.0,0.0,0.0,0.0,0.0,0.0,0.0,0.0,0.0,0.0,0.0,0.0,0.0,0.0,0.0,0.0,0.0,0.0,0.0,0.0,0.0,0.0,0.0,0.0,0.0,0.0,0.0,0.0,0.0,0.0,0.0,0.0,0.0,0.0,0.0,0.0,0.0,0.0,0.0,0.0,0.0,0.0,0.0,0.0,0.0,0.0,0.0,0.0,0.0,0.0,0.0,0.0,0.0,0.0,0.0,0.0,0.0,0.0,0.0,0.0,0.0,0.0,0.0,0.0,0.0,0.0,0.0,0.0,0.0,0.0,0.0,0.0,0.0,0.0,0.0,0.0,0.0,0.0,0.0,0.0,0.0,0.0,0.0,0.0,0.0,0.0,0.0,0.0,0.0,0.0,0.0,0.0,0.0,0.0,0.0,0.0,0.0,0.0,0.0,0.0,0.0,0.0,0.0,0.0,0.0,0.0,0.0,0.0,0.0,0.0,0.0,0.0,0.0,0.0,0.0,0.0,0.0,0.0,0.0,0.0,0.0,0.0,0.0,0.0,0.0,0.0,0.0,0.0,0.0,0.0,0.0,0.0,0.0,0.0,0.0,0.0,0.0,0.0,0.0,0.0,0.0,0.0,0.0,0.0,0.0,0.0,0.0,0.0,0.0,0.0,0.0,0.0,0.0,0.0,0.0,0.0,0.0,0.0,0.0,0.0,0.0,0.0,0.0,0.0,0.0,0.0,0.0,0.0,0.0,0.0,0.0,0.0,0.0,0.0,0.0,0.0,0.0,0.0,0.0,0.0,0.0,0.0,0.0,0.0,0.0,0.0,0.0,0.0,0.0,0.0,0.0,0.0,0.0,0.0,0.0,0.0,0.0,0.0,0.0,0.0,0.0,0.0,0.0,0.0,0.0,0.0,0.0,0.0,0.0,0.0,0.0,0.0,0.0,0.0,0.0,0.0,0.0,0.0,0.0,0.0,0.0,0.0,0.0,0.0,0.0,0.0,0.0,0.0,0.0,0.0,0.0,0.0,0.0,0.0,0.0,0.0,0.0,0.0,0.0,0.0,0.0,0.0,0.0,0.0,0.0,0.0,0.0,0.0,0.0,0.0,0.0,0.0,0.0,0.0,0.0,0.0,0.0,0.0,0.0,0.0,0.0,0.0,0.0,0.0,0.0,0.0,0.0,0.0,0.0,0.0,0.0,0.0,0.0,0.0,0.0,0.0,0.0,0.0,0.0,0.0,0.0,0.0,0.0,0.0,0.0,0.0,0.0,0.0,0.0,0.0,0.0,0.0,0.0,0.0,0.0,0.0,0.0,0.0,0.0,0.0,0.0,0.0,0.0,0.0,0.0,0.0,0.0,0.0,0.0,0.0,0.0,0.0,0.0,0.0,0.0,0.0,0.0,0.0,0.0,0.0,0.0,0.0,0.0,0.0,0.0,0.0,0.0,0.0,0.0,0.0,0.0,0.0,0.0,0.0,0.0,0.0,0.0,0.0,0.0,0.0,0.0,0.0,0.0,0.0,0.0,0.0,0.0,0.0,0.0,0.0,0.0,0.0,0.0,0.0,0.0,0.0,0.0,0.0,0.0,0.0,0.0,0.0,0.0,0.0,0.0,0.0,0.0,0.0,0.0,0.0,0.0,0.0,0.0,0.0,0.0,0.0,0.0,0.0,0.0,0.0,0.0,0.0,0.0,0.0,0.0,0.0,0.0,0.0,0.0,0.0,0.0,0.0,0.0,0.0,0.0,0.0,0.0,0.0,0.0,0.0,0.0,0.0,0.0,0.0,0.0,0.0,0.0,0.0,0.0,0.0,0.0,0.0,0.0,0.0,0.0,0.0,0.0,0.0,0.0,0.0,0.0,0.0,0.0,0.0,0.0,0.0,0.0,0.0,0.0,0.0,0.0,0.0,0.0,0.0,0.0,0.0,0.0,0.0,0.0,0.0,0.0,0.0,0.0,0.0,0.0,0.0,0.0,0.0,0.0,0.0,0.0,0.0,0.0,0.0,0.0,0.0,0.0,0.0,0.0,0.0,0.0,0.0,0.0,0.0,0.0,0.0,0.0,0.0,0.0,0.0,0.0,0.0,0.0,0.0,0.0,0.0,0.0,0.0,0.0,0.0,0.0,0.0,0.0,0.0,0.0,0.0,0.0,0.0,0.0,0.0,0.0,0.0,0.0,0.0,0.0,0.0,0.0,0.0,0.0,0.0,0.0,0.0,0.0,0.0,0.0,0.0,0.0,0.0,0.0,0.0,0.0,0.0,0.0,0.0,0.0,0.0,0.0,0.0,0.0,0.0,0.0,0.0,0.0,0.0,0.0,0.0,0.0,0.0,0.0,0.0,0.0,0.0,0.0,0.0,0.0,0.0,0.0,0.0,0.0,0.0,0.0,0.0,0.0,0.0,0.0,0.0,0.0,0.0,0.0,0.0,0.0,0.0,0.0,0.0,0.0,0.0,0.0,0.0,0.0,0.0,0.0,0.0,0.0,0.0,0.0,0.0,0.0,0.0,0.0,0.0,0.0,0.0,0.0,0.0,0.0,0.0,0.0,0.0,0.0,0.0,0.0,0.0,0.0,0.0,0.0,0.0,0.0,0.0,0.0,0.0,0.0,0.0,0.0,0.0,0.0,0.0,0.0,0.0,0.0,0.0,0.0,0.0,0.0,0.0,0.0,0.0,0.0,0.0,0.0,0.0,0.0,0.0,0.0,0.0,0.0,0.0,0.0,0.0,0.0,0.0,0.0,0.0,0.0,0.0,0.0,0.0,0.0,0.0,0.0,0.0,0.0,0.0,0.0,0.0,0.0,0.0,0.0,0.0,0.0,0.0,0.0,0.0,0.0,0.0,0.0,0.0,0.0,0.0,0.0,0.0,0.0,0.0,0.0,0.0,0.0,0.0,0.0,0.0,0.0,0.0,0.0,0.0,0.0,0.0,0.0,0.0,0.0,0.0,0.0,0.0,0.0,0.0,0.0,0.0,0.0,0.0,0.0,0.0,0.0,0.0,0.0,0.0,0.0,0.0,0.0,0.0,0.0,0.0,0.0,0.0,0.0,0.0,0.0,0.0,0.0,0.0,0.0,0.0,0.0,0.0,0.0,0.0,0.0,0.0,0.0,0.0,0.0,0.0,0.0,0.0,0.0,0.0,0.0,0.0,0.0,0.0,0.0,0.0,0.0,0.0,0.0,0.0,0.0,0.0,0.0,0.0,0.0,0.0,0.0,0.0,0.0,0.0,0.0,0.0,0.0,0.0,0.0,0.0,0.0,0.0,0.0,0.0,0.0,0.0,0.0,0.0,0.0,0.0,0.0,0.0,0.0,0.0,0.0,0.0,0.0,0.0,0.0,0.0,0.0,0.0,0.0,0.0,0.0,0.0,0.0,0.0,0.0,0.0,0.0,0.0,0.0,0.0,0.0,0.0,0.0,0.0,0.0,0.0,0.0,0.0,0.0,0.0,0.0,0.0,0.0,0.0,0.0,0.0,0.0,0.0,0.0,0.0,0.0,0.0,0.0,0.0,0.0,0.0,0.0,0.0,0.0,0.0,0.0,0.0,0.0,0.0,0.0,0.0,0.0,0.0,0.0,0.0,0.0,0.0,0.0,0.0,0.0,0.0,0.0,0.0,0.0,0.0,0.0,0.0,0.0,3.3148,0.0,0.0,0.0,0.0,0.0,0.0,0.0,0.0,0.0,0.0,0.0,0.0,0.0,0.0,0.0,0.0,0.0,0.0,0.0,0.0,0.0,0.0,0.0,0.0,1.0844,1.1022,1.1466,1.1489,0.0,0.0,0.0,0.0,0.0,0.0,0.0,0.0,0.0,1.238,1.451,1.4569,1.6779,2.0996,1.9158,1.7443,1.5782,0.0,0.0,0.0,0.0,0.0,0.0,0.0,0.0,0.0,0.0,0.0,0.0,0.0,0.0,0.0,0.0,0.0,0.0,0.0,0.0,0.0,0.0,0.0,0.0,0.0,0.0,0.0,0.0,0.0,0.0,0.0,0.0,0.0,0.0,0.0,0.0,0.0,0.0,0.0,0.0,0.0,0.0,0.0,0.0,0.0,0.0,0.0,0.0,0.0,0.0,0.0,0.0,0.0,0.0,0.0,0.0,0.0,0.0,0.0,0.0,0.0,0.0,0.0,0.0,0.0,0.0,0.0,0.0,0.0,0.0,0.0,3.4655,0.0,0.0,0.0,0.0,0.0,0.0,0.0,0.0,0.0,0.0,0.0,0.0,0.0,0.0,0.0,0.0,0.0,0.0,0.0,0.0,0.0,1.071,1.142,1.1697,1.2145,1.2968,1.2882,1.2834,1.2935,1.2935,0.0,0.0,0.0,0.0,1.1667,1.2623,1.4777,1.8103,1.9497,2.1998,2.5547,2.6562,2.5065,2.1367,1.9168,0.0,0.0,0.0,0.0,0.0,0.0,0.0,0.0,0.0,0.0,0.0,0.0,0.0,0.0,0.0,0.0,0.0,0.0,0.0,0.0,0.0,0.0,0.0,0.0,0.0,0.0,0.0,0.0,0.0,0.0,0.0,0.0,0.0,0.0,0.0,0.0,0.0,0.0,0.0,0.0,0.0,0.0,0.0,0.0,0.0,0.0,0.0,0.0,0.0,0.0,0.0,0.0,0.0,0.0,0.0,0.0,0.0,0.0,0.0,0.0,0.0,0.0,0.0,4.0884,3.9816,3.9725,4.0688,4.2679,4.5126,4.0956,4.0851,4.3034,3.6235,0.0,0.0,0.0,0.0,0.0,0.0,0.0,0.0,0.0,0.0,0.0,0.0,0.0,0.0,0.0,0.0,0.0,0.0,0.0,1.1382,1.1501,1.2244,1.3047,1.3866,1.3249,1.3091,1.3777,1.3843,0.0,0.0,0.0,0.0,1.2541,1.4135,1.6261,1.892,2.5768,2.9437,3.0078,3.1641,3.1718,3.0311,2.6248,2.4294,2.3825,0.0,0.0,0.0,0.0,0.0,0.0,0.0,0.0,0.0,0.0,0.0,0.0,0.0,0.0,0.0,0.0,0.0,0.0,0.0,0.0,0.0,0.0,0.0,0.0,0.0,0.0,0.0,0.0,0.0,0.0,0.0,0.0,0.0,0.0,0.0,0.0,0.0,0.0,0.0,0.0,0.0,3.1715,3.2269,0.0,0.0,0.0,0.0,0.0,0.0,0.0,0.0,0.0,0.0,0.0,0.0,0.0,3.8332,3.7165,4.2595,4.4827,4.3938,4.6302,4.7802,4.8475,5.0052,5.0665,5.0434,5.0822,0.0,4.6015,4.4599,0.0,0.0,0.0,0.0,0.0,0.0,0.0,0.0,0.0,0.0,0.0,0.0,0.0,0.0,0.0,0.0,0.0,0.0,0.0,0.0,0.0,1.6403,1.7969,1.9727,1.9986,1.9364,1.7754,1.7621,0.0,0.0,0.0,1.4459,1.4118,1.6772,2.0632,2.569,3.109,3.374,3.3789,3.4531,3.4687,3.4258,3.2305,2.957,2.625,2.4336,0.0,0.0,0.0,0.0,0.0,0.0,0.0,0.0,0.0,0.0,0.0,0.0,0.0,0.0,0.0,0.0,0.0,0.0,0.0,0.0,0.0,0.0,0.0,0.0,0.0,0.0,0.0,0.0,0.0,0.0,0.0,0.0,0.0,0.0,0.0,0.0,0.0,0.0,0.0,2.968,3.2201,3.2214,3.0962,2.92,0.0,0.0,0.0,0.0,0.0,0.0,0.0,0.0,0.0,3.9053,4.1267,4.3219,4.4878,4.7607,4.8814,4.8544,4.9978,5.0842,5.118,5.1924,5.2046,5.1769,5.2313,5.1689,5.0146,4.7909,4.3946,3.9104,0.0,0.0,0.0,0.0,3.6335,3.5578,0.0,0.0,0.0,0.0,0.0,0.0,0.0,0.0,0.0,0.0,0.0,0.0,1.8359,2.0586,2.2773,2.4883,2.5469,2.4686,2.2325,2.1052,1.8982,1.579,1.5349,1.5509,1.6181,2.0487,2.5585,3.146,3.4525,3.6016,3.6016,3.6016,3.6016,3.6016,3.6016,3.3516,2.9258,2.832,2.5703,2.207,0.0,0.0,0.0,0.0,0.0,0.0,0.0,0.0,0.0,0.0,0.0,0.0,0.0,0.0,0.0,0.0,0.0,0.0,0.0,0.0,0.0,0.0,0.0,0.0,0.0,0.0,0.0,0.0,0.0,0.0,0.0,0.0,0.0,0.0,0.0,0.0,0.0,3.1154,3.3436,3.2835,3.3462,3.2501,0.0,0.0,0.0,0.0,0.0,0.0,3.941,3.9438,4.0772,4.3922,4.5156,4.7467,5.0841,5.0885,5.123,5.2024,5.2183,5.2265,5.2134,5.2484,5.2567,5.2473,5.2598,5.2968,5.3339,5.052,4.8113,4.6074,4.4712,4.2425,4.0262,4.2631,4.4846,4.6744,0.0,0.0,0.0,0.0,0.0,0.0,0.0,0.0,0.0,0.0,0.0,1.9375,2.0352,2.3437,2.582,2.6797,2.6133,2.5977,2.664,2.2795,2.0352,2.01,1.6937,1.6341,1.8832,2.5562,3.0412,3.3281,3.5117,3.6016,3.6016,3.6016,3.6016,3.6016,3.6016,3.582,3.5312,3.207,3.0508,2.957,2.2226,0.0,0.0,0.0,0.0,0.0,0.0,0.0,0.0,0.0,0.0,0.0,0.0,0.0,0.0,0.0,0.0,0.0,0.0,0.0,0.0,0.0,0.0,0.0,0.0,0.0,0.0,0.0,0.0,0.0,0.0,0.0,0.0,0.0,0.0,0.0,0.0,0.0,0.0,3.6671,3.8284,0.0,0.0,0.0,0.0,3.7592,3.7792,3.957,4.3573,4.4136,4.5987,4.9554,5.0193,5.0746,5.1372,5.1335,5.1574,5.2016,5.2779,5.2935,5.2601,5.3833,5.4142,5.3721,5.4176,5.4409,5.4403,5.3829,5.3556,5.3553,5.3989,5.3399,5.239,5.3051,5.305,5.292,0.0,0.0,0.0,1.0191,1.0218,1.0217,1.0194,1.0947,1.1825,1.2754,1.7107,2.0898,2.2812,2.7148,3.043,3.1836,3.2187,3.1523,2.9638,2.5913,2.3737,2.3681,2.0392,2.108,2.6501,2.9602,3.2465,3.5078,3.5703,3.6016,3.6016,3.6562,3.6836,3.6875,3.7422,3.7656,3.7539,3.5195,3.2891,3.0625,2.7812,2.4333,0.0,0.0,0.0,0.0,0.0,0.0,0.0,0.0,0.0,0.0,0.0,0.0,0.0,0.0,0.0,0.0,0.0,0.0,0.0,0.0,0.0,0.0,0.0,0.0,0.0,0.0,0.0,0.0,0.0,0.0,0.0,0.0,0.0,0.0,0.0,0.0,0.0,3.7516,4.0151,0.0,3.8874,4.0349,4.1948,4.3013,4.4563,4.6419,4.8617,4.889,4.9596,5.089,5.1361,5.1772,5.2192,5.2192,5.2487,5.315,5.3449,5.3668,5.3875,5.4549,5.479,5.4633,5.5107,5.5262,5.5262,5.5116,5.5068,5.5069,5.476,5.4484,5.4288,5.4322,5.4187,5.405,0.0,0.0,0.0,1.0194,1.0199,1.0298,1.059,1.1414,1.2805,1.5195,1.9492,2.3516,2.668,3.0898,3.3945,3.5039,3.5664,3.5035,3.2767,2.9008,2.6884,2.6837,2.4413,2.5485,3.0703,3.2249,3.3984,3.6016,3.6289,3.6445,3.6445,3.7344,3.7734,3.7773,3.8359,3.8594,3.8516,3.7383,3.5586,3.3359,3.1875,2.9023,2.5468,0.0,0.0,0.0,0.0,0.0,0.0,0.0,0.0,0.0,0.0,0.0,0.0,0.0,0.0,0.0,0.0,0.0,0.0,0.0,0.0,0.0,0.0,0.0,0.0,0.0,0.0,0.0,0.0,0.0,0.0,0.0,0.0,0.0,0.0,3.6814,4.0296,3.8358,4.209,4.3874,4.1342,4.429,4.6615,4.7287,4.9243,5.0673,5.1301,5.1772,5.2023,5.2023,5.2419,5.2794,5.3225,5.3084,5.3417,5.4217,5.4217,5.4382,5.4701,5.496,5.5053,5.4905,5.5186,5.5326,5.5326,5.5593,5.5708,5.5619,5.4962,5.4731,5.4731,5.4547,5.4387,5.4259,0.0,0.0,1.0202,1.0194,1.0194,1.0472,1.1385,1.2317,1.4726,1.9883,2.3555,2.7344,3.168,3.4453,3.6016,3.6016,3.6015,3.6003,3.5994,3.187,2.944,2.9485,2.8812,2.9246,3.0942,3.3465,3.5195,3.6055,3.6914,3.7344,3.7344,3.8242,3.8633,3.8633,3.8672,3.8672,3.8672,3.8672,3.8672,3.832,3.4101,3.2812,3.2891,0.0,0.0,0.0,0.0,0.0,0.0,0.0,0.0,0.0,0.0,0.0,0.0,0.0,0.0,0.0,0.0,0.0,0.0,0.0,0.0,0.0,0.0,0.0,0.0,0.0,0.0,0.0,0.0,0.0,0.0,0.0,0.0,0.0,3.5551,3.8028,4.0007,3.9608,4.4393,4.7011,4.5092,4.84,5.0535,5.0216,5.133,5.1845,5.1519,5.2634,5.327,5.3239,5.3634,5.4048,5.4484,5.4048,5.4251,5.5107,5.5107,5.5107,5.5107,5.5107,5.4914,5.4554,5.4591,5.4629,5.4667,5.5454,5.5794,5.5756,5.5351,5.4924,5.4591,5.4591,5.433,5.4019,1.0234,1.0192,1.0205,1.0221,1.0194,1.0494,1.138,1.2243,1.4459,1.9062,2.3164,2.7109,3.0859,3.4101,3.6016,3.6016,3.5982,3.5968,3.5941,3.1862,2.9496,2.9518,3.2242,3.4038,3.456,3.5898,3.6719,3.6953,3.7812,3.8242,3.8242,3.9141,3.9531,3.957,4.0195,4.0508,4.0508,4.0508,4.0508,4.0273,3.7812,3.5859,3.4101,0.0,0.0,0.0,0.0,0.0,0.0,0.0,0.0,0.0,0.0,0.0,0.0,0.0,0.0,0.0,0.0,0.0,0.0,0.0,0.0,0.0,0.0,0.0,0.0,0.0,0.0,0.0,0.0,0.0,0.0,0.0,3.8902,4.1428,3.8921,4.258,4.5504,4.5407,4.7522,4.901,4.9051,4.9796,5.0829,5.2226,5.2394,5.2806,5.3607,5.4238,5.4448,5.4145,5.4519,5.4671,5.4484,5.4355,5.442,5.4671,5.4671,5.4671,5.4708,5.5607,5.5995,5.595,5.6843,5.7251,5.7251,5.7481,5.7596,5.7532,5.7096,5.6844,5.6797,5.711,5.6965,5.6611,1.0194,1.0195,1.0191,1.0197,1.0182,1.0624,1.1873,1.25,1.5057,2.1172,2.4141,2.7578,3.25,3.4805,3.6009,3.6006,3.5958,3.579,3.5418,3.2725,3.1266,3.1607,3.4054,3.5772,3.6523,3.7031,3.7461,3.7851,3.8711,3.9141,3.9141,4.0039,4.043,4.0469,4.0976,4.1211,4.1211,4.1211,4.1211,4.1094,4.0117,3.8789,3.7305,3.6055,3.4609,3.3124,3.1867,3.0703,2.9705,2.9264,0.0,0.0,0.0,0.0,0.0,0.0,0.0,0.0,0.0,0.0,0.0,0.0,0.0,0.0,0.0,0.0,0.0,0.0,0.0,0.0,0.0,0.0,0.0,0.0,4.2824,4.4971,4.3618,4.5898,4.8012,4.8877,4.9427,5.0122,5.1134,5.133,5.1898,5.3095,5.3478,5.3987,5.4693,5.496,5.4988,5.476,5.4819,5.4731,5.4484,5.4484,5.4767,5.5291,5.5108,5.539,5.6092,5.6643,5.7019,5.7213,5.7981,5.8319,5.8319,5.8665,5.8711,0.0,0.0,0.0,0.0,0.0,5.7813,5.7652,1.019,1.0195,1.0193,1.0203,1.0218,1.0782,1.2539,1.2846,1.5977,2.457,2.5703,2.832,3.5234,3.6016,3.5985,3.5979,3.6022,3.5714,3.4886,3.4135,3.3969,3.4564,3.4761,3.5625,3.7266,3.7383,3.7851,3.875,3.9609,4.0039,4.0078,4.0859,4.1211,4.1211,4.1211,4.1211,4.1211,4.1211,4.1211,4.1211,4.1211,4.1211,4.1016,3.9492,3.8867,3.8594,3.7031,3.5023,3.2922,3.2123,0.0,0.0,0.0,0.0,0.0,0.0,0.0,0.0,0.0,0.0,0.0,0.0,0.0,0.0,0.0,0.0,0.0,0.0,0.0,0.0,0.0,0.0,0.0,0.0,4.6429,4.8634,4.8644,4.8363,4.8802,5.05,5.0483,5.0792,5.2039,5.2755,5.3245,5.3314,5.4458,5.508,5.5015,0.0,0.0,0.0,0.0,5.4547,5.4547,5.4629,5.5231,5.6366,5.6095,5.6692,5.8212,5.7939,5.803,5.8434,5.855,5.8588,5.8627,5.9358,5.9421,5.8967,5.8539,5.845,5.8504,5.8119,5.8012,5.8241,1.0197,1.0229,1.0271,1.0203,1.0257,1.0859,1.2539,1.2846,1.5977,2.457,2.5703,2.832,3.5234,3.6016,3.6014,3.5996,3.6619,3.6676,3.5796,3.5523,3.5219,3.4708,3.5388,3.625,3.7266,3.8008,3.8789,3.9648,4.0508,4.0937,4.0937,4.1133,4.1211,4.1211,4.1211,4.1211,4.1211,4.1211,4.1211,4.1211,4.1211,4.1211,4.1172,4.082,4.0703,4.0625,4.0312,3.9843,3.9372,3.9099,3.6947,3.439,3.4367,3.1586,0.0,0.0,0.0,0.0,0.0,0.0,0.0,0.0,0.0,0.0,0.0,0.0,0.0,0.0,0.0,0.0,0.0,0.0,0.0,4.4032,4.8136,5.1086,5.076,5.0968,5.1045,5.0749,5.1224,5.1977,5.2868,5.3126,5.3503,5.4182,5.48,5.4933,5.4609,5.5237,5.5262,5.464,5.4848,5.496,5.496,5.5321,5.5731,5.6338,0.0,0.0,5.7745,5.8706,5.9173,5.9319,6.0012,6.0319,6.0319,6.0473,6.0527,6.0277,5.9152,5.9345,6.0319,6.021,6.0633,6.1275,1.0215,1.0215,1.0232,1.0203,1.0612,1.1373,1.2617,1.3198,1.6133,2.3437,2.4414,2.6914,3.3398,3.293,3.2305,3.2773,3.3184,3.3796,3.4581,3.5055,3.532,3.5351,3.5781,3.6601,3.793,3.8398,3.9258,4.0547,4.0976,4.1211,4.1211,4.1211,4.1211,4.1211,4.1211,4.1211,4.1211,4.1211,4.1211,4.1211,4.1211,4.1211,4.1211,4.1211,4.1211,4.1211,4.1211,4.1211,4.1172,4.1133,3.9961,3.8554,3.8528,3.6105,3.2865,0.0,0.0,0.0,0.0,0.0,0.0,0.0,0.0,0.0,0.0,0.0,0.0,0.0,0.0,3.7966,4.1203,0.0,4.53,4.7761,5.0068,5.1697,5.1897,5.2494,5.2717,5.2313,5.2272,5.2811,5.401,5.4145,5.4334,5.4752,5.4998,5.4988,5.479,5.496,5.5026,5.479,5.5407,5.5635,5.5397,5.6201,5.6966,5.7558,5.7734,5.831,5.923,5.9613,5.9945,6.0165,6.0165,6.0627,6.1435,6.1435,6.1166,6.0681,5.9574,5.983,6.0781,6.0781,6.1089,6.145,1.0194,1.0193,1.0234,1.0412,1.1094,1.1921,1.2917,1.3664,1.6133,2.1875,2.2656,2.4804,3.0348,2.9058,2.8279,2.9492,2.9726,3.0905,3.3401,3.4441,3.5273,3.5976,3.6016,3.6758,3.832,3.8516,3.9375,4.0937,4.1133,4.1211,4.1211,4.1211,4.1211,4.1211,4.1211,4.1211,4.1211,4.1211,4.1211,4.1211,4.1211,4.1211,4.1211,4.1211,4.1211,4.1211,4.1211,4.1211,4.1211,4.1211,4.1211,4.1211,4.1367,3.9959,3.7836,3.6027,3.3286,0.0,0.0,0.0,0.0,0.0,0.0,0.0,0.0,3.4602,3.5075,3.9945,4.0997,4.2068,4.5496,4.6266,4.7556,5.1182,5.1773,5.2056,5.285,5.3522,5.3989,5.4142,5.352,5.3634,5.4977,5.516,5.5186,5.5107,5.5186,5.516,5.4988,5.4819,5.4924,5.5336,5.6103,5.6415,5.6209,5.7291,5.8168,5.8778,5.8559,5.9269,6.0647,6.0365,6.0456,6.0742,6.005,6.0666,6.2089,6.2089,6.1589,6.0742,6.0204,6.0319,6.0781,6.0781,6.0896,6.105,1.0194,1.0197,1.0451,1.1211,1.1477,1.2135,1.3721,1.4043,1.5742,2.0273,2.0898,2.2296,2.6038,2.6179,2.6934,2.9297,3.0234,3.1757,3.4368,3.5351,3.5898,3.6016,3.6016,3.6445,3.7422,3.8203,3.9062,4.0039,4.082,4.1211,4.1211,4.1211,4.1211,4.1211,4.1211,4.1211,4.1211,4.1211,4.1211,4.1211,4.1211,4.1211,4.1211,4.1211,4.1211,4.1211,4.1211,4.1211,4.1211,4.1211,4.1211,4.1328,4.2031,4.2077,4.1443,3.9582,3.7683,3.5341,3.1237,2.9621,3.021,3.4853,3.5378,3.6661,0.0,4.3496,4.3025,4.7357,4.8222,4.8529,4.9394,5.0413,5.1182,5.1337,5.2564,5.3711,5.4237,5.4339,5.4683,5.5393,5.5084,5.4874,5.5069,5.5423,5.547,5.5134,5.5423,5.5326,5.4609,5.5212,5.5768,5.624,5.6712,5.729,5.7973,5.8448,5.8702,5.8806,5.9511,5.996,6.0189,6.0572,6.0757,6.0781,6.0704,6.1204,6.2089,6.2089,6.1589,6.0858,6.155,6.1396,6.0781,6.0781,6.1281,6.2026,1.0194,1.0189,1.0644,1.2069,1.2337,1.2736,1.3923,1.4511,1.5859,1.8711,1.9102,2.0222,2.3187,2.2532,2.2566,2.4124,2.6438,2.9141,3.2266,3.4687,3.6016,3.6016,3.6016,3.6406,3.7266,3.8164,3.9023,3.9883,4.0781,4.1211,4.1211,4.1211,4.1211,4.1211,4.1211,4.1211,4.1211,4.1211,4.1211,4.1211,4.1211,4.1211,4.1211,4.1211,4.1211,4.1209,4.1091,4.0794,0.0,4.0937,4.1133,4.1326,4.2169,4.2034,4.1396,4.0615,3.875,3.6881,3.6406,3.6007,3.6584,4.0239,4.0854,4.1716,4.5924,4.568,4.5609,4.9375,5.0164,5.0356,5.1029,5.1549,5.2068,5.2644,5.3546,5.4254,5.4458,5.4925,5.5169,5.4998,5.5064,5.5102,5.5107,5.5237,5.5186,5.476,5.5134,5.5441,5.5598,5.5912,5.6548,5.7479,5.8097,5.8496,5.8604,5.9234,5.9569,5.9569,5.9912,6.0485,6.1275,6.1464,6.1281,6.0819,6.132,6.1166,6.0666,6.1666,6.1589,6.0819,6.1204,6.1127,6.0781,6.0781,6.1012,6.145,1.0543,1.0568,1.1041,1.2615,1.3086,1.3512,1.4328,1.499,1.5859,1.7109,1.7266,1.7998,1.9886,1.8894,1.8556,1.9657,2.3169,2.6679,2.9922,3.3594,3.5742,3.5976,3.6016,3.6289,3.6914,3.7812,3.8555,3.918,4.0312,4.0859,4.0859,4.1094,4.1211,4.1211,4.1211,4.1211,4.1211,4.1211,4.1211,4.1211,4.1211,4.1211,4.1211,4.1211,4.1048,4.076,4.0667,4.0315,3.9848,3.9871,4.0109,4.0483,4.1092,4.0781,4.0328,4.0713,3.8965,3.7291,3.9292,4.0162,4.1162,4.397,4.5201,4.6047,4.7314,4.7276,4.7699,5.0183,5.0856,5.1202,5.1799,5.2176,5.2702,5.3678,5.4192,5.4533,5.4647,5.5075,5.5207,5.4692,5.4711,5.4767,5.4943,5.5015,5.496,5.4671,5.5244,5.5913,5.6524,5.6792,5.7429,5.8588,5.9204,5.9432,5.9327,6.0005,6.0425,6.0655,6.0655,6.1287,6.2435,6.2435,6.1973,6.1166,6.182,6.1358,6.0281,6.132,6.1512,6.1166,6.1166,6.1281,6.1473,6.1473,6.1358,6.1281,1.1434,1.1476,1.1751,1.2732,1.3555,1.4375,1.5234,1.5391,1.543,1.5469,1.5469,1.5465,1.5496,1.5434,1.6066,1.7727,2.1839,2.5453,2.8125,3.2344,3.5117,3.5976,3.6016,3.6016,3.6055,3.6875,3.7344,3.7383,3.9101,3.9922,3.9961,4.0781,4.1211,4.1211,4.1211,4.1211,4.1211,4.1211,4.1211,4.1211,4.1211,4.1211,4.1211,4.1211,4.0583,3.9727,3.9739,3.9753,3.9431,3.77,3.7708,3.8397,3.8422,3.8397,3.8688,4.0269,3.8821,3.693,3.7815,3.9238,4.1316,4.4701,4.7432,4.924,4.9317,4.9971,5.0548,5.0664,5.1318,5.1895,5.1895,5.2894,5.3745,5.3782,5.4204,5.4652,5.5016,5.4776,5.4685,5.5025,5.4354,5.4012,5.4458,5.4848,5.5107,5.5107,5.6252,5.6973,5.6973,5.7758,5.8627,5.9435,5.9473,5.9896,6.0742,6.0781,6.1204,6.205,6.205,6.2474,6.3281,6.3281,6.282,6.205,6.2089,6.205,6.1935,6.1166,6.132,6.205,6.205,6.2551,6.3243,6.3243,6.2743,6.2166,1.2336,1.2345,1.2656,1.3553,1.3906,1.4375,1.5273,1.5391,1.5391,1.5391,1.5391,0.0,0.0,0.0,0.0,0.0,2.021,2.3306,2.7109,3.0312,3.3008,3.5039,3.5703,3.6016,3.6016,3.6836,3.7305,3.7305,3.9062,3.9883,3.9922,4.0781,4.1211,4.1211,4.1211,4.1211,4.1211,4.1211,4.1211,4.1211,4.1211,4.1211,4.1326,4.2354,4.0796,3.8075,0.0,3.7668,3.6163,3.5516,3.5482,3.5989,3.7151,3.7035,3.6394,3.574,3.6483,3.7853,3.9277,4.1739,4.4547,4.7394,4.9202,5.024,5.024,5.0471,5.0702,5.0702,5.0274,5.0084,5.0612,5.1304,5.1982,5.2523,5.3905,5.4839,5.4695,5.4836,5.4728,5.4317,5.4242,5.4196,5.404,5.4409,5.5047,5.5908,5.6621,5.7473,5.8588,5.8934,5.9473,6.0319,6.0358,6.0781,6.1627,6.1666,6.2089,6.2897,6.3474,6.3897,6.4166,6.4166,6.3705,6.2858,6.232,6.2089,6.2089,6.1781,6.2166,6.2897,6.2897,6.3051,6.3358,6.3935,6.3974,6.3782,0.0,1.3253,1.3446,1.3984,1.4375,0.0,0.0,0.0,0.0,0.0,0.0,0.0,0.0,0.0,0.0,0.0,0.0,2.1255,2.4352,2.7333,2.9954,3.2256,3.2883,3.347,3.4092,3.4367,3.4918,3.5859,3.7305,3.8359,3.8984,4.0195,4.0742,4.0742,4.1055,4.1211,4.1211,4.1211,4.1562,4.1992,4.1062,4.0842,4.1111,4.0858,3.8672,0.0,3.5186,3.3954,3.2567,3.2506,3.2954,3.3697,3.4815,3.5342,3.5406,3.452,3.6276,3.9046,4.1623,4.4162,4.6663,4.924,5.0048,5.024,5.024,5.024,5.024,5.024,4.952,4.9052,4.9577,5.029,5.0979,5.1473,5.3452,5.4787,5.4526,5.4575,5.449,5.4101,5.4166,5.4377,5.4693,5.4994,5.5502,5.6328,5.735,5.8357,5.9435,5.9819,6.0204,6.0781,6.0781,6.1204,6.2089,6.2089,6.2666,6.3782,6.4666,6.4897,6.4628,6.4936,6.4589,6.3743,6.3551,6.3281,6.2974,6.2974,6.3474,6.4205,6.3897,6.4128,6.4705,6.4974,6.5051,6.5051,0.0,0.0,1.4179,0.0,0.0,0.0,0.0,0.0,0.0,0.0,0.0,0.0,0.0,0.0,0.0,0.0,0.0,0.0,2.0249,2.3456,2.61,2.7839,2.7974,2.8797,3.0463,2.9757,3.0544,3.3046,3.3984,3.5351,3.707,3.8867,3.9687,3.9726,4.0547,4.0976,4.1016,4.0937,4.1836,4.3082,4.048,3.9921,4.025,3.7014,3.4575,3.2617,3.0297,2.9263,2.8967,2.9083,3.0352,3.1929,3.2006,3.3699,3.5853,3.6622,3.8161,4.0508,4.4509,4.6317,4.7625,5.001,4.9971,4.9356,4.9394,4.9394,4.9356,4.926,4.8945,4.8617,4.8442,4.9591,5.0514,5.0525,5.2741,5.4465,5.4472,5.4071,5.4007,5.4417,5.4127,5.4602,5.6235,5.6491,5.6572,5.6572,5.8385,5.9511,5.955,6.0358,6.0781,6.0781,6.0819,6.1281,6.2127,6.2243,6.3089,6.4666,6.5513,6.5474,6.4705,6.5551,6.5474,6.4705,6.559,6.5474,6.4743,6.4743,6.5243,6.5936,6.5128,6.5743,6.7013,6.6282,6.5974,6.5897,0.0,0.0,0.0,0.0,0.0,0.0,0.0,0.0,0.0,0.0,0.0,0.0,0.0,0.0,0.0,0.0,0.0,0.0,1.9302,2.0859,2.2782,2.515,2.652,2.7411,2.786,2.8225,2.8752,2.9421,3.1593,3.2904,3.3476,3.582,3.6953,3.6992,3.7226,3.7695,3.8242,3.7617,3.7555,3.777,3.6435,3.5604,3.5222,3.5527,3.339,3.0402,3.1553,2.994,2.7428,2.8659,3.1506,3.4737,3.6007,3.7276,3.8354,3.8584,4.1162,4.4239,4.5316,4.7163,4.8933,4.9548,4.9086,4.8586,4.924,4.9394,4.8971,4.7545,4.6466,4.4927,4.2247,4.4692,4.7073,4.6817,5.0853,5.3988,5.3981,5.4205,5.427,5.4007,5.5001,5.5921,5.6343,5.7796,5.8726,5.8702,5.9196,5.9781,6.0435,6.0666,6.0781,6.0781,6.1435,6.2166,6.2974,6.4282,6.5128,6.5551,6.5782,6.5782,6.559,6.6397,6.6359,6.559,6.6436,6.6667,6.6474,6.6474,6.6974,6.7744,6.7513,6.7282,6.7128,6.759,6.6974,6.5949,0.0,0.0,0.0,0.0,0.0,0.0,0.0,0.0,0.0,0.0,0.0,0.0,0.0,0.0,0.0,0.0,0.0,0.0,0.0,1.819,1.9516,2.1301,2.2354,2.3234,2.3991,2.4053,2.5056,2.6957,2.7644,2.8824,3.0381,3.1431,3.1987,3.2065,3.3192,3.3932,3.44,3.4673,3.5182,0.0,0.0,3.3274,3.3076,3.2439,3.0513,2.8289,2.9632,3.0044,3.0314,3.2737,3.493,3.6815,3.8161,3.9392,4.0623,4.1739,4.4008,4.6394,4.7509,4.8586,4.9394,4.9394,4.8471,4.7586,4.7702,4.7338,4.6474,4.4631,4.2913,4.1042,3.8627,4.201,4.5041,4.4841,4.9865,5.3821,5.3808,5.4016,5.4303,5.4593,5.5682,5.6742,5.7659,5.8819,5.9688,6.005,6.0089,6.0281,6.0781,6.0781,6.0973,6.1358,6.182,6.2666,6.3858,6.5205,6.5897,6.5897,6.5897,6.5897,6.5936,6.6744,6.7051,6.7051,0.0,6.8244,6.8244,6.8244,6.8513,6.8936,6.8552,6.8321,6.8244,6.8359,6.7821,6.6987,0.0,0.0,0.0,0.0,0.0,0.0,0.0,0.0,0.0,0.0,0.0,1.5349,1.5311,1.5311,0.0,0.0,0.0,0.0,0.0,0.0,1.6657,1.735,1.7465,1.8234,1.9773,1.915,2.0666,2.4473,2.3179,2.4091,2.7078,2.6578,2.636,2.6481,2.868,2.9752,2.9946,3.1276,3.2844,3.4241,3.1787,3.13,3.1718,0.0,2.7082,2.6467,2.6813,3.0044,3.4699,3.8161,3.9008,3.8854,3.9815,4.1277,4.3085,4.5278,4.6624,4.7894,5.0087,4.9971,4.924,4.924,4.7971,4.6509,4.5624,4.4557,4.3176,4.1246,3.9157,3.7343,3.6272,4.0066,4.3506,4.3804,4.9131,5.3381,5.3751,5.3862,5.4354,5.5646,5.6242,5.7319,5.9335,5.955,5.9896,6.0742,6.0781,6.0781,6.0781,6.0896,6.1396,6.2397,6.2435,6.3166,6.4743,6.5513,6.5897,6.5897,6.5897,6.5974,6.609,6.6898,6.7744,6.8629,6.9475,0.0,6.986,6.986,6.986,6.9783,6.9052,6.9129,6.9629,6.8975,6.859,6.8321,0.0,0.0,0.0,0.0,0.0,0.0,0.0,0.0,0.0,0.0,1.6705,1.5349,0.0,0.0,0.0,0.0,0.0,0.0,0.0,0.0,0.0,1.5618,1.6311,1.6849,1.7157,1.7657,1.8318,1.9057,2.0204,2.1089,2.1765,2.3023,2.3605,2.3703,2.4119,2.4755,2.5367,2.4934,2.5747,2.7179,2.5992,2.5976,2.6602,2.5967,2.5649,0.0,2.789,3.1044,3.4699,3.8161,4.0585,4.247,4.4008,4.5663,4.7086,4.7548,4.8779,5.0125,5.0587,4.9548,4.8317,4.8317,4.7086,4.5586,4.4701,4.3693,4.1972,3.8629,3.6911,3.5277,3.2798,3.6334,4.0283,4.2271,4.6947,5.1119,5.3456,5.4121,5.4839,5.613,5.6928,5.7943,5.935,5.9796,6.0242,6.0742,6.0781,6.0781,6.0781,6.1473,6.2589,6.4128,6.4166,6.4666,6.5667,6.582,6.5897,6.5897,6.5897,6.6244,6.6898,6.7782,6.8667,6.9513,7.036,0.0,7.0706,7.0706,7.0706,7.0667,7.0514,7.0167,6.9744,7.0283,6.959,6.8421,0.0,0.0,0.0,0.0,0.0,0.0,0.0,1.8037,1.8973,2.1529,2.0779,1.9284,1.7483,1.6066,1.5234,0.0,0.0,0.0,0.0,0.0,0.0,1.5189,1.5618,1.5811,1.5811,1.6195,1.6811,1.7702,0.0,1.8094,1.8975,1.8923,1.8905,1.8987,1.9838,2.0476,2.0904,2.1814,2.297,2.4088,2.4118,2.46,2.5303,2.5303,2.5851,0.0,2.8506,3.1583,3.5199,3.7238,4.0239,4.3393,4.5047,4.674,4.8086,4.8086,4.9317,5.0702,5.0702,4.974,4.8663,4.8202,4.7163,4.5586,4.2931,4.1379,3.9391,3.54,3.3634,3.2242,3.0478,3.4137,3.7955,3.9533,4.4929,4.9638,5.1633,5.3792,5.5495,5.6529,5.7799,5.8897,5.9722,6.024,6.055,6.0781,6.0781,6.1012,6.1435,6.2704,6.3782,6.4589,6.5051,6.5474,6.5897,6.5897,6.5897,6.5897,6.632,6.6744,6.7128,6.8475,6.9321,6.9744,7.0552,0.0,7.0898,7.0898,7.0898,7.0898,7.0898,7.0667,7.036,7.0744,7.0398,6.9679,0.0,0.0,0.0,0.0,0.0,0.0,0.0,2.0119,2.1173,2.4897,2.4841,2.3381,2.0521,1.7851,1.5997,0.0,0.0,0.0,0.0,0.0,0.0,0.0,0.0,0.0,1.5189,0.0,0.0,1.7157,1.5849,0.0,0.0,0.0,0.0,0.0,1.658,1.7157,1.7311,1.9504,2.1043,0.0,0.0,2.4159,2.5082,0.0,0.0,0.0,0.0,3.1545,3.4647,3.6199,3.8815,4.1816,4.3855,4.6163,4.8086,4.8086,4.9317,5.0664,5.0471,4.9779,4.8933,4.8048,4.724,4.5509,4.12,3.9184,3.7028,3.2808,3.0884,2.9806,2.9365,3.2559,3.5789,3.7477,4.2901,4.7681,5.0019,5.3193,5.5706,5.6907,5.8406,5.9549,6.0026,6.0441,6.0704,6.0781,6.1127,6.1627,6.232,6.3782,6.4705,6.4859,6.5551,6.5897,6.5897,6.5897,6.5897,6.5897,6.6705,6.7205,6.7436,6.8975,6.9783,6.9975,7.0629,0.0,0.0,7.0898,7.0898,7.0898,7.0898,7.0898,7.0898,7.0898,7.0898,7.0821,0.0,0.0,0.0,0.0,0.0,0.0,0.0,2.1117,2.3357,2.83,2.6847,2.4962,2.3865,2.1413,1.8581,0.0,0.0,0.0,0.0,0.0,0.0,0.0,0.0,0.0,0.0,0.0,0.0,1.5426,1.5266,0.0,0.0,0.0,0.0,0.0,0.0,1.5426,1.5503,1.6503,0.0,0.0,0.0,0.0,0.0,0.0,0.0,0.0,0.0,3.0533,3.1455,3.5391,3.6469,3.6776,3.9969,4.4239,4.8086,4.8086,4.9317,5.051,4.974,4.8894,4.8009,4.7201,4.6355,4.4586,4.0354,3.8362,3.6215,3.1976,3.0044,2.9329,2.9989,3.1054,3.333,3.7845,4.0644,4.4221,4.9927,5.2635,5.4844,5.7234,5.8309,5.9175,6.0022,6.0157,6.0358,6.0781,6.2204,6.3128,6.3205,6.4089,6.4974,6.5743,6.5859,6.5897,6.5897,6.5897,6.5897,6.5897,6.6705,6.7513,6.8321,6.9283,7.009,7.0783,7.086,0.0,0.0,7.0898,7.0898,7.0898,7.0898,7.0898,7.0898,7.0898,7.0898,7.0898,0.0,0.0,0.0,0.0,0.0,0.0,2.1375,2.1483,2.3281,2.9385,2.8772,2.7278,2.5877,2.3832,2.0581,1.5612,0.0,0.0,0.0,0.0,0.0,0.0,0.0,0.0,0.0,0.0,1.5465,1.5965,1.5965,0.0,0.0,0.0,0.0,0.0,0.0,1.6234,1.6734,1.708,0.0,0.0,0.0,0.0,0.0,0.0,0.0,0.0,0.0,0.0,3.1429,3.3122,3.4814,3.6469,3.7777,4.0662,4.3932,4.597,4.7817,4.9163,4.9356,4.9163,4.8548,4.724,4.6624,4.4991,3.9572,3.7813,3.591,3.1053,2.9471,2.9085,2.9439,3.0136,3.1788,3.5202,3.8066,4.1134,4.4815,4.8551,5.1744,5.4012,5.6106,5.8117,5.9945,6.0358,6.0819,6.1512,6.2666,6.3551,6.4051,6.4897,6.5551,6.5897,6.5897,6.5897,6.5897,6.5897,6.5897,6.5897,6.7244,6.8052,6.8475,6.9821,7.0591,7.0898,7.0898,0.0,0.0,7.0898,7.0898,7.0898,7.0898,7.0898,7.0898,7.0898,7.0898,7.0898,0.0,0.0,0.0,0.0,0.0,1.7059,2.1956,2.2157,2.3803,2.9571,2.9506,2.8356,2.6845,2.4254,2.0889,1.6696,1.5618,0.0,0.0,0.0,0.0,0.0,0.0,0.0,0.0,0.0,1.6003,1.6849,1.7119,1.7234,0.0,0.0,1.7657,1.6849,0.0,0.0,0.0,0.0,0.0,0.0,0.0,0.0,0.0,0.0,0.0,0.0,0.0,0.0,0.0,0.0,0.0,3.5315,3.5815,3.7199,3.9508,4.3932,4.624,4.7586,4.8702,4.9009,4.8663,4.724,4.6509,4.4648,3.895,3.73,3.5491,3.0445,2.92,2.8975,2.8975,2.9475,3.065,3.3036,3.568,3.8497,4.1624,4.5547,4.8937,5.1276,5.4242,5.681,5.864,6.0258,6.155,6.2397,6.3205,6.4051,6.4936,6.5551,6.5897,6.5897,6.5897,6.5897,6.5897,6.5897,6.6013,6.6282,6.7705,6.8552,6.8821,7.0244,7.0898,7.0898,7.0898,0.0,0.0,7.0898,7.0898,7.0898,7.0898,7.0898,7.0898,7.0898,7.0898,7.0898,0.0,0.0,0.0,0.0,0.0,0.0,2.1152,2.3252,2.5586,2.8984,2.866,2.7746,2.6807,2.2115,1.9035,1.8972,1.6657,0.0,0.0,0.0,0.0,0.0,0.0,0.0,0.0,0.0,1.6888,1.7702,1.8535,1.8965,1.8972,1.8965,1.8535,1.7664,0.0,0.0,0.0,0.0,0.0,0.0,0.0,0.0,0.0,0.0,0.0,0.0,0.0,0.0,0.0,0.0,0.0,0.0,0.0,3.4237,3.5584,4.2354,4.4932,4.597,4.7663,4.8125,4.7932,4.7086,4.5586,4.3167,3.8644,3.6787,3.4753,3.0295,2.92,2.8975,2.8975,2.9012,2.9782,3.2228,3.3647,3.6409,4.209,4.4651,4.7006,4.989,5.315,5.537,5.5815,5.9634,6.2435,6.3243,6.4089,0.0,6.582,6.5897,6.5897,6.5897,6.5897,6.5897,6.5897,6.5897,6.6282,6.709,6.7975,6.8859,6.9706,7.0514,7.0898,7.0898,0.0,0.0,0.0,7.0898,7.0898,7.0898,7.0898,7.0898,7.0898,7.0898,7.0898,7.0898,0.0,0.0,0.0,0.0,0.0,0.0,0.0,1.9176,2.0352,2.3828,2.3425,2.3166,2.4084,2.1082,1.9004,1.9004,1.6651,0.0,0.0,0.0,0.0,0.0,0.0,0.0,0.0,1.6888,1.8311,2.0312,2.1158,2.1889,2.2474,2.1889,2.1119,2.0235,1.8819,1.8657,0.0,0.0,0.0,0.0,0.0,0.0,0.0,0.0,0.0,0.0,0.0,0.0,0.0,0.0,0.0,0.0,0.0,0.0,0.0,3.8465,4.1294,4.309,4.3426,4.4479,4.5009,4.3008,4.2124,4.0636,3.6615,3.5401,3.4014,2.9968,2.9044,2.8975,2.8975,2.8975,3.0356,3.4468,3.5423,3.7172,4.1428,4.4721,4.759,4.9996,5.5465,5.9072,5.9196,6.0964,6.2411,6.3243,6.4128,6.4974,6.5859,6.5897,6.5897,6.5897,6.5897,6.5897,6.5897,6.6436,6.6859,6.7128,6.859,6.9436,6.9744,7.0514,7.0898,0.0,0.0,0.0,0.0,7.0898,7.0898,7.0898,7.0898,7.0898,7.0898,7.0898,7.0898,7.0898,0.0,0.0,0.0,0.0,0.0,0.0,0.0,1.7617,1.8477,2.0625,2.0338,2.0597,2.2311,1.9548,1.7965,1.8919,1.6651,0.0,0.0,0.0,0.0,0.0,0.0,0.0,1.6465,1.7003,1.8965,2.2466,2.3004,2.4052,2.5515,2.4966,2.3735,2.1927,2.0542,2.0081,0.0,0.0,0.0,0.0,0.0,0.0,2.162,0.0,0.0,0.0,0.0,0.0,0.0,0.0,0.0,0.0,0.0,0.0,0.0,0.0,3.7403,3.9269,4.0959,4.2353,4.2953,4.1272,4.0191,3.87,3.5477,3.4263,3.2938,2.9805,2.9067,2.8975,2.8975,2.8975,3.0099,3.344,3.4504,3.6518,4.1027,4.4158,4.7521,5.1654,5.6295,5.9457,6.0242,6.168,6.2757,6.3281,6.4397,6.532,6.5859,6.5897,6.5897,6.5897,6.5897,6.5897,6.5897,6.6705,6.7282,6.7628,6.9013,6.986,7.0167,7.0667,7.0898,0.0,0.0,0.0,0.0,7.0898,7.0898,7.0898,7.0898,7.0898,7.0898,7.0898,7.0898,7.0898,0.0,0.0,0.0,0.0,0.0,0.0,0.0,1.7969,1.9023,1.9023,1.897,1.9538,2.1053,1.7644,1.6151,1.8535,0.0,0.0,0.0,0.0,0.0,0.0,0.0,0.0,1.6465,1.6696,1.9165,2.4091,2.436,2.5746,2.8159,2.8121,2.6274,2.3043,2.2081,2.1158,2.0235,0.0,0.0,0.0,0.0,0.0,0.0,0.0,0.0,0.0,0.0,0.0,0.0,0.0,0.0,0.0,0.0,0.0,0.0,0.0,0.0,0.0,0.0,4.1126,4.1344,4.1036,3.9363,3.7264,3.5002,3.3318,0.0,2.977,2.9178,2.9012,2.9122,2.9085,2.9379,3.054,3.1997,3.5151,4.1322,4.3867,4.7701,5.4718,5.6299,5.7574,5.9504,6.1873,6.332,6.3397,6.4936,6.5897,6.5897,6.5897,6.5897,6.5897,6.5897,6.5897,6.5897,6.6744,6.759,6.8398,6.936,7.0167,7.0898,7.0898,7.0898,0.0,0.0,0.0,0.0,7.0898,7.0898,7.0898,7.0898,7.0898,7.0898,7.0898,7.0898,7.0898,0.0,0.0,0.0,0.0,0.0,0.0,0.0,0.0,0.0,0.0,1.6272,1.6363,1.6756,1.5829,1.542,0.0,0.0,0.0,0.0,0.0,0.0,0.0,0.0,0.0,1.6465,1.8427,2.0966,2.4091,2.6669,2.889,3.0775,3.0121,2.8352,2.5659,2.4159,2.2312,2.0312,2.0081,0.0,0.0,0.0,0.0,0.0,0.0,0.0,0.0,2.5967,2.8005,0.0,0.0,0.0,0.0,0.0,0.0,0.0,0.0,3.282,3.3517,3.4887,0.0,3.7694,3.6795,3.632,3.5454,0.0,3.2352,3.1619,2.9518,2.9044,2.9379,3.0613,2.9843,3.0503,3.5055,3.6324,3.885,4.4987,5.055,5.522,5.8543,5.9427,6.0219,6.1381,6.2589,6.3589,6.4243,6.5282,6.5897,6.5897,6.5897,6.5897,6.5897,6.5897,6.5897,6.5897,6.7359,6.8205,6.8436,6.9898,7.0706,7.0898,7.0898,7.0898,0.0,0.0,0.0,7.0898,7.0898,7.0898,7.0898,7.0898,7.0898,7.0898,7.0898,7.0898,7.0898,0.0,0.0,0.0,0.0,0.0,0.0,0.0,0.0,0.0,0.0,0.0,1.5343,1.5334,1.5272,0.0,0.0,0.0,0.0,0.0,0.0,0.0,0.0,0.0,1.5618,1.6465,1.8196,2.0927,2.4659,2.6862,2.944,3.2237,3.1405,2.9636,2.7082,2.4197,2.1927,2.0273,1.9888,1.9927,2.0273,1.9842,0.0,0.0,0.0,0.0,0.0,2.562,2.7852,0.0,3.2314,3.3468,3.4122,0.0,0.0,0.0,0.0,3.1775,3.1866,3.2319,3.4518,3.6511,3.5683,3.5474,3.4955,3.2937,3.2051,3.1205,2.9638,2.9141,2.9412,3.0789,3.1621,3.3101,3.6286,3.9264,4.3177,4.9083,5.4685,5.8611,5.9911,6.0512,6.1151,6.2021,6.282,6.3641,6.4537,6.5397,6.5897,6.5897,6.5897,6.5897,6.5897,6.5897,6.5897,6.5897,6.7552,6.8398,6.8436,7.009,7.0898,7.0898,7.0898,7.0898,0.0,0.0,0.0,7.0898,7.0898,7.0898,7.0898,7.0898,7.0898,7.0898,7.0898,7.0898,7.0871,0.0,0.0,0.0,0.0,0.0,0.0,0.0,0.0,0.0,0.0,0.0,0.0,0.0,0.0,0.0,0.0,0.0,0.0,0.0,0.0,0.0,0.0,1.5189,1.5734,1.6849,1.7542,2.035,2.5303,2.6689,2.9347,3.3096,3.2865,3.1174,2.8082,2.3389,2.0927,2.0235,1.9511,1.9619,2.0235,1.9496,0.0,0.0,0.0,0.0,0.0,0.0,0.0,0.0,3.1968,3.3276,3.4007,3.3045,0.0,0.0,0.0,0.0,0.0,3.1645,3.4442,3.6842,3.5666,3.5522,3.5277,3.3677,3.2317,3.1071,3.0056,2.9502,2.9747,3.1464,3.3955,3.6136,3.731,4.2306,4.787,5.3124,5.7224,5.9835,6.0181,6.055,6.1166,6.219,6.2911,6.3732,6.4705,6.5474,6.5897,6.5897,6.5897,6.5897,6.5897,6.5897,6.5974,6.609,6.7628,6.8475,6.8629,7.0167,7.0898,7.0898,7.0898,7.0898,7.0898,0.0,0.0,7.0898,7.0898,7.0898,7.0898,7.0898,7.0898,7.0898,7.0898,7.0898,7.0805,0.0,0.0,0.0,0.0,0.0,0.0,0.0,0.0,0.0,0.0,0.0,0.0,0.0,0.0,0.0,0.0,0.0,0.0,0.0,0.0,0.0,1.5189,1.5189,1.6272,1.8588,1.8734,2.0957,2.5303,2.908,3.1995,3.4056,3.6537,3.4969,2.9737,2.3351,2.0427,2.0312,2.0158,2.0196,2.0312,2.015,0.0,0.0,0.0,0.0,0.0,0.0,0.0,0.0,3.0237,3.2314,3.393,3.2352,0.0,0.0,0.0,0.0,0.0,3.3983,3.6642,3.7963,3.4018,3.4795,3.5983,3.3866,3.3185,3.2543,3.0804,3.04,3.1719,3.6133,3.64,3.7839,4.3526,4.8476,5.2732,5.5976,5.8864,6.0627,6.0704,6.0742,6.1411,6.2963,6.3207,6.3962,6.559,6.582,6.5897,6.5897,6.5897,6.5897,6.5897,6.5897,6.6244,6.6898,6.7898,6.8783,6.9513,7.0437,7.0898,7.0898,7.0898,7.0898,7.0898,0.0,7.0898,7.0898,7.0898,7.0898,7.0898,7.0898,7.0898,7.0898,7.0898,7.0898,7.0748,0.0,0.0,0.0,0.0,0.0,0.0,0.0,0.0,0.0,0.0,0.0,0.0,0.0,0.0,0.0,0.0,0.0,0.0,0.0,0.0,1.5811,1.7196,1.7234,1.7818,1.8972,1.9465,2.1534,2.5303,2.7277,3.0987,3.6254,3.6779,3.5149,3.1429,2.4389,2.0889,2.035,2.0773,2.0696,2.035,0.0,0.0,0.0,0.0,0.0,0.0,0.0,0.0,0.0,0.0,3.1775,3.3276,3.2083,0.0,0.0,0.0,0.0,0.0,3.2286,3.4529,3.6378,3.5637,3.8524,4.1212,4.0004,3.9411,3.8498,3.6254,3.568,3.6449,3.9359,4.0874,4.3916,5.0826,5.3338,5.5215,5.7636,5.9194,6.0173,6.0396,6.0666,6.145,6.313,6.3284,6.4039,6.5782,6.5897,6.5897,6.5897,6.5897,6.5897,6.5897,6.632,6.6936,6.7782,6.8667,6.9321,6.9706,7.0514,7.0898,7.0898,7.0898,7.0898,7.0898,0.0,7.0898,7.0898,7.0898,7.0898,7.0898,7.0898,7.0898,7.0898,7.0898,7.0719,7.0362,0.0,0.0,0.0,0.0,0.0,0.0,0.0,0.0,0.0,0.0,0.0,0.0,0.0,0.0,0.0,0.0,0.0,0.0,0.0,1.5234,1.6234,1.8588,1.9088,1.9858,2.1051,2.1735,2.3812,2.739,2.8181,3.2235,3.9138,3.6661,3.3532,2.9702,2.4082,2.1281,2.0727,2.1081,2.0966,2.0619,0.0,0.0,0.0,0.0,0.0,0.0,0.0,0.0,0.0,0.0,0.0,0.0,0.0,0.0,0.0,3.1352,3.0852,3.0891,3.1648,3.3314,3.5507,3.8469,4.1354,4.382,4.4939,4.4095,4.2718,4.138,4.0901,4.1182,4.2641,4.5896,5.0329,5.6335,5.6725,5.7016,5.8995,5.9579,5.9926,6.0242,6.0589,6.145,6.3155,6.3284,6.4001,6.5782,6.5897,6.5897,6.5897,6.5897,6.5897,6.5897,6.6667,6.7513,6.8398,6.9244,6.9783,6.9975,7.0591,7.0898,7.0898,7.0898,7.0898,7.0898,7.0898,7.0898,7.0898,7.0898,7.0898,7.0898,7.0898,7.0898,7.0898,7.0898,7.0554,7.0026,0.0,0.0,0.0,0.0,0.0,0.0,0.0,0.0,0.0,0.0,0.0,0.0,0.0,0.0,0.0,0.0,0.0,0.0,0.0,1.5234,1.5965,1.7741,1.935,2.2427,2.7159,2.7313,2.939,3.3545,3.6742,3.983,4.2626,3.7752,3.0407,2.1196,2.0666,2.0966,2.1795,2.0804,2.0773,2.1427,2.1466,0.0,0.0,0.0,0.0,0.0,0.0,0.0,0.0,0.0,0.0,0.0,0.0,0.0,3.2891,3.2776,3.2199,3.2275,3.5391,3.6392,3.7507,4.17,4.0008,3.8777,4.4299,4.2889,4.1017,4.3254,4.3655,4.436,4.687,5.0964,5.4836,5.7742,5.8165,5.8704,6.0435,6.0666,6.0704,6.0742,6.0781,6.1473,6.3166,6.3295,6.4026,6.5782,6.5897,6.5897,6.5897,6.5897,6.5897,6.5897,6.6667,6.7513,6.8398,6.9244,7.0052,7.0821,7.086,7.0898,7.0898,7.0898,7.0898,7.0898,7.0898,7.0898,7.0898,7.0898,7.0898,7.0898,7.0898,7.0898,7.0898,7.0898,7.0554,7.0103,0.0,0.0,0.0,0.0,0.0,0.0,0.0,0.0,0.0,0.0,0.0,0.0,0.0,0.0,0.0,0.0,0.0,0.0,0.0,1.5234,1.6426,1.9196,2.0966,2.3505,2.7005,3.0044,3.3737,3.8123,4.1517,4.157,3.8229,3.2058,2.711,2.3362,2.1991,2.2739,2.4985,2.2782,2.262,2.3812,2.3312,2.2774,0.0,0.0,0.0,0.0,0.0,0.0,0.0,0.0,2.9198,3.1121,3.066,3.2006,3.3506,3.2468,3.1929,3.2199,3.4507,3.6315,3.8277,4.1508,4.147,4.2085,4.7509,4.8068,4.7856,4.9411,4.9719,4.9987,5.0985,5.3392,5.5934,5.7973,5.8319,5.8896,6.055,6.0781,6.0781,6.0781,6.1272,6.2041,6.318,6.3795,6.4603,6.582,6.5897,6.5897,6.5897,6.5897,6.5897,6.5897,6.7205,6.809,6.8398,6.9744,7.0591,7.0898,7.0898,7.0898,7.0898,7.0898,7.0898,7.0898,7.0898,7.0898,7.0898,7.0898,7.0898,7.0898,7.0898,7.0898,7.0898,7.0898,7.0777,7.0578,0.0,0.0,0.0,0.0,0.0,0.0,0.0,0.0,0.0,0.0,0.0,0.0,0.0,0.0,0.0,0.0,0.0,0.0,1.5284,1.5272,1.6503,1.935,2.1119,2.3466,2.6533,3.1118,3.5277,3.8931,4.2893,4.1777,3.5905,3.033,2.7424,2.6815,2.4754,2.5264,2.7489,2.4754,2.4235,2.5187,2.412,2.3514,0.0,0.0,0.0,0.0,0.0,0.0,0.0,0.0,2.8582,3.0467,3.0352,3.1891,3.3622,3.2737,3.3237,3.4353,3.5507,3.7084,3.9161,4.2239,4.2854,4.4085,4.9471,5.0702,5.1318,5.3549,5.3587,5.3356,5.3895,5.4472,5.5665,5.7934,5.828,5.8896,6.055,6.0781,6.0781,6.0781,6.1579,6.24,6.3218,6.4103,6.4949,6.582,6.5897,6.5897,6.5897,6.5897,6.6013,6.6282,6.7667,6.8552,6.8821,7.0206,7.0898,7.0898,7.0898,7.0898,7.0898,7.0898,7.0898,7.0898,7.0898,7.0898,7.0898,7.0898,7.0898,7.0898,7.0898,7.0898,7.0898,7.0898,7.0777,7.0647,0.0,0.0,0.0,0.0,0.0,0.0,0.0,0.0,1.5391,1.5391,1.5391,0.0,0.0,0.0,0.0,0.0,0.0,0.0,1.5295,1.5311,1.6003,1.7626,1.9388,2.2265,2.6446,3.0675,3.3716,3.5532,4.0585,4.1024,3.7126,3.4263,3.2023,3.0327,2.8687,2.8379,2.8946,2.642,2.5341,2.5187,2.3543,2.336,2.4014,0.0,0.0,0.0,0.0,0.0,0.0,0.0,2.789,2.8467,3.1814,3.2891,3.3083,3.393,3.6584,3.9238,3.9238,3.9277,4.0315,4.4509,4.3701,4.347,4.9356,4.9394,4.9586,5.4664,5.4395,5.3741,5.5395,5.4357,5.4318,5.7726,5.8303,5.8896,6.055,6.0781,6.0781,6.0781,6.1589,6.2411,6.3218,6.4128,6.4974,6.582,6.5897,6.5897,6.5897,6.5897,6.6282,6.7051,6.7936,6.8821,6.9706,7.0514,7.0898,7.0898,7.0898,7.0898,7.0898,7.0898,7.0898,7.0898,7.0898,7.0898,7.0898,7.0898,7.0898,7.0898,7.0898,7.0898,7.0898,7.0898,7.0593,7.0255,0.0,0.0,0.0,0.0,0.0,0.0,0.0,0.0,1.5391,1.5391,1.5391,0.0,0.0,0.0,0.0,0.0,0.0,0.0,1.5371,1.5341,1.6048,1.7716,1.9396,2.1158,2.2983,2.721,3.1968,3.7261,3.841,3.8361,3.7126,3.3865,3.2069,3.1546,3.024,3.0113,3.0748,2.8198,2.7813,2.8802,2.7659,2.6659,2.589,0.0,0.0,0.0,0.0,0.0,0.0,0.0,0.0,0.0,2.9737,3.1468,3.2968,3.3199,3.4007,3.493,3.5545,3.8777,4.2124,4.2777,4.6394,5.0125,5.1279,5.1164,5.1702,5.5011,5.528,5.5126,5.5588,5.528,5.5665,5.7918,5.8303,5.8896,6.055,6.0781,6.0781,6.0781,6.2089,6.3051,6.3281,6.4628,6.5628,6.5859,6.5897,6.5897,0.0,6.5897,6.6282,6.7051,6.7936,6.8821,6.9706,7.0514,7.0898,7.0898,7.0898,7.0898,7.0898,7.0898,7.0898,7.0898,7.0898,7.0898,7.0898,7.0898,7.0898,7.0898,7.0898,7.0898,7.0898,7.0898,7.0907,7.102,0.0,0.0,0.0,0.0,0.0,0.0,1.5391,1.5391,1.5391,1.5391,1.5391,1.5391,0.0,0.0,0.0,1.5391,1.5391,1.5391,1.5391,1.5691,1.6451,1.7774,1.9742,2.182,2.4011,2.7209,3.0552,3.3973,3.4786,3.5117,3.5008,3.3955,3.3634,3.3935,3.3935,3.3454,3.2569,3.0671,2.989,2.9813,2.8967,2.8005,2.7121,0.0,0.0,0.0,0.0,0.0,0.0,0.0,0.0,0.0,2.7967,2.9621,3.1737,3.343,3.5353,3.743,3.9623,4.3124,4.6317,4.7124,4.9779,5.2433,5.3241,5.3395,5.3857,5.5395,5.5434,5.5318,5.5626,5.5724,5.6263,5.8017,5.8556,5.9249,6.0589,6.0781,6.0781,6.0781,6.2281,6.3281,6.332,6.4897,6.5897,6.5897,0.0,0.0,0.0,6.5897,6.6436,6.759,6.8129,6.8975,7.0167,7.0667,7.0898,7.0898,7.0898,7.0898,7.0898,7.0898,7.0898,7.0898,7.0898,7.0898,7.0898,7.0898,7.0898,7.0898,7.0898,7.0898,7.0898,7.0898,7.093,7.1067,0.0,0.0,0.0,0.0,0.0,0.0,1.5391,1.5391,1.5391,1.5391,1.5391,1.5391,0.0,0.0,0.0,1.5391,1.5391,1.5391,1.5391,1.6295,1.7153,1.7985,2.055,2.3783,2.7711,2.9184,2.9193,2.7653,3.0535,3.1837,3.1619,3.4199,3.5835,3.6773,3.8383,3.7205,3.4017,3.3082,3.1249,2.8929,2.8352,2.8005,2.7698,2.7005,0.0,0.0,0.0,0.0,0.0,0.0,0.0,0.0,2.6544,2.7582,2.9583,3.3699,3.8469,4.3278,4.7278,4.9433,5.1318,5.4472,5.3164,5.1933,5.5011,5.5703,5.5703,5.5703,5.5126,5.4818,5.5549,5.5763,5.6382,5.8038,5.8984,5.9793,6.0689,6.0781,6.0781,6.0781,6.2305,6.3306,6.332,6.4897,6.5897,0.0,0.0,0.0,0.0,6.5897,6.6667,6.8359,6.8398,6.9206,7.0898,7.0898,7.0898,7.0898,7.0898,7.0898,7.0898,7.0898,7.0898,7.0898,7.0898,7.0898,7.0898,7.0898,7.0898,7.0898,7.0898,7.0898,7.0898,7.0898,7.0806,7.0705,0.0,0.0,0.0,0.0,0.0,0.0,1.5391,1.5391,1.5391,1.5391,1.5391,1.5391,1.5391,1.5391,0.0,1.5391,1.5391,1.5391,1.5391,1.6793,1.802,1.8874,2.2554,2.5283,2.6853,2.6554,2.6235,2.5854,2.9168,3.0739,3.0732,3.3288,3.5277,3.6719,3.7079,3.5748,3.307,3.158,2.9875,2.8275,2.939,2.8659,2.6928,2.7428,2.6274,0.0,0.0,0.0,0.0,0.0,0.0,0.0,2.6197,2.639,2.6697,2.9621,3.3622,3.7623,3.9854,4.497,5.001,5.1433,5.3203,5.4818,5.5549,5.5703,5.5703,5.5703,5.5549,5.5472,5.5665,5.6263,5.7093,5.8149,5.8963,5.9793,6.0689,6.0781,6.0781,6.0781,6.2281,6.332,6.332,6.4897,0.0,0.0,0.0,0.0,6.5897,6.5897,6.6667,6.8359,6.8398,6.9206,7.0898,7.0898,7.0898,0.0,7.0898,7.0898,7.0898,7.0898,7.0898,7.0898,7.0898,7.0898,7.0898,7.0898,7.0898,7.0898,7.0898,7.0898,7.0898,7.0898,7.1116,7.1539,0.0,0.0,0.0,0.0,0.0,0.0,0.0,0.0,1.5391,1.5391,1.5391,1.5391,1.5391,1.5391,0.0,0.0,1.5391,1.5391,1.5391,1.6602,1.8426,2.0919,2.4424,2.6495,2.6883,2.8245,2.7362,2.4107,2.5087,2.666,2.883,3.1239,3.4021,3.6938,3.6949,3.5004,3.1653,3.0777,2.9175,2.7428,2.9083,2.8494,2.6705,2.7841,2.6274,2.3437,2.3206,0.0,0.0,0.0,0.0,0.0,0.0,0.0,2.4851,2.8621,3.216,3.6045,4.1393,4.6355,5.051,5.2587,5.4395,5.5703,5.5703,5.5703,5.5703,5.5703,5.5703,5.5703,5.5703,5.6746,5.7769,5.8248,5.9326,6.0288,6.0742,6.0781,6.0781,6.0781,6.2257,6.3295,6.332,6.4897,0.0,0.0,0.0,6.5897,6.5897,6.5897,6.6667,6.8359,6.8398,6.9206,7.0898,7.0898,7.0898,7.0898,7.0898,7.0898,7.0898,7.0898,7.0898,7.0898,7.0898,7.0898,7.0898,7.0898,7.0898,7.0898,7.0898,7.0898,7.0898,7.0898,7.1401,7.2167,0.0,0.0,0.0,0.0,0.0,0.0,0.0,0.0,0.0,1.5391,1.5391,1.5391,1.5391,1.5391,1.5391,0.0,0.0,0.0,1.5391,1.6367,1.8789,2.2969,2.5421,2.689,2.7328,3.0126,2.9006,2.3674,2.1397,2.2218,2.59,2.8964,3.2627,3.6612,3.6603,3.4238,3.0144,2.9709,2.8155,2.6082,2.7621,2.7369,2.6211,2.7358,2.5736,2.2675,2.1735,2.2427,2.3629,2.2851,0.0,0.0,0.0,0.0,2.3428,2.7813,3.1198,3.5315,4.3508,4.8048,5.1318,5.4818,5.5703,5.5703,5.5703,5.5703,5.5703,5.5703,5.5703,5.5742,5.5895,5.7208,5.8368,5.8484,5.9788,6.0781,6.0781,6.0781,6.0858,6.1012,6.2373,6.3334,6.3512,0.0,0.0,0.0,0.0,6.5897,6.5897,6.6013,6.6821,6.8359,6.8552,6.936,7.0898,7.0898,7.0898,7.0898,7.0898,7.0898,7.0898,7.0898,7.0898,7.0898,7.0898,7.0898,7.0898,7.0898,7.0898,7.0898,7.0898,7.0898,7.0937,7.1052,7.1751,7.265,0.0,0.0,0.0,0.0,0.0,0.0,0.0,0.0,0.0,0.0,1.5391,1.5391,1.5391,1.5391,1.5391,1.5391,1.5391,1.5391,1.5391,0.0,0.0,2.3594,2.4097,2.5377,2.7735,2.6824,2.6597,2.7226,2.2555,2.0623,2.1321,2.7497,3.1799,3.426,3.4234,3.2416,2.9128,2.6901,2.4965,2.3389,2.4361,2.4476,2.4024,2.4197,2.3669,2.2474,1.9965,2.0427,2.2235,2.1812,2.2735,0.0,0.0,0.0,2.1966,2.3389,2.7198,3.166,3.5122,4.2662,5.0548,5.4664,5.5703,5.5703,5.5703,5.5703,5.5703,5.5703,5.5703,5.5934,5.6708,5.7653,5.8522,5.9237,6.0173,6.0781,6.0781,6.0781,6.1089,6.1834,6.2719,6.3589,0.0,0.0,0.0,0.0,6.5897,6.5897,6.5897,6.6551,6.7398,6.8359,6.9129,6.9975,7.0898,7.0898,7.0898,7.0898,7.0898,7.0898,7.0898,7.0898,7.0898,7.0898,7.0898,7.0898,7.0898,7.0898,7.0898,7.0898,7.0898,7.0898,7.0975,7.1745,7.2249,7.2761,0.0,0.0,0.0,0.0,0.0,0.0,0.0,0.0,0.0,0.0,0.0,1.5391,1.5391,1.5391,1.5391,1.5391,1.5391,1.5391,1.5391,1.7031,1.8945,2.1016,2.2617,2.4461,2.6605,2.2052,2.0037,2.0785,2.2333,2.3084,2.3237,3.0087,3.3799,3.4634,3.2131,3.0286,2.8917,2.5936,2.3934,2.2871,2.3525,2.3391,2.2825,2.4082,2.3256,2.1004,1.785,1.7727,1.9227,1.9879,2.0933,2.185,2.1081,0.0,0.0,0.0,2.4351,2.8582,3.6353,4.3816,5.0394,5.4626,5.5703,5.5703,5.5703,5.5703,5.5703,5.5703,5.5703,5.5994,5.6862,5.7709,5.8534,5.9342,6.0227,6.0781,6.0781,6.0781,6.1127,6.2002,6.2796,0.0,0.0,0.0,0.0,0.0,6.5897,6.5897,6.5897,6.6667,6.7513,6.8359,6.9244,7.009,7.0898,7.0898,7.0898,7.0898,7.0898,7.0898,7.0898,7.0898,7.0898,7.0898,7.0898,7.0898,7.0898,7.0898,7.0898,7.0898,7.0898,7.0898,7.1014,7.186,7.2592,7.3277,0.0,0.0,0.0,0.0,0.0,0.0,0.0,0.0,0.0,0.0,0.0,1.5391,1.5391,0.0,0.0,0.0,1.5391,1.5391,1.5391,1.6602,1.7539,1.8008,2.0078,2.1788,2.308,1.7915,1.5189,1.5189,2.1111,2.5341,2.7991,3.3147,3.5545,3.5339,3.1456,2.9484,2.8962,2.587,2.3989,2.3129,2.2889,2.2277,2.1752,2.34,2.2498,1.985,1.642,1.6042,1.7227,1.8175,1.958,2.085,2.0427,2.0427,0.0,0.0,0.0,2.6092,3.6661,4.2624,4.7201,5.2702,5.428,5.4664,5.5511,5.5703,5.5703,5.5703,5.5703,5.6032,5.7131,5.7841,5.8665,5.9642,6.0396,6.0781,6.0781,6.0781,6.1204,6.2296,6.2911,0.0,0.0,0.0,0.0,0.0,6.5897,6.5974,6.6205,6.6974,6.7821,6.8706,6.9552,7.0283,7.0898,7.0898,7.0898,7.0898,7.0898,7.0898,7.0898,7.0898,7.0898,7.0898,7.0898,7.0898,7.0898,7.0898,7.0898,7.0898,7.0898,7.0898,7.1014,7.2129,7.2937,7.3668,0.0,0.0,0.0,0.0,0.0,0.0,0.0,0.0,0.0,0.0,0.0,1.5391,1.5391,1.5391,1.5391,1.5391,1.5391,1.5391,1.5391,1.5469,1.5547,1.5586,1.5742,0.0,1.5937,1.5439,1.5189,1.5189,1.8811,2.5484,3.4964,3.5481,3.5661,3.5493,3.3158,3.1108,2.9215,2.6547,2.4924,2.3906,2.1451,2.0419,2.0399,2.0515,2.045,1.985,1.642,1.6272,1.758,1.7151,1.9542,2.2389,2.0812,2.0812,2.1312,0.0,0.0,0.0,3.1468,3.4776,3.8392,4.7471,5.0356,5.1779,5.4972,5.5703,5.5703,5.5703,5.5703,5.6225,5.7923,5.8286,5.8819,6.0473,6.0781,6.0781,6.0781,6.0781,6.1396,6.3051,0.0,0.0,0.0,0.0,0.0,0.0,6.5897,6.6244,6.7013,6.7859,6.8744,6.959,7.0437,7.086,7.0898,7.0898,7.0898,7.0898,7.0898,7.0898,7.0898,7.0898,7.0898,7.0898,7.0898,7.0898,7.0898,7.0898,7.0898,7.0898,7.0898,7.0898,7.1129,7.2822,7.3476,7.3745,0.0,0.0,0.0,0.0,0.0,0.0,0.0,0.0,0.0,0.0,0.0,0.0,0.0,1.5391,1.5391,1.5391,1.5391,1.5391,1.5391,1.5391,1.5391,1.5391,1.5391,1.5391,1.5391,1.5338,1.5321,1.5321,1.8666,2.3364,2.9273,3.1417,3.2478,3.2544,3.1685,3.1174,3.072,2.6552,2.4869,2.4773,2.1589,2.3636,2.9476,3.6978,3.9806,3.9662,3.843,2.9967,1.9342,1.9158,1.955,2.0119,2.0273,2.0119,1.9858,1.955,2.1435,2.463,2.9198,3.2929,3.6969,4.3008,4.7201,5.0317,5.2087,5.4164,5.5703,5.5703,5.6148,5.69,5.8077,5.8308,5.8864,6.0512,6.0781,6.0781,6.0781,6.1304,6.2036,6.3166,0.0,0.0,0.0,0.0,0.0,0.0,0.0,6.6244,6.7051,6.7936,6.8821,6.9667,7.0475,7.0898,7.0898,7.0898,7.0898,7.0898,7.0898,7.0898,7.0898,7.0898,7.0898,7.0898,7.0898,7.0898,7.0898,7.0898,7.0898,7.0898,7.0898,7.1245,7.186,7.3053,7.3822,7.4437,0.0,0.0,0.0,0.0,0.0,0.0,0.0,0.0,1.5391,1.5391,0.0,0.0,0.0,0.0,1.5391,1.5391,1.5391,1.5391,1.5391,1.5391,1.5391,1.5391,1.5391,1.5391,1.5391,1.5391,1.5391,1.5391,1.7582,2.0837,2.5119,2.7713,2.9639,3.0789,2.9857,3.0536,3.2166,2.8549,2.6927,2.6508,2.2709,2.6398,3.5385,4.6482,5.0702,5.0702,5.0702,4.2008,2.9621,2.3928,2.2747,2.3303,2.1043,1.9888,1.9396,1.9088,2.1012,2.3783,2.6313,2.9698,3.3814,3.92,4.3085,4.6624,5.0625,5.2818,5.4318,5.5472,5.6379,5.7285,5.8132,5.8517,5.9172,6.055,6.0781,6.0781,6.0781,6.155,6.2373,0.0,0.0,0.0,0.0,0.0,0.0,0.0,0.0,0.0,6.7475,6.809,6.8936,7.0052,7.0629,7.0898,7.0898,7.0898,7.0898,7.0898,7.0898,7.0898,7.0898,7.0898,7.0898,7.0898,7.0898,7.0898,7.0898,7.0898,7.0898,7.0898,7.0898,7.1437,7.2322,7.3168,7.4014,7.4822,0.0,0.0,0.0,0.0,0.0,0.0,1.543,1.543,1.5468,1.5507,0.0,0.0,0.0,0.0,0.0,1.5625,1.5586,1.5508,1.543,1.5391,1.5391,1.5391,1.5391,1.5391,1.5391,1.5391,1.5391,1.5391,1.5391,1.8203,2.3644,2.495,2.734,3.0469,2.8125,2.9375,3.3203,3.2226,3.0937,2.9101,2.4869,2.8164,3.6674,4.6496,5.0317,5.0394,5.0279,5.0433,4.8202,3.1737,2.9763,3.2545,2.3312,2.035,2.0119,1.928,2.0196,2.1735,0.0,0.0,0.0,3.5815,3.7777,4.0508,5.0471,5.1587,5.1433,5.4895,5.6263,5.7187,5.8165,5.8989,5.9835,6.0666,6.0781,6.0781,6.0781,6.1555,6.2452,0.0,0.0,0.0,0.0,0.0,0.0,0.0,6.5897,6.6628,6.8321,6.8475,6.9206,7.086,7.0898,7.0898,7.0898,7.0898,7.0898,7.0898,7.0898,7.0898,7.0898,7.0898,7.0898,7.0898,7.0898,7.0898,7.0898,7.0898,7.0898,7.0898,7.0898,7.1437,7.2322,7.3206,7.4053,7.4861,0.0,0.0,0.0,0.0,0.0,1.6328,1.6328,1.633,1.676,0.0,0.0,0.0,1.7109,1.9414,2.082,2.043,1.9648,1.8359,1.6445,1.5742,1.5391,1.5391,1.5391,1.5391,1.5391,1.5391,1.5391,1.5391,1.5391,1.6833,1.9624,2.1195,2.3762,2.7148,2.8359,2.918,2.9531,2.6758,2.7031,2.914,2.7491,2.7493,2.9331,3.6853,4.12,4.3008,4.0585,4.4432,5.0394,4.8335,4.5278,3.9969,2.639,2.1273,2.0119,1.9273,2.0619,2.235,2.1966,0.0,0.0,0.0,0.0,0.0,4.1123,4.3778,4.6683,5.1872,5.364,5.5237,5.8566,5.9873,6.0512,6.0742,6.0781,6.0781,6.0781,6.2041,0.0,0.0,0.0,0.0,0.0,0.0,0.0,0.0,6.5897,6.6628,6.8321,6.9552,7.0437,7.0898,7.0898,7.0898,7.0898,7.0898,7.0898,7.0898,7.0898,7.0898,7.0898,7.0898,7.0898,7.0898,7.0898,7.0898,7.0898,7.0898,7.0898,7.0898,7.0898,7.1822,7.3168,7.3399,7.4399,7.5668,0.0,0.0,1.6035,1.6759,1.7903,1.8884,1.9222,1.9282,1.9529,0.0,0.0,0.0,1.9257,2.2227,2.3867,2.3086,2.1523,1.9648,1.7383,1.6523,1.5898,1.543,1.5391,1.5391,1.5391,1.5391,1.5391,1.5391,1.5391,1.5937,1.6953,1.8672,2.0937,2.3672,2.5898,2.7422,2.8086,2.457,2.5469,2.9336,3.0898,3.0039,2.8901,3.8284,4.3932,4.6617,4.4909,4.8127,5.3491,5.5656,4.9755,4.0015,3.1388,2.5794,2.1996,2.0111,2.185,2.412,2.2889,2.4812,2.7313,2.8005,0.0,0.0,3.9854,4.2431,4.5568,5.2564,5.4715,5.6198,5.8989,6.0204,6.0781,6.0781,6.0781,6.0781,6.0781,6.2243,0.0,0.0,0.0,0.0,0.0,6.5897,6.5897,6.5897,6.5897,6.6628,6.8321,6.9975,7.0898,7.0898,7.0898,7.0898,7.0898,7.0898,7.0898,7.0898,7.0898,7.0898,7.0898,7.0898,7.0898,7.0898,7.0898,7.0898,7.0898,7.0898,7.0898,7.0898,7.0898,7.1975,7.3514,7.3514,7.4553,7.6015,0.0,0.0,1.7227,1.9051,2.074,2.2183,2.3159,2.3242,2.3015,0.0,2.1727,2.1698,2.3083,2.4727,2.5469,2.4805,2.2578,2.0352,1.8437,1.7422,1.6445,1.543,1.5391,1.5586,1.5977,1.5977,1.5781,1.5391,1.5391,1.5391,1.543,1.6992,1.875,2.0664,2.2148,2.4453,2.6992,2.4453,2.5508,2.9141,3.2812,3.3828,3.4526,4.6694,5.3202,5.5879,5.6406,5.66,5.6518,5.5976,4.7523,3.7212,3.6858,3.2208,2.6092,2.2043,2.3928,2.689,2.5014,2.6246,2.839,2.989,3.0379,0.0,4.1854,4.3508,4.547,5.351,5.5835,5.6835,5.8011,5.8934,5.9511,5.9396,5.9858,6.0396,6.0742,0.0,0.0,0.0,0.0,0.0,6.5897,6.5897,6.5897,6.5897,6.6051,6.6821,6.8321,6.9975,7.0898,7.0898,7.0898,7.0898,7.0898,7.0898,7.0898,7.0898,7.0898,7.0898,7.0898,7.0898,7.0898,7.0898,7.0898,7.0898,7.0898,7.0898,7.0898,7.0898,7.0898,7.1975,7.3514,7.3514,7.4553,7.6015,1.6118,1.6888,1.8234,2.0611,2.245,2.4129,2.5716,2.5361,2.5582,2.7473,2.661,2.6629,2.8826,2.7031,2.6758,2.9336,2.6562,2.3398,2.0312,1.7344,1.5625,1.5391,1.5391,1.6719,1.9531,1.9609,1.8203,1.5391,1.5391,1.5391,1.5391,1.5742,1.7578,2.0625,2.0937,2.0703,2.0234,2.3711,2.5664,2.6211,2.4336,3.3164,4.8008,5.3383,5.5868,5.6458,5.656,5.6614,5.5993,5.2166,4.8825,4.5047,3.8141,3.6305,3.5109,2.6756,2.7813,3.1006,2.7967,2.7967,2.8929,2.9275,3.0429,0.0,3.3083,3.4814,3.7623,4.2667,4.4435,4.6127,4.9663,5.1029,5.1375,5.0702,5.4024,5.7651,6.0435,0.0,0.0,0.0,0.0,0.0,6.582,6.5897,6.5897,6.5897,6.7167,6.8052,6.8398,6.9975,7.0898,7.0898,7.0898,7.0898,7.0898,7.0898,7.0898,7.0898,7.0898,7.0898,7.0898,7.0898,7.0898,7.0898,7.0898,7.0898,7.0898,7.0898,7.0898,7.0898,7.0898,7.1975,7.3514,7.3514,7.4553,7.6015,1.6503,1.8157,2.0389,2.2966,2.5168,2.7308,2.9471,2.9433,2.9471,3.0369,3.0047,2.9988,3.0568,3.0678,3.0711,3.0742,2.924,2.6367,2.1758,1.8477,1.6328,1.543,1.707,1.9609,2.3086,2.1484,1.9727,1.8008,1.625,1.5391,1.543,1.7187,1.8945,2.0586,2.0586,1.9141,1.6992,2.1328,2.6133,3.0703,2.8984,3.8594,5.418,5.5937,5.6601,5.6601,5.6601,5.6614,5.6254,5.3859,5.0541,4.6631,4.2228,3.8902,3.5573,3.0094,3.0006,3.1198,2.9083,2.9429,3.039,3.039,3.1044,0.0,0.0,3.4853,3.6892,4.1992,4.2722,4.3607,4.7394,4.7778,4.7778,4.8623,5.2318,5.5253,5.5723,5.9427,0.0,0.0,0.0,0.0,6.582,6.5897,6.5897,6.5897,6.7436,6.8398,6.8398,6.9975,7.0898,7.0898,7.0898,7.0898,7.0898,7.0898,7.0898,7.0898,7.0898,7.0898,7.0898,7.0898,7.0898,7.0898,7.0898,7.0898,7.0898,7.0898,7.0898,7.0937,7.136,7.236,7.3553,7.3976,7.4899,7.6015,1.6657,1.9081,2.2081,2.462,2.7428,3.0083,3.2314,3.2814,3.2699,3.2071,3.2609,3.2622,3.1703,3.4086,3.4378,3.0975,3.0186,2.8086,2.375,2.0352,1.7578,1.5508,1.8086,2.1211,2.4648,2.2656,2.125,2.0586,1.7109,1.5391,1.5469,1.8281,1.9609,1.9805,2.4453,2.3125,1.7578,2.0391,2.6016,3.3203,3.5195,4.4258,5.6601,5.6601,5.6601,5.6601,5.6601,5.6601,5.6601,5.6601,5.2797,4.7788,4.6416,4.2189,3.7046,3.3468,3.2852,3.2929,3.1083,3.1698,3.2814,3.2314,3.2545,3.3545,0.0,0.0,0.0,4.2008,4.197,4.197,4.4662,4.4355,0.0,0.0,0.0,0.0,0.0,5.5138,0.0,0.0,0.0,0.0,0.0,6.4768,6.4999,6.582,6.6705,6.7552,6.8359,6.9975,7.0898,7.0898,7.0898,7.0898,7.0898,7.0898,7.0898,7.0898,7.0898,7.0898,7.0898,7.0898,7.0898,7.0898,7.0898,7.0898,7.0898,7.0898,7.0898,7.0975,7.186,7.2745,7.3591,7.4399,7.5245,7.6015,1.6657,1.8619,2.1235,2.3783,2.7582,3.0621,3.166,3.2429,3.2852,3.2776,3.4147,3.5148,3.5127,3.5619,3.4603,3.1166,2.8046,2.668,2.7578,2.3047,1.8828,1.5547,1.5781,1.7617,2.1094,2.3789,2.3633,2.0586,1.7109,1.5391,1.5391,1.582,1.5977,1.6914,3.8359,3.9219,2.457,2.4961,2.4062,2.3164,3.2305,4.4258,5.6601,5.6601,5.6601,5.6601,5.6601,5.6601,5.6601,0.0,5.6054,5.4284,4.7932,4.8711,4.9759,3.8392,3.9238,4.2701,3.7315,3.6546,3.6738,3.4468,3.5622,3.6238,3.2199,0.0,3.4237,3.3468,0.0,3.416,3.4545,0.0,0.0,0.0,0.0,0.0,4.3059,4.7444,5.172,5.4066,0.0,0.0,0.0,0.0,6.1781,6.559,6.3974,6.4436,6.8205,6.9975,7.0898,7.0898,7.0898,7.0898,7.0898,7.0898,7.0898,7.0898,7.0898,7.0898,7.0898,7.0898,7.0898,7.0898,7.0898,7.0898,7.0898,7.0898,7.0898,7.0975,7.186,7.2745,7.3591,7.4399,7.5245,7.6015,1.6465,1.9311,2.1927,2.2504,2.612,2.9198,2.9852,3.1621,3.3276,3.4276,3.5045,3.5522,3.5577,3.9159,4.0985,3.9529,3.8073,3.7569,3.8277,2.7211,1.9961,1.8477,1.6484,1.7031,2.0508,2.1992,2.1055,1.7578,1.6133,1.5391,1.5391,1.5391,1.5391,1.6016,3.0195,3.8008,4.0234,3.4219,2.8555,2.5,4.1367,5.1445,5.5742,4.7695,4.9609,5.6601,5.6601,5.6601,5.6601,0.0,5.5195,0.0,4.8747,4.6937,4.5911,4.3932,4.3008,4.1662,3.7199,3.77,3.8738,3.5699,3.6507,3.693,3.2776,3.1929,3.1929,3.1737,0.0,0.0,0.0,0.0,0.0,0.0,3.9153,0.0,0.0,0.0,4.9604,0.0,0.0,0.0,0.0,0.0,0.0,0.0,0.0,6.3924,6.8179,7.0014,7.0898,7.0898,7.0898,7.0898,7.0898,7.0898,7.0898,7.0898,7.0898,7.0898,7.0898,7.0898,7.0898,7.0898,7.0898,7.0898,7.0898,7.0898,7.0898,7.0975,7.186,7.2745,7.3591,7.4399,7.5245,7.6015,1.6657,1.9504,2.162,2.1235,2.4774,2.8313,3.0263,3.1891,3.3545,3.5276,3.5493,3.5493,3.5493,4.07,4.4201,4.4201,4.5047,4.6009,4.6932,3.2195,2.3008,2.2031,2.0508,2.0391,2.1953,2.1094,1.8906,1.5391,1.5391,1.5391,1.5391,1.5391,1.5898,1.7148,2.4023,3.6719,5.2344,4.4844,3.6562,2.9766,4.3867,5.2383,5.5508,4.5469,4.7851,5.6601,5.6601,5.6601,5.6601,5.6601,5.4844,0.0,4.7873,4.5809,4.5324,4.7444,4.6009,4.2893,3.8969,4.0046,4.1162,3.6622,3.6584,3.6699,3.3045,3.1814,3.1506,3.166,3.1237,0.0,0.0,0.0,3.3276,3.4891,0.0,3.9969,0.0,4.1732,4.5932,0.0,0.0,0.0,0.0,0.0,0.0,0.0,0.0,0.0,6.8102,6.9756,7.0667,7.0898,7.0898,7.0898,7.0898,7.0898,7.0898,7.0898,7.0898,7.0898,7.0898,7.0898,7.0898,7.0898,7.0898,7.0898,7.0898,7.0898,7.0898,7.0975,7.1591,7.2514,7.3591,7.4399,7.5245,7.6015,1.7503,1.8434,1.9396,2.0196,2.4034,2.8879,3.4416,3.393,3.3545,3.5276,3.5493,3.5493,3.5493,3.8584,4.0662,4.0662,4.3701,4.7009,5.0317,3.798,2.9062,2.5664,2.8672,2.8867,2.5625,2.2305,1.8906,1.5391,1.5391,1.5391,1.5391,1.5391,1.7187,2.0742,2.7656,4.0312,5.6406,5.6094,4.8086,3.543,3.2773,4.1719,5.6562,0.0,5.6211,5.6601,5.6601,0.0,0.0,5.6601,5.6523,0.0,0.0,0.0,0.0,4.7763,4.8702,5.0856,4.547,0.0,4.4893,3.7392,3.6122,3.5661,3.1417,3.2352,3.3622,3.2045,3.3622,3.5045,3.4314,3.4814,3.5122,3.4353,3.643,0.0,0.0,3.6454,3.8007,4.0569,0.0,0.0,0.0,0.0,0.0,0.0,0.0,0.0,6.791,6.9256,7.0102,7.0898,7.0898,7.0898,7.0898,7.0898,7.0898,7.0898,7.0898,7.0898,7.0898,7.0898,7.0898,7.0898,7.0898,7.0898,7.0898,7.0898,7.0898,7.0898,7.0937,7.1975,7.3591,7.4399,7.5245,7.6015,1.8511,1.9273,1.9465,1.8273,2.1765,2.5649,2.8341,3.2083,3.4853,3.543,3.5493,3.5493,3.5493,4.0508,4.4778,4.7048,4.8317,4.9471,5.0625,4.6499,3.9464,2.9264,3.8573,3.9324,2.9375,2.5742,2.2305,1.8828,1.8828,1.8828,1.8945,2.3516,2.5078,2.4062,2.6406,3.4531,4.6875,5.3711,5.3906,4.9531,4.8359,5.1406,5.6601,0.0,0.0,5.6601,5.6601,5.6601,0.0,5.6601,5.6601,5.5976,5.25,5.3789,5.6092,5.3626,5.4634,0.0,0.0,0.0,5.0216,4.2447,0.0,0.0,3.3545,3.316,3.3699,3.2045,3.3737,3.5238,3.4353,3.493,3.5391,3.5122,3.6238,3.6776,0.0,3.6185,0.0,0.0,0.0,0.0,0.0,0.0,0.0,0.0,0.0,0.0,0.0,6.9552,7.0063,7.086,7.0898,7.0898,7.0898,7.0898,7.0898,7.0898,7.0898,7.0898,7.0898,7.0898,7.0898,7.0898,7.0898,7.0898,7.0898,7.0898,7.0898,7.0975,7.1552,7.2476,7.3553,7.3822,7.4784,7.6015,2.0358,2.0658,2.0427,1.8965,2.2765,2.6687,2.861,3.2648,3.5493,3.5493,3.8661,4.0931,4.0931,4.4778,4.8279,5.051,5.0702,5.0702,5.0702,5.0702,4.5163,3.2763,4.4085,4.4993,3.2805,2.9248,2.6484,2.4258,2.3008,2.2422,2.25,2.6953,2.7851,2.5742,2.6992,3.1953,4.0117,5.168,5.6601,5.6601,5.6601,5.6601,0.0,0.0,5.5508,5.6601,0.0,5.6601,5.6601,5.6601,5.6601,5.6601,5.6601,5.6601,5.6836,5.8047,5.9066,5.9216,5.672,5.6443,0.0,4.6991,4.532,0.0,3.6776,0.0,3.6892,3.5161,3.5661,3.7046,3.92,3.7584,3.643,3.7969,3.7353,3.643,0.0,3.5968,0.0,0.0,0.0,0.0,0.0,0.0,0.0,0.0,0.0,0.0,0.0,0.0,7.0063,7.086,7.0898,7.0898,7.0898,7.0898,7.0898,7.0898,7.0898,7.0898,7.0898,7.0898,7.0898,7.0898,7.0898,7.0898,7.0898,7.0898,7.1091,7.1398,7.1975,7.2899,7.3937,7.3937,7.4822,7.6015,2.2851,2.2504,2.2235,2.2389,2.6841,3.1532,3.4955,3.5493,3.5699,3.6199,4.4701,5.0702,5.0702,5.0702,5.0702,5.0702,5.0702,5.0702,5.0702,5.024,4.5855,3.6661,4.5509,4.624,3.6699,3.3613,3.1794,3.1131,2.7656,2.5859,2.5703,2.5898,2.5859,2.5859,2.9336,3.2812,3.6914,5.0742,5.6601,5.6601,5.6601,5.6601,5.625,5.293,5.3828,5.6836,5.664,5.6601,5.6601,5.6601,5.6719,5.6836,5.6836,5.6836,5.75,6.0742,6.1719,6.1402,6.0153,6.0289,5.8941,5.1003,0.0,0.0,0.0,0.0,4.2931,4.1162,3.9662,4.0777,4.7817,4.247,3.8277,4.2162,3.9315,3.6392,3.5622,3.5493,3.5853,0.0,0.0,0.0,0.0,0.0,0.0,0.0,0.0,0.0,0.0,0.0,6.9833,7.0937,7.0937,7.0898,7.0898,7.0898,7.0898,7.0898,7.0898,7.0898,7.0898,7.0898,7.0898,7.0898,7.0898,7.0898,7.0898,7.0898,7.1398,7.2206,7.2245,7.3283,7.4784,7.4784,7.5284,7.6015,2.3898,2.4159,2.5264,2.7802,2.9417,3.1532,3.4955,3.5493,3.8238,4.5817,4.9086,5.0702,5.0702,5.0702,5.0702,5.0702,5.0702,5.0702,5.0702,4.3624,4.1623,4.6586,4.9279,5.0625,5.051,4.9732,4.438,3.4332,3.1133,2.8242,2.5742,2.8359,2.8164,2.5859,2.9336,3.2812,3.6914,5.0742,5.6601,5.6601,5.6601,5.6601,5.6484,0.0,5.7383,6.0078,5.75,5.6601,5.6601,5.6601,5.8281,6.039,6.039,6.039,6.0547,6.1445,6.1719,6.1601,6.128,6.1334,6.0846,5.8278,5.7566,5.6242,0.0,0.0,0.0,0.0,0.0,0.0,0.0,0.0,0.0,3.87,3.693,3.5738,3.5532,0.0,0.0,3.8392,0.0,0.0,0.0,0.0,0.0,0.0,0.0,0.0,0.0,0.0,0.0,7.1695,7.1245,7.0898,7.0898,7.0898,7.0898,7.0898,7.0898,7.0898,7.0898,7.0898,7.0898,7.0898,7.0898,7.0898,7.0898,7.0898,7.1398,7.2245,7.2899,7.4207,7.5668,7.5668,7.5822,7.6015,2.47,2.4907,2.6841,3.1763,3.4468,3.6007,3.6199,3.5801,3.9161,4.9356,5.0702,5.0702,5.0702,5.0702,5.0702,5.0702,5.0702,5.0702,5.0702,4.6701,4.6894,5.2626,5.2895,5.378,5.5665,5.5703,4.9086,3.5493,3.3757,3.1235,2.7969,2.8437,2.8398,2.8008,2.8437,3.1367,3.6914,5.0742,5.6601,5.6601,5.6601,5.6601,0.0,5.6601,5.8711,6.1445,5.9531,5.8828,5.8828,5.8828,6.0117,6.1719,6.1719,6.1719,6.1719,6.1719,6.1719,6.1719,6.1719,6.1719,6.1633,6.1284,6.0982,6.0127,5.755,5.4203,5.1471,0.0,0.0,0.0,0.0,0.0,0.0,3.6315,3.5545,3.5493,0.0,0.0,0.0,0.0,4.0392,0.0,0.0,0.0,0.0,0.0,0.0,0.0,0.0,0.0,0.0,7.2003,7.0656,7.0167,7.0898,7.0167,7.0167,7.0898,7.0898,7.0898,7.0898,7.0898,7.0898,7.0898,7.0898,7.0898,7.0898,7.0898,7.1629,7.2899,7.413,7.5168,7.6015,7.6015,7.6015,7.6015,2.5285,2.5505,2.811,3.4968,3.9469,4.1162,3.8392,3.693,0.0,4.7625,0.0,4.9202,5.0548,5.1087,5.1356,5.1356,5.1356,5.1356,5.1356,5.4087,5.5703,5.5703,5.5703,5.5703,5.5703,5.5703,4.9933,3.8161,3.6392,3.3664,3.0111,2.7109,2.7305,3.0078,2.7031,2.9531,3.6836,4.9297,5.5351,5.6601,5.6601,5.6601,5.664,5.7109,5.9101,6.1719,6.1719,6.1719,6.1719,6.1719,6.1719,6.1719,6.1719,6.1719,6.1719,6.1719,6.1719,6.1719,6.1719,6.1719,6.1719,6.1719,6.1305,6.0902,6.0827,5.8088,5.578,5.6494,5.3164,5.2702,0.0,0.0,0.0,3.5944,0.0,0.0,0.0,0.0,0.0,0.0,0.0,0.0,0.0,0.0,0.0,0.0,0.0,0.0,0.0,0.0,0.0,7.2003,6.9925,0.0,7.0579,0.0,6.936,7.0591,7.0783,7.0898,7.0898,7.0898,7.0898,7.0898,7.0898,7.0898,7.0898,7.1014,7.2091,7.3822,7.5399,7.6015,7.6015,7.6015,7.6015,7.6015,2.5527,2.755,3.166,3.843,3.8084,3.8007,4.1546,4.0662,3.9277,3.8277,3.8161,4.1354,4.9779,5.3164,5.4818,5.4818,5.4818,0.0,0.0,0.0,0.0,5.5703,5.5703,5.5703,5.5703,5.5703,5.4549,0.0,4.0969,3.2324,2.6273,2.5871,2.6016,2.6562,2.5977,2.9531,3.6367,4.1641,0.0,5.6601,5.6601,5.6601,5.6914,5.9726,6.1172,6.1719,6.1719,6.1719,6.1719,6.1719,6.1719,6.1719,6.1719,6.1719,6.1719,6.1719,6.1719,6.1719,6.1719,6.1719,6.1719,6.1719,6.1633,6.1424,6.0923,6.1074,6.1366,6.152,6.1266,6.055,5.8827,0.0,0.0,0.0,0.0,0.0,0.0,0.0,0.0,0.0,0.0,0.0,0.0,0.0,0.0,0.0,0.0,0.0,0.0,0.0,6.1144,0.0,7.1079,0.0,0.0,0.0,6.9937,6.8859,7.0244,7.0898,7.0898,7.0898,7.0898,7.0898,7.0898,7.0898,7.0975,7.1668,7.2976,7.4591,7.5592,7.6015,7.6015,7.6015,7.6015,7.6015,2.7647,3.0686,3.4083,3.7353,3.6584,3.8123,0.0,4.6317,4.5201,4.3585,4.3393,4.5893,5.2549,5.4741,5.5703,5.5703,5.5703,5.5703,5.5703,5.5703,5.5703,5.5703,5.5703,5.5703,5.5703,5.5703,5.5703,5.5703,0.0,2.8533,2.5313,2.5447,2.5479,2.5955,3.6868,3.9609,3.6562,0.0,0.0,5.6758,5.8515,5.8164,5.6953,6.039,6.1719,6.1719,6.1719,6.1719,6.1719,6.1719,6.1719,6.1719,6.1719,6.1719,6.1719,6.1719,6.1719,6.1719,6.1719,6.1719,6.1719,6.1719,6.1719,6.2102,6.3604,6.392,6.3878,6.3878,6.3821,6.2352,5.7693,5.395,0.0,0.0,0.0,0.0,0.0,0.0,4.7778,0.0,0.0,0.0,0.0,0.0,0.0,0.0,0.0,0.0,0.0,0.0,6.037,0.0,0.0,0.0,0.0,0.0,0.0,6.9706,7.0514,7.0898,7.0898,7.0898,7.0898,7.0898,7.0898,7.0898,7.1014,7.2322,7.3591,7.4784,7.5668,7.6015,7.6015,7.6015,7.6015,7.6015,3.1837,3.4504,3.5942,3.5234,3.7432,4.1965,4.9983,5.1228,5.1362,5.1721,5.1741,5.2779,5.5395,5.5703,5.5703,5.5703,5.5703,5.5703,5.5703,5.5703,5.5703,5.5703,5.5703,5.5703,5.5703,5.5703,5.5703,0.0,0.0,2.6726,2.5313,2.5374,2.7745,3.2555,4.6158,0.0,0.0,0.0,5.7031,5.793,6.0625,6.0078,5.7969,6.0664,6.1719,6.1719,6.1719,6.1719,6.1719,6.1719,6.1719,6.1719,6.1719,6.2226,6.2812,6.2812,6.2539,6.2344,6.2695,6.2812,6.2812,6.2812,6.2812,6.3515,6.6289,6.6097,6.5328,6.5328,6.4861,6.2825,5.7537,5.5812,0.0,0.0,0.0,0.0,0.0,0.0,0.0,0.0,0.0,0.0,0.0,0.0,0.0,0.0,0.0,0.0,6.19,0.0,0.0,0.0,0.0,6.8317,6.9267,0.0,6.9438,0.0,7.0744,7.0898,7.0898,7.0898,7.0898,7.0898,7.0898,7.1129,7.1591,7.3129,7.4245,7.5053,7.5745,7.6015,7.6015,7.6015,7.6015,7.6015,3.927,3.8939,3.746,3.4471,4.3738,5.1848,5.281,5.2998,5.3493,5.5032,5.5241,5.5357,5.5665,5.5703,5.5703,5.5703,5.5703,5.5703,5.5703,5.5703,5.5703,5.5703,5.5703,5.5703,5.5703,5.5703,5.5703,0.0,0.0,3.1379,2.5313,2.557,3.5662,0.0,0.0,0.0,0.0,5.6055,5.8398,6.125,6.1562,6.1523,6.125,6.1562,6.1719,6.1719,6.1719,6.1719,6.1719,6.1719,6.1719,6.1719,6.1719,6.3867,6.6406,6.6406,6.5273,6.4414,6.5976,6.6406,6.6406,6.6406,6.6406,6.6484,6.6836,6.6796,6.6717,6.6717,6.6678,6.4763,5.8748,6.1736,6.2185,0.0,0.0,0.0,0.0,0.0,5.5011,5.7319,0.0,0.0,0.0,0.0,0.0,0.0,4.8567,0.0,0.0,0.0,0.0,6.6304,6.6266,6.5471,6.4036,6.846,0.0,6.8667,7.0167,7.0898,7.0898,7.0898,7.0898,7.0898,7.0898,7.1783,7.3322,7.4207,7.5091,7.5899,7.5976,7.6015,7.6015,7.6015,7.6015,7.6015,3.9327,4.3743,0.0,0.0,0.0,0.0,0.0,5.4693,5.496,5.5599,5.5703,5.5703,5.5703,5.5703,5.5703,5.5703,5.5703,5.5703,5.5703,5.5703,5.5703,5.5703,5.5703,5.5703,5.5703,5.5703,5.5703,0.0,0.0,0.0,3.1314,2.7342,0.0,0.0,0.0,5.2578,5.9531,5.7461,5.8555,6.1719,6.1719,6.1719,6.1719,6.1719,6.1719,6.1758,6.2305,6.2461,6.2578,6.3086,6.2578,6.1719,6.1719,6.4101,6.6914,6.6914,6.5664,6.4531,6.5586,6.6367,6.6914,6.6914,6.6914,6.6914,6.6914,6.6914,6.6914,6.6914,6.6914,6.6133,6.3711,6.2996,6.2297,0.0,0.0,0.0,0.0,0.0,0.0,6.2743,0.0,5.9011,0.0,0.0,0.0,0.0,0.0,0.0,0.0,0.0,0.0,6.1912,0.0,6.7817,6.5624,6.9113,7.0552,6.9898,7.0591,7.0898,7.0898,7.0898,7.0898,7.0937,7.1437,7.236,7.3553,7.4361,7.5207,7.6015,7.6015,7.6015,7.6015,7.6015,7.6015,7.6015,4.2983,0.0,5.3225,0.0,5.3225,5.3565,5.4781,5.4988,5.5122,5.5621,5.5703,5.5703,5.5703,5.5703,5.5703,5.5703,5.5703,5.5703,5.5703,5.5703,5.5703,5.5703,5.5703,0.0,5.5703,5.5703,5.5703,5.5703,5.5703,0.0,0.0,3.4622,0.0,0.0,5.3039,5.8992,6.0859,5.8906,5.9492,6.1719,6.1719,6.1719,6.1719,6.1719,6.2031,6.2539,6.2969,6.3242,6.3476,6.4101,6.3594,6.2695,6.2539,6.4492,6.6914,6.6914,6.6015,6.5156,6.5586,6.6289,6.6914,6.6914,6.6914,6.6914,6.6914,6.6914,6.6914,6.6914,6.6914,6.6914,6.6914,6.4297,6.2787,6.4676,0.0,0.0,0.0,6.4436,0.0,6.4051,6.2243,6.0973,6.0819,0.0,0.0,0.0,0.0,0.0,0.0,0.0,0.0,0.0,0.0,0.0,0.0,6.9498,7.0898,7.0898,7.0898,7.0898,7.0898,7.0898,7.0898,7.0975,7.2091,7.2937,7.3591,7.463,7.5438,7.6015,7.6015,7.6015,7.6015,7.6015,7.6015,7.6015,5.3041,5.3115,5.3225,5.3225,5.3225,5.3225,5.323,5.323,5.3833,5.547,5.5703,5.5703,5.5703,5.5703,5.5703,5.5703,5.5703,5.5703,5.5703,5.5703,5.5703,0.0,0.0,5.5703,5.5703,5.5703,5.5703,5.5703,0.0,0.0,3.5815,4.9125,5.5357,5.5609,5.9188,6.0187,5.9336,6.0937,6.164,6.1719,6.1719,6.1719,6.1719,6.1719,6.2773,6.418,6.3594,6.3789,6.4297,6.4297,6.4687,6.5039,6.4453,6.5469,6.6914,6.6914,6.6875,6.6875,6.6875,6.6875,6.6914,6.6914,6.6914,6.6914,6.6914,6.6914,6.6914,6.6914,6.6914,6.6914,6.6914,6.668,6.5469,6.2187,0.0,0.0,0.0,6.0958,0.0,5.9665,5.3664,5.2549,6.005,0.0,0.0,0.0,0.0,0.0,0.0,0.0,0.0,6.569,6.589,0.0,6.5893,6.9229,7.0898,7.0898,7.0898,7.0898,7.0898,7.0898,7.0898,7.1014,7.2745,7.3514,7.363,7.5284,7.5976,7.6015,7.6015,7.6015,7.6015,7.6015,7.6015,7.6015,5.3225,5.3225,5.3225,5.3225,5.3225,5.3225,5.3225,5.3225,5.34,5.3943,5.3977,5.3977,5.3977,5.5015,5.5703,0.0,5.5703,5.5703,0.0,5.5703,5.5703,5.5703,5.5703,5.5703,5.5703,5.5703,5.5703,5.5703,0.0,0.0,0.0,5.6049,5.9165,5.9204,6.0319,6.0594,6.0336,6.1291,6.1719,6.1719,6.1719,6.1719,6.1719,6.1719,6.2031,6.2695,6.4101,6.4765,6.5039,6.582,6.6211,6.6328,6.6133,6.6445,6.6914,6.6914,6.6914,6.6914,6.6914,6.6914,6.6914,6.6914,6.6914,6.6914,6.6914,6.6914,6.6914,6.6914,6.6914,6.6914,6.6914,6.6836,6.6406,6.5195,6.5829,0.0,6.4656,0.0,6.5166,6.4743,6.332,6.3551,0.0,6.0742,0.0,0.0,0.0,0.0,0.0,0.0,0.0,0.0,6.6602,0.0,6.6726,6.9498,7.0898,7.0898,7.0898,7.0898,7.0898,7.0898,7.1206,7.186,7.3014,7.3822,7.4399,7.5515,7.6015,7.6015,7.6015,7.6015,7.6015,7.6015,7.6015,7.6015,5.3225,5.3225,5.3225,5.3225,5.3225,5.3225,5.3225,5.3225,5.3225,5.3225,5.3225,5.3225,5.3225,5.4153,0.0,5.566,5.5703,5.5703,5.5703,5.5703,5.5703,5.5703,5.5703,5.5703,5.5703,0.0,0.0,5.5703,5.5703,5.6357,5.7665,5.9781,6.0781,6.0781,6.0781,6.0781,6.0827,6.1201,6.1476,6.1719,6.1719,6.1719,6.1836,6.3164,6.3633,6.3828,6.5312,6.5859,6.5937,6.664,6.6914,6.6914,6.6914,6.6914,6.6914,6.6914,6.6914,6.6914,6.6914,6.6914,6.6914,6.6914,6.6914,6.6914,6.6914,6.6914,6.6914,6.6914,6.6914,6.6914,6.6914,6.7187,6.7344,6.7226,6.7422,6.7516,6.7291,0.0,6.7244,0.0,0.0,0.0,0.0,6.4205,0.0,0.0,0.0,0.0,0.0,0.0,0.0,6.3702,6.8394,0.0,6.8548,7.0102,7.0898,7.0898,7.0898,7.0898,7.0898,7.0898,7.1398,7.2245,7.3129,7.3976,7.4784,7.563,7.6015,7.6015,7.6015,7.6015,7.6015,7.6015,7.6015,7.6015,5.3225,5.3225,5.3225,0.0,5.3225,0.0,5.3225,5.3225,5.3225,5.3225,5.3225,5.3225,5.3225,5.3314,5.3977,5.5577,0.0,0.0,0.0,5.5703,5.5703,5.5703,5.5703,5.5703,5.5703,5.5703,5.5818,5.6049,5.6049,5.7665,6.0781,6.0781,6.0781,6.0781,6.0781,6.0781,6.0781,6.0781,6.1182,6.1791,6.1794,6.1913,6.2422,6.5664,6.6914,6.6914,6.6914,6.6914,6.6914,6.6914,6.6914,6.6914,6.6914,6.6914,6.6914,6.6914,6.6914,6.6914,6.6914,6.6914,6.6914,6.6914,6.6914,6.6914,6.6914,6.6914,6.6914,6.6992,6.6992,6.6992,6.707,6.7734,6.8281,6.8281,6.8828,6.9219,6.9219,6.8967,6.732,0.0,0.0,0.0,0.0,6.4551,6.6513,0.0,0.0,0.0,0.0,0.0,6.254,7.0629,7.0898,7.0898,7.0898,7.0898,7.0898,7.0898,7.0898,7.0898,7.0898,7.0898,7.1398,7.236,7.3168,7.4014,7.4861,7.5668,7.6015,7.6015,7.6015,7.6015,7.6015,7.6015,7.6015,7.6015,0.0,0.0,5.3225,5.3225,5.3225,5.3225,5.3225,5.3225,5.3225,5.3225,5.3225,5.3225,5.3225,5.4317,5.5262,5.5682,5.5703,5.5703,5.5703,5.5703,5.5703,5.5703,5.5703,5.5703,5.5703,5.5703,5.6973,5.9588,5.9588,6.0012,6.0781,6.0781,6.0781,6.0781,6.0781,6.0781,6.0781,6.0781,6.1632,6.2895,6.2807,6.3929,6.5742,6.6601,6.6914,6.6914,6.6914,6.6914,6.6914,6.6914,6.6914,6.6914,6.6914,6.6914,6.6914,6.6914,6.6914,6.6914,6.6914,6.6914,6.6914,6.6914,6.6914,6.6914,6.6914,6.6914,6.7109,6.7773,6.789,6.8086,6.8672,6.9023,6.918,6.9101,6.9258,6.9336,6.9219,6.9706,6.9574,0.0,6.8859,6.9283,6.9129,6.9283,6.8205,0.0,0.0,0.0,0.0,6.4474,6.6205,7.0744,7.0898,7.0898,7.0898,7.0898,7.0898,7.0898,7.0898,7.0898,7.0898,7.0898,7.1745,7.3196,7.3399,7.4322,7.5707,7.5899,7.6015,7.6015,7.6015,7.6015,7.6015,7.6015,7.6015,7.6015,5.3225,5.3225,5.3225,5.3225,5.3225,5.3225,5.3225,5.3225,5.3225,5.3225,5.3225,5.3225,5.3225,5.4013,5.4876,5.5621,5.5703,5.5703,5.5703,5.5703,5.5703,5.5703,5.5703,5.5703,5.5703,5.7242,5.8934,6.0781,6.0781,6.0781,6.0781,6.0781,6.0781,6.0781,6.0781,6.0781,6.0781,6.0781,6.1627,6.2959,6.3284,6.4435,6.6029,6.6667,6.6914,6.6914,6.6914,6.6914,6.6914,6.6914,6.6914,6.6914,6.6914,6.6914,6.6914,6.6914,6.6914,6.6914,6.6914,6.6914,6.6992,6.7383,6.7773,6.8047,6.8086,6.8086,6.8203,6.8711,6.8789,6.8867,6.9336,6.9765,7.0039,7.0,7.0312,7.0547,7.0508,7.082,0.0,7.068,7.099,7.1129,7.0937,7.0898,6.9744,6.6974,0.0,0.0,6.6821,6.7667,6.9013,7.0821,7.0898,7.0898,7.0898,7.0898,7.0898,7.0898,7.0898,7.0898,7.0898,7.1283,7.2234,7.3532,7.3889,7.4784,7.6015,7.6015,7.6015,7.6015,7.6015,7.6015,7.6015,7.6015,7.6015,7.6015,5.3225,5.3225,5.3225,5.3225,5.3225,5.3225,5.3225,5.3225,5.3225,5.3225,5.3225,5.3225,5.3225,5.3225,5.3758,5.5212,5.5312,5.5423,5.5703,5.5703,5.5934,5.6434,5.6472,5.6472,5.6472,5.9319,6.0781,6.0781,6.0781,6.0781,6.0781,6.0781,6.0781,6.0781,6.0781,6.0781,6.0781,6.0781,6.1666,6.3065,6.3638,6.4316,6.5126,6.6354,6.6833,6.6836,6.6875,6.6914,6.6914,6.6914,6.6914,6.6914,6.6914,6.6914,6.6914,6.707,6.7109,6.7109,6.7109,6.7187,6.7461,6.8203,6.8906,6.9414,6.9453,6.9492,6.9531,6.9648,6.9648,6.9648,6.9765,7.039,7.0742,7.0195,7.1172,7.1836,7.1289,0.0,7.1705,7.1555,7.1394,7.1168,7.0975,7.0937,7.0937,7.0898,7.0898,7.0898,0.0,7.0898,7.0898,7.0898,7.0898,7.0898,7.0898,7.0898,7.0898,7.0898,7.0898,7.0898,7.0937,7.1811,7.2685,7.3532,7.435,7.5168,7.6015,7.6015,7.6015,7.6015,7.6015,7.6015,7.6015,7.6015,7.6015,7.6015,5.3225,5.3225,5.3225,5.3225,5.3225,5.3225,5.3225,5.3225,5.3225,5.3225,5.3225,5.3225,5.3225,5.3225,5.3314,5.3563,5.3565,5.4221,5.5599,5.5703,5.6973,5.9858,6.0012,6.0012,6.0012,6.0512,6.0781,6.0781,6.0781,6.0781,6.0781,6.0781,6.0781,6.0781,6.0781,6.0781,6.0781,6.0781,6.2551,6.5282,6.4474,6.49,6.6027,6.6348,6.6499,6.6601,6.6836,6.6914,6.6914,6.6914,6.6914,6.6914,6.6914,6.6914,6.7031,6.7773,6.8008,6.8008,6.8008,6.8476,6.9062,6.9258,6.9375,6.9453,6.9414,6.9414,6.9609,7.0351,7.0508,7.0703,7.1445,7.1719,7.0859,6.7969,7.0039,7.0976,6.8086,0.0,7.1874,7.1673,7.1642,7.1503,7.1168,7.1129,7.1091,7.0898,7.0898,7.0898,7.0898,7.0898,7.0898,7.0898,7.0898,7.0898,7.0898,7.0898,7.0898,7.0898,7.0898,7.0898,7.0937,7.1811,7.2668,7.3534,7.4361,7.5197,7.6015,7.6015,7.6015,7.6015,7.6015,7.6015,7.6015,7.6015,7.6015,7.6015,5.3225,5.3225,5.3225,5.3225,5.3225,5.3225,5.3225,5.3225,5.3225,5.3225,5.3225,5.3225,5.3225,5.3225,5.3225,5.3225,5.4803,5.6113,5.6882,5.7886,5.9165,6.0742,6.0781,6.0781,6.0781,6.0781,6.0781,6.0781,6.0781,6.0781,6.0781,6.0781,6.0781,6.0781,6.0781,6.0781,6.0935,6.2781,6.4474,6.5859,6.5436,6.5635,6.6162,6.6322,6.6474,6.6562,6.668,6.6797,6.6914,6.6914,6.6914,6.6914,6.6914,6.6914,6.707,6.793,6.8515,6.8906,6.8867,6.9453,7.0117,7.0156,7.0508,7.0859,7.082,7.0781,7.0898,7.1328,7.1406,7.1523,7.1914,7.1992,7.1484,6.9883,7.0976,0.0,6.9883,7.1015,7.1914,7.1719,7.1714,7.1583,7.1214,7.121,7.1129,7.0937,7.0898,7.0898,7.0898,7.0898,7.0898,7.0898,7.0898,7.0898,7.0898,7.0898,7.0898,7.0898,7.0898,7.1129,7.1618,7.2492,7.3388,7.4187,7.5053,7.563,7.6015,7.6015,7.6015,7.6015,7.6015,7.6015,7.6015,7.6015,7.6015,7.5899,5.3225,5.3225,5.3225,5.3225,5.3225,5.3225,5.3225,5.3225,5.3225,5.3225,5.3225,5.3225,5.3225,5.3225,5.3518,5.4252,5.6565,5.7997,5.7997,5.9354,6.0338,6.0781,6.0781,6.0781,6.0781,6.0781,6.0781,6.0781,6.0781,6.0781,6.0781,6.0781,6.0781,6.0781,6.0781,6.1243,6.2166,6.4782,6.5897,6.5897,6.6051,6.609,6.6051,6.6269,6.6411,6.6478,6.656,6.6719,6.6836,6.6875,6.6914,6.6914,6.6914,6.6914,6.7109,6.8164,6.9258,7.0,6.9687,7.0273,7.1015,7.1015,7.1523,7.1992,7.1992,7.1992,7.1992,7.1992,7.1992,7.1992,7.1992,7.1992,7.1758,7.0937,0.0,7.1719,7.0937,7.1484,7.1953,7.1797,7.1758,7.1659,7.1355,7.133,7.1206,7.0975,7.0975,7.0937,7.0898,7.0898,7.0898,7.0898,7.0898,7.0898,7.0898,7.0898,7.0898,7.0898,7.1091,7.1541,7.2234,7.3301,7.412,7.4755,7.563,7.6015,7.6015,7.6015,7.6015,7.6015,7.6015,7.6015,7.5938,7.5553,7.5668,7.5784,5.3225,5.3225,5.3225,5.3225,5.3225,5.3225,5.3225,5.3225,5.3225,5.3225,5.3225,5.3225,5.3225,5.3225,5.4399,5.7373,5.785,5.7997,5.7997,5.8142,5.899,6.0734,6.0781,6.0781,6.0781,6.0781,6.0781,6.0781,6.0781,6.0781,6.0781,6.0781,6.0781,6.0781,6.0781,6.2551,6.5551,6.5782,6.5897,6.5897,6.5897,6.5897,6.5936,6.6051,6.6126,6.62,6.6472,6.6601,6.664,6.6836,6.6914,6.6914,6.6914,6.6914,6.7226,6.8828,7.0508,7.1562,7.0508,7.1055,7.1914,7.1914,7.1953,7.1992,7.1992,7.1992,7.1992,7.1992,7.1992,7.1992,7.1992,7.1992,7.0976,6.7773,0.0,0.0,6.7734,7.0,7.1992,7.1992,7.1992,7.1875,7.1677,7.1642,7.1541,7.1206,7.1168,7.1091,7.0898,7.0898,7.0898,7.0898,7.0898,7.0898,7.0898,7.0898,7.0898,7.0898,7.1734,7.2118,7.2234,7.386,7.4639,7.4755,7.563,7.6015,7.6015,7.6015,7.6015,7.6015,7.6015,7.6015,7.5822,7.4245,7.4668,7.5707,5.3225,5.3225,5.3225,5.3225,5.3225,5.3225,5.3225,5.3225,5.3225,5.3225,5.3225,5.3225,5.3225,5.4987,5.6675,5.7886,5.7997,5.7997,5.7997,5.7997,5.8835,6.0734,6.0781,6.0781,6.0781,6.0781,6.0781,6.0781,6.0781,6.0781,6.0819,6.1858,6.2935,6.3974,6.3974,6.4666,6.5897,6.5897,6.5897,6.5897,6.5897,6.5897,6.5897,6.5936,6.6013,6.6126,6.6242,6.6438,6.6601,6.668,6.6797,6.6914,6.6914,6.7265,6.8047,6.9726,7.1055,7.1914,7.1484,7.168,7.1992,7.1992,7.1992,7.1992,7.1992,7.1992,7.1992,7.1992,7.1992,7.1992,7.1992,7.1992,7.1562,7.0273,0.0,7.1562,7.0234,7.1172,7.1992,7.1992,7.1992,7.1914,7.1719,7.1689,7.163,7.1397,7.1386,7.1283,7.1091,7.0975,7.0898,7.0898,7.0898,7.0898,7.0898,7.0898,7.0898,7.0898,7.1783,7.2486,7.3063,7.4178,7.4985,7.5553,7.5861,7.6015,7.6015,7.6015,7.6015,7.6015,7.6015,7.6015,7.5938,7.5284,7.513,7.5053,5.3408,5.3225,5.3225,5.3225,5.3225,5.3225,5.3225,5.3225,5.3225,5.3225,5.3225,5.3225,5.3225,5.6088,5.7997,5.7997,5.7997,5.7997,5.7997,5.7997,5.8835,6.0734,6.0781,6.0781,6.0781,6.0781,6.0781,6.0781,6.0781,6.105,6.1627,6.2781,6.4243,6.5897,6.5897,6.5897,6.5897,6.5897,6.5897,6.5897,6.5897,6.5897,6.5897,6.5897,6.5936,6.6051,6.609,6.626,6.6432,6.6527,6.6672,6.6836,6.7148,6.8047,6.918,7.0273,7.125,7.1992,7.1992,7.1992,7.1992,7.1992,7.1992,7.1992,7.1992,7.1992,7.1992,7.1992,7.1992,7.1992,7.1992,7.1992,7.1992,7.1992,7.1992,7.1992,7.1992,7.1992,7.1992,7.1992,7.1992,7.1953,7.1797,7.1786,7.1741,7.1585,7.1568,7.1439,7.1233,7.1052,7.0975,7.0975,7.0975,7.1014,7.1091,7.0975,7.1052,7.1321,7.2178,7.3063,7.388,7.4716,7.5408,7.6015,7.6015,7.6015,7.6015,7.6015,7.6015,7.5976,7.5707,7.5553,7.5438,7.5053,7.4784,7.4437,5.3769,5.3146,5.3225,5.3225,5.3225,5.3225,5.3225,5.3225,5.3225,5.3225,5.3225,5.3225,5.3225,5.6088,5.7997,5.7997,5.7997,5.7997,5.7997,5.7997,5.8835,6.0734,6.0781,6.0781,6.0781,6.0781,6.0781,6.0781,6.0781,6.1666,6.3281,6.332,6.4243,6.5897,6.5897,6.5897,6.5897,6.5897,6.5897,6.5897,6.5897,6.5897,6.5897,6.5897,6.5897,6.5897,6.6051,6.609,6.6112,6.6338,6.6479,6.6757,6.7656,6.9219,7.0664,7.039,7.1094,7.1992,7.1992,7.1992,7.1992,7.1992,7.1992,7.1992,7.1992,7.1992,7.1992,7.1992,7.1992,7.1992,7.1992,7.1992,7.1992,7.1992,7.1992,7.1992,7.1992,7.1992,7.1992,7.1992,7.1992,7.1992,7.1992,7.1992,7.1914,7.1719,7.169,7.1547,7.1222,7.1195,7.1206,7.1206,7.1195,7.131,7.1503,7.1091,7.1321,7.2206,7.308,7.3927,7.4707,7.5592,7.6015,7.6015,7.6015,7.6015,7.6015,7.6015,7.6015,7.5899,7.5014,7.4514,7.4168,7.3014,7.335,7.3966,5.0432,5.1825,5.3225,5.3225,5.3225,5.3225,5.3225,5.3225,5.3225,5.3225,5.3225,5.4069,5.6308,5.7409,5.7997,5.7997,5.7997,5.7997,5.7997,5.7997,5.8835,6.0734,6.0781,6.0781,6.0781,6.0781,6.0781,6.0781,6.0781,6.1473,6.2743,6.3551,6.4205,6.4743,6.5551,6.5897,6.5897,6.5897,6.5897,6.5897,6.5897,6.5897,6.5897,6.5897,6.5897,6.5897,6.5936,6.6013,6.6217,6.6885,6.7191,6.7587,6.9195,7.0156,7.0781,7.1328,7.1719,7.1992,7.1992,7.1992,7.1992,7.1992,7.1992,7.1992,7.1992,7.1992,7.1992,7.1992,7.1992,7.1992,7.1992,7.1992,7.1992,7.1992,7.1992,7.1992,7.1992,7.1992,7.1992,7.1992,7.1992,7.1992,7.1992,7.1992,7.1992,7.1914,7.1788,7.168,7.155,7.1474,7.1426,7.1426,7.1412,7.1723,7.2401,7.154,7.1618,7.2646,7.3234,7.3976,7.4928,7.5668,7.6015,7.6015,7.6015,7.6015,7.6015,7.6015,7.6015,7.5899,7.4832,7.4476,7.4466,7.3553,7.3206,7.3063,5.0541,5.2161,5.3283,5.3237,5.3225,5.3225,5.3225,5.3225,5.3225,5.3225,5.4326,5.5831,5.7776,5.7997,5.7997,5.7997,5.7997,5.7997,5.7997,5.7997,5.8545,5.9625,6.0391,6.0781,6.0781,6.0781,6.0781,6.0781,6.0781,6.1358,6.2512,6.3666,6.4436,6.4897,6.559,6.5897,6.5897,6.5897,6.5897,6.5897,6.5897,6.5897,6.5897,6.5897,6.5897,6.5897,6.5897,6.5936,6.6128,6.7013,6.7821,6.8728,6.9967,7.0728,7.1211,7.1719,7.1953,7.1992,7.1992,7.1992,7.1992,7.1992,7.1992,7.1992,7.1992,7.1992,7.1992,7.1992,7.1992,7.1992,7.1992,7.1992,7.1992,7.1992,7.1992,7.1992,7.1992,7.1992,7.1992,7.1992,7.1992,7.1992,7.1992,7.1992,7.1992,7.1992,7.1875,7.1797,7.1719,7.1633,7.1571,7.158,7.191,7.238,7.3002,7.2638,7.2862,7.379,7.406,7.4692,7.562,7.5976,7.6169,7.613,7.6053,7.6015,7.6015,7.6015,7.6015,7.5899,7.4755,7.413,7.3763,7.2822,7.2514,7.2783,5.2976,5.3447,5.342,5.3235,5.3445,5.3555,5.3261,5.3225,5.3298,5.3592,5.6418,5.8327,5.8033,5.7997,5.7997,5.7997,5.7997,5.7997,5.7997,5.7997,5.7997,5.7997,5.9625,6.0533,6.0533,6.0734,6.0781,6.0781,6.1089,6.1781,6.282,6.3858,6.4897,6.5897,6.5897,6.5897,6.5897,6.5897,6.5897,6.5897,6.5897,6.5897,6.5897,6.5897,6.5897,6.5897,6.5897,6.5897,6.6013,6.6898,6.8436,7.0067,7.021,7.0931,7.1671,7.1677,7.1835,7.1953,7.1953,7.1992,7.1992,7.1992,7.1992,7.1992,7.1992,7.1992,7.1992,7.1992,7.1992,7.1992,7.1992,7.1992,7.1992,7.1992,7.1992,7.1992,7.1992,7.1992,7.1992,7.1992,7.1992,7.1992,7.1992,7.1992,7.1992,7.1992,7.1992,7.1914,7.1758,7.1719,7.1714,7.1709,7.2546,7.3148,7.3406,7.4119,7.4761,7.5374,7.5327,7.5797,7.6623,7.6465,7.6409,7.6322,7.6092,7.5822,7.5553,7.5861,7.6015,7.5899,7.4716,7.3553,7.2492,7.1426,7.1695,7.2916,5.3382,5.3366,5.3251,5.3213,5.528,5.6124,5.3592,5.3225,5.4106,5.6638,5.9758,6.0823,5.8253,5.7997,5.7997,5.7997,5.7997,5.7997,5.7997,5.7997,5.7997,5.7997,5.8375,5.8591,5.8591,6.0074,6.0781,6.0781,6.3474,6.4936,6.5166,6.5397,6.5667,6.5897,6.5897,6.5897,6.5897,6.5897,6.5897,6.5897,6.5897,6.5897,6.5897,6.5897,6.5897,6.5897,6.5897,6.5897,6.6128,6.7628,6.936,7.0925,7.0965,7.1263,7.1533,7.155,7.163,7.1758,7.1758,7.1875,7.1992,7.1992,7.1992,7.1992,7.1992,7.1992,7.1992,7.1992,7.1992,7.1992,7.1992,7.1992,7.1992,7.1992,7.1992,7.1992,7.1992,7.1992,7.1992,7.1992,7.1992,7.1992,7.1992,7.1992,7.1992,7.1992,7.1992,7.1992,7.1953,7.1914,7.1949,7.1943,7.2793,7.3569,7.4321,7.5145,7.5642,7.5768,7.5452,7.5842,7.6816,7.6519,7.6295,7.6092,7.6015,7.4476,7.2206,7.4899,7.6015,7.5861,7.4264,7.3217,7.2531,7.208,7.2195,7.2954,5.3518,5.4559,5.55,5.55,5.6895,5.7446,5.5757,5.55,5.6638,5.9869,6.0419,5.9869,5.818,5.9355,5.9685,5.8143,5.7997,5.7997,5.7997,5.8731,5.9024,5.8767,5.8253,5.8474,5.9501,6.097,6.2211,6.3243,6.5013,6.5897,6.5936,6.7552,6.7436,6.5897,6.6282,6.6474,6.6474,6.6474,6.6474,6.6436,6.6051,6.5897,6.5897,6.5897,6.5897,6.5897,6.5897,6.6397,6.7282,6.859,6.9937,7.1052,7.1052,7.1168,7.1364,7.1352,7.1465,7.1611,7.1671,7.1797,7.1875,7.1992,7.1992,7.1992,7.1992,7.1992,7.1992,7.1992,7.1992,7.1992,7.1992,7.1992,7.1992,7.1992,7.1992,7.1992,7.1992,7.1992,7.1992,7.1992,7.1992,7.1992,7.1992,7.1992,7.1992,7.1992,7.1992,7.1992,7.1992,7.1992,7.1992,7.1992,7.3232,7.4129,7.4609,7.5898,7.6523,7.6523,7.6297,7.6492,7.7031,7.6873,7.6721,7.6537,7.616,7.4976,7.336,7.3514,7.4514,7.5745,7.3255,7.2399,7.2569,7.23,7.2542,7.3322,5.3518,5.553,5.7216,5.7216,5.8117,5.8804,5.8804,5.8804,5.9795,6.2475,6.0493,5.8804,5.8804,6.0713,6.0933,5.8217,5.851,5.8584,5.8033,5.9501,6.0309,6.0162,5.9134,5.9391,6.1153,6.2805,6.4457,6.6238,6.5997,6.5897,6.5974,6.9321,6.9436,6.6782,6.7128,6.7321,6.7321,6.7321,6.7321,6.7244,6.6436,6.6205,6.6282,6.6013,6.5974,6.609,6.5936,6.6974,6.8552,6.9398,7.0244,7.0898,7.0898,7.1014,7.1129,7.1129,7.1283,7.1463,7.1564,7.1671,7.1758,7.1914,7.1953,7.1992,7.1992,7.1992,7.1992,7.1992,7.1992,7.1992,7.1992,7.1992,7.1992,7.1992,7.1992,7.1992,7.1992,7.1992,7.1992,7.1992,7.1992,7.1992,7.1992,7.1992,7.1992,7.1992,7.1992,7.1992,7.1992,7.1992,7.207,7.2226,7.3789,7.4687,7.4805,7.6406,7.7187,7.7187,7.7187,7.7187,7.7187,7.7187,7.7187,7.7148,7.6471,7.5862,7.5089,7.2268,7.2765,7.5014,7.2052,7.1503,7.2311,7.2272,7.2947,7.411,5.3518,5.3849,5.4141,5.4141,5.8565,6.2144,6.2144,6.2144,6.2328,6.2768,6.2438,6.2144,6.2144,6.0052,5.8474,5.8033,6.0529,6.097,5.818,5.9501,6.1006,6.2328,6.1337,6.0896,6.119,6.5044,6.7148,6.7432,6.6417,6.5897,6.5974,6.9321,7.0667,7.0167,6.8821,6.8244,6.8244,6.8244,6.8244,6.8167,6.7282,6.7398,6.7898,6.6436,6.632,6.6859,6.6128,6.6974,6.8552,6.9398,7.0244,7.0898,7.0898,7.0937,7.0937,7.0937,7.1091,7.126,7.1246,7.1471,7.1719,7.1719,7.1875,7.1992,7.1992,7.1992,7.1992,7.1992,7.1992,7.1992,7.1992,7.1992,7.1992,7.1992,7.1992,7.1992,7.1992,7.1992,7.1992,7.1992,7.1992,7.1992,7.1992,7.1992,7.1992,7.1992,7.1992,7.1992,7.1992,7.1992,7.2344,7.3086,7.4062,7.4961,7.5703,7.6719,7.7187,7.7187,7.7187,7.7187,7.7187,7.7187,7.7187,7.7187,7.7097,7.533,7.2518,7.2049,7.2134,7.2426,7.1321,7.0975,7.1245,7.2188,7.388,7.5707,5.5615,5.4634,5.4025,5.5649,5.8245,6.0665,6.2515,6.2805,6.2805,6.2805,6.2805,6.2144,6.0309,6.0456,6.0676,6.0676,6.0346,5.9905,5.9391,6.086,6.1851,6.2108,6.2108,6.2548,6.3466,6.5375,6.6806,6.7687,6.7195,6.7538,6.8744,7.0206,7.0898,7.086,6.9667,6.9129,6.9129,6.9129,6.9129,6.909,6.8706,6.8205,6.7667,6.7398,6.7205,6.7244,6.8321,6.8898,6.9321,7.0667,7.1014,7.0898,7.0898,7.0898,7.0898,7.0898,7.0975,7.1052,7.1168,7.1313,7.1471,7.1564,7.1698,7.1836,7.1836,7.1914,7.1992,7.1992,7.1992,7.1992,7.1992,7.1992,7.1992,7.1992,7.1992,7.1992,7.1992,7.1992,7.1992,7.1992,7.1992,7.1992,7.1992,7.1992,7.1992,7.1992,7.1992,7.1992,7.1992,7.1992,7.2383,7.3281,7.414,7.5039,7.5898,7.6758,7.7187,7.7187,7.7187,7.7187,7.7187,7.7187,7.7187,7.7148,7.6172,7.4336,7.1992,7.1992,7.1997,7.1978,7.1626,7.1734,7.2157,7.2919,7.4379,7.6015]},{"header":{"parameterUnit":"m.s-1","parameterCategory":1,"la1":30.6,"la2":28.766,"lo1":-90.7593,"lo2":-88.6598,"dx":0.0162,"dy":0.0183,"nx":116,"ny":114,"refTime":"2023-01-03T06:00:00:Z","depth":0,"parameterNumber":3,"parameterNumberName":"V-component_of_WINDS"},"data":[0.0,0.0,0.0,0.0,0.0,0.0,0.0,0.0,0.0,0.0,0.0,0.0,0.0,0.0,0.0,0.0,0.0,0.0,0.0,0.0,0.0,0.0,0.0,0.0,0.0,0.0,0.0,0.0,0.0,0.0,0.0,0.0,0.0,0.0,0.0,0.0,0.0,0.0,0.0,0.0,0.0,0.0,0.0,0.0,0.0,0.0,0.0,0.0,0.0,0.0,0.0,0.0,0.0,0.0,0.0,0.0,0.0,0.0,0.0,0.0,0.0,0.0,0.0,0.0,0.0,0.0,0.0,0.0,0.0,0.0,0.0,0.0,0.0,0.0,0.0,0.0,0.0,0.0,0.0,0.0,0.0,0.0,0.0,0.0,0.0,0.0,0.0,0.0,0.0,0.0,0.0,0.0,0.0,0.0,0.0,0.0,0.0,0.0,0.0,0.0,0.0,0.0,0.0,0.0,0.0,0.0,0.0,0.0,0.0,0.0,0.0,0.0,0.0,0.0,0.0,0.0,0.0,0.0,0.0,0.0,0.0,0.0,0.0,0.0,0.0,0.0,0.0,0.0,0.0,0.0,0.0,0.0,0.0,0.0,0.0,0.0,0.0,0.0,0.0,0.0,0.0,0.0,0.0,0.0,0.0,0.0,0.0,0.0,0.0,0.0,0.0,0.0,0.0,0.0,0.0,0.0,0.0,0.0,0.0,0.0,0.0,0.0,0.0,0.0,0.0,0.0,0.0,0.0,0.0,0.0,0.0,0.0,0.0,0.0,0.0,0.0,0.0,0.0,0.0,0.0,0.0,0.0,0.0,0.0,0.0,0.0,0.0,0.0,0.0,0.0,0.0,0.0,0.0,0.0,0.0,0.0,0.0,0.0,0.0,0.0,0.0,0.0,0.0,0.0,0.0,0.0,0.0,0.0,0.0,0.0,0.0,0.0,0.0,0.0,0.0,0.0,0.0,0.0,0.0,0.0,0.0,0.0,0.0,0.0,0.0,0.0,0.0,0.0,0.0,0.0,0.0,0.0,0.0,0.0,0.0,0.0,0.0,0.0,0.0,0.0,0.0,0.0,0.0,0.0,0.0,0.0,0.0,0.0,0.0,0.0,0.0,0.0,0.0,0.0,0.0,0.0,0.0,0.0,0.0,0.0,0.0,0.0,0.0,0.0,0.0,0.0,0.0,0.0,0.0,0.0,0.0,0.0,0.0,0.0,0.0,0.0,0.0,0.0,0.0,0.0,0.0,0.0,0.0,0.0,0.0,0.0,0.0,0.0,0.0,0.0,0.0,0.0,0.0,0.0,0.0,0.0,0.0,0.0,0.0,0.0,0.0,0.0,0.0,0.0,0.0,0.0,0.0,0.0,0.0,0.0,0.0,0.0,0.0,0.0,0.0,0.0,0.0,0.0,0.0,0.0,0.0,0.0,0.0,0.0,0.0,0.0,0.0,0.0,0.0,0.0,0.0,0.0,0.0,0.0,0.0,0.0,0.0,0.0,0.0,0.0,0.0,0.0,0.0,0.0,0.0,0.0,0.0,0.0,0.0,0.0,0.0,0.0,0.0,0.0,0.0,0.0,0.0,0.0,0.0,0.0,0.0,0.0,0.0,0.0,0.0,0.0,0.0,0.0,0.0,0.0,0.0,0.0,0.0,0.0,0.0,0.0,0.0,0.0,0.0,0.0,0.0,0.0,0.0,0.0,0.0,0.0,0.0,0.0,0.0,0.0,0.0,0.0,0.0,0.0,0.0,0.0,0.0,0.0,0.0,0.0,0.0,0.0,0.0,0.0,0.0,0.0,0.0,0.0,0.0,0.0,0.0,0.0,0.0,0.0,0.0,0.0,0.0,0.0,0.0,0.0,0.0,0.0,0.0,0.0,0.0,0.0,0.0,0.0,0.0,0.0,0.0,0.0,0.0,0.0,0.0,0.0,0.0,0.0,0.0,0.0,0.0,0.0,0.0,0.0,0.0,0.0,0.0,0.0,0.0,0.0,0.0,0.0,0.0,0.0,0.0,0.0,0.0,0.0,0.0,0.0,0.0,0.0,0.0,0.0,0.0,0.0,0.0,0.0,0.0,0.0,0.0,0.0,0.0,0.0,0.0,0.0,0.0,0.0,0.0,0.0,0.0,0.0,0.0,0.0,0.0,0.0,0.0,0.0,0.0,0.0,0.0,0.0,0.0,0.0,0.0,0.0,0.0,0.0,0.0,0.0,0.0,0.0,0.0,0.0,0.0,0.0,0.0,0.0,0.0,0.0,0.0,0.0,0.0,0.0,0.0,0.0,0.0,0.0,0.0,0.0,0.0,0.0,0.0,0.0,0.0,0.0,0.0,0.0,0.0,0.0,0.0,0.0,0.0,0.0,0.0,0.0,0.0,0.0,0.0,0.0,0.0,0.0,0.0,0.0,0.0,0.0,0.0,0.0,0.0,0.0,0.0,0.0,0.0,0.0,0.0,0.0,0.0,0.0,0.0,0.0,0.0,0.0,0.0,0.0,0.0,0.0,0.0,0.0,0.0,0.0,0.0,0.0,0.0,0.0,0.0,0.0,0.0,0.0,0.0,0.0,0.0,0.0,0.0,0.0,0.0,0.0,0.0,0.0,0.0,0.0,0.0,0.0,0.0,0.0,0.0,0.0,0.0,0.0,0.0,0.0,0.0,0.0,0.0,0.0,0.0,0.0,0.0,0.0,0.0,0.0,0.0,0.0,0.0,0.0,0.0,0.0,0.0,0.0,0.0,0.0,0.0,0.0,0.0,0.0,0.0,0.0,0.0,0.0,0.0,0.0,0.0,0.0,0.0,0.0,0.0,0.0,0.0,0.0,0.0,0.0,0.0,0.0,0.0,0.0,0.0,0.0,0.0,0.0,0.0,0.0,0.0,0.0,0.0,0.0,0.0,0.0,0.0,0.0,0.0,0.0,0.0,0.0,0.0,0.0,0.0,0.0,0.0,0.0,0.0,0.0,0.0,0.0,0.0,0.0,0.0,0.0,0.0,0.0,0.0,0.0,0.0,0.0,0.0,0.0,0.0,0.0,0.0,0.0,0.0,0.0,0.0,0.0,0.0,0.0,0.0,0.0,0.0,0.0,0.0,0.0,0.0,0.0,0.0,0.0,0.0,0.0,0.0,0.0,0.0,0.0,0.0,0.0,0.0,0.0,0.0,0.0,0.0,0.0,0.0,0.0,0.0,0.0,0.0,0.0,0.0,0.0,0.0,0.0,0.0,0.0,0.0,0.0,0.0,0.0,0.0,0.0,0.0,0.0,0.0,0.0,0.0,0.0,0.0,0.0,0.0,0.0,0.0,0.0,0.0,0.0,0.0,0.0,0.0,0.0,0.0,0.0,0.0,0.0,0.0,0.0,0.0,0.0,0.0,0.0,0.0,0.0,0.0,0.0,0.0,0.0,0.0,0.0,0.0,0.0,0.0,0.0,0.0,0.0,0.0,0.0,0.0,0.0,0.0,0.0,0.0,0.0,0.0,0.0,0.0,0.0,0.0,0.0,0.0,0.0,0.0,0.0,0.0,0.0,0.0,0.0,0.0,0.0,0.0,0.0,0.0,0.0,0.0,0.0,0.0,0.0,0.0,0.0,0.0,0.0,0.0,0.0,0.0,0.0,0.0,0.0,0.0,0.0,0.0,0.0,0.0,0.0,0.0,0.0,0.0,0.0,0.0,0.0,0.0,0.0,0.0,0.0,0.0,0.0,0.0,0.0,0.0,0.0,0.0,0.0,0.0,0.0,0.0,0.0,0.0,0.0,0.0,0.0,0.0,0.0,0.0,0.0,0.0,0.0,0.0,0.0,0.0,0.0,0.0,0.0,0.0,0.0,0.0,0.0,0.0,0.0,0.0,0.0,0.0,0.0,0.0,0.0,0.0,0.0,0.0,0.0,0.0,0.0,0.0,0.0,0.0,0.0,0.0,0.0,0.0,0.0,0.0,0.0,0.0,0.0,0.0,0.0,0.0,0.0,0.0,0.0,0.0,0.0,0.0,0.0,0.0,0.0,0.0,0.0,0.0,0.0,0.0,0.0,0.0,0.0,0.0,0.0,0.0,0.0,0.0,0.0,0.0,0.0,0.0,0.0,0.0,0.0,0.0,0.0,0.0,0.0,0.0,0.0,0.0,0.0,0.0,0.0,0.0,0.0,0.0,0.0,0.0,0.0,0.0,0.0,0.0,0.0,0.0,0.0,0.0,0.0,0.0,0.0,0.0,0.0,0.0,0.0,0.0,0.0,0.0,0.0,0.0,0.0,0.0,0.0,0.0,0.0,0.0,0.0,0.0,0.0,0.0,0.0,0.0,0.0,0.0,0.0,0.0,0.0,0.0,0.0,0.0,0.0,0.0,0.0,0.0,0.0,0.0,0.0,0.0,0.0,0.0,0.0,0.0,0.0,0.0,0.0,0.0,0.0,0.0,0.0,0.0,0.0,0.0,0.0,0.0,0.0,0.0,0.0,0.0,0.0,0.0,0.0,0.0,0.0,0.0,0.0,0.0,0.0,0.0,0.0,0.0,0.0,0.0,0.0,0.0,0.0,0.0,0.0,0.0,0.0,0.0,0.0,0.0,0.0,0.0,0.0,0.0,0.0,0.0,0.0,0.0,0.0,0.0,0.0,0.0,0.0,0.0,0.0,0.0,0.0,0.0,0.0,0.0,0.0,0.0,0.0,0.0,0.0,0.0,0.0,0.0,0.0,0.0,0.0,0.0,0.0,0.0,0.0,0.0,0.0,0.0,0.0,0.0,0.0,0.0,0.0,0.0,0.0,0.0,0.0,0.0,0.0,0.0,0.0,0.0,0.0,0.0,0.0,0.0,0.0,0.0,0.0,0.0,0.0,0.0,0.0,0.0,0.0,0.0,0.0,0.0,0.0,0.0,0.0,0.0,0.0,0.0,0.0,0.0,0.0,0.0,0.0,0.0,0.0,0.0,0.0,0.0,0.0,0.0,0.0,0.0,0.0,0.0,0.0,0.0,0.0,0.0,0.0,0.0,0.0,0.0,0.0,0.0,0.0,0.0,0.0,0.0,0.0,0.0,0.0,0.0,0.0,0.0,0.0,0.0,0.0,0.0,0.0,0.0,0.0,0.0,0.0,0.0,0.0,0.0,0.0,0.0,0.0,0.0,0.0,0.0,0.0,0.0,0.0,0.0,0.0,0.0,0.0,0.0,0.0,0.0,0.0,0.0,0.0,0.0,0.0,0.0,0.0,0.0,0.0,0.0,0.0,0.0,0.0,0.0,0.0,0.0,0.0,0.0,0.0,0.0,0.0,0.0,0.0,0.0,0.0,0.0,0.0,0.0,0.0,0.0,0.0,0.0,0.0,0.0,0.0,0.0,0.0,0.0,0.0,0.0,0.0,0.0,0.0,0.0,0.0,0.0,0.0,0.0,0.0,0.0,0.0,0.0,0.0,0.0,0.0,0.0,0.0,0.0,0.0,0.0,0.0,0.0,0.0,0.0,0.0,0.0,0.0,0.0,0.0,0.0,0.0,0.0,0.0,0.0,0.0,0.0,0.0,0.0,0.0,0.0,0.0,0.0,0.0,0.0,0.0,0.0,0.0,0.0,0.0,0.0,0.0,0.0,0.0,0.0,0.0,0.0,0.0,0.0,0.0,0.0,0.0,0.0,0.0,0.0,0.0,0.0,0.0,0.0,0.0,0.0,0.0,0.0,0.0,0.0,0.0,0.0,0.0,0.0,0.0,0.0,0.0,0.0,0.0,0.0,0.0,0.0,0.0,0.0,0.0,0.0,0.0,0.0,0.0,0.0,0.0,0.0,0.0,0.0,0.0,0.0,0.0,0.0,0.0,0.0,0.0,0.0,0.0,0.0,0.0,0.0,0.0,0.0,0.0,0.0,0.0,0.0,0.0,0.0,0.0,0.0,0.0,0.0,0.0,0.0,0.0,0.0,0.0,0.0,0.0,0.0,0.0,0.0,0.0,0.0,0.0,0.0,0.0,0.0,0.0,0.0,0.0,0.0,0.0,0.0,0.0,0.0,0.0,0.0,0.0,0.0,0.0,0.0,0.0,0.0,0.0,0.0,0.0,0.0,0.0,0.0,0.0,0.0,0.0,0.0,0.0,0.0,0.0,0.0,0.0,-1.0611,0.0,0.0,0.0,0.0,0.0,0.0,0.0,0.0,0.0,0.0,0.0,0.0,0.0,0.0,0.0,0.0,0.0,0.0,0.0,0.0,0.0,0.0,0.0,0.0,-0.1092,-0.0843,-0.0651,-0.1615,0.0,0.0,0.0,0.0,0.0,0.0,0.0,0.0,0.0,-0.1989,-0.2007,-0.2145,-0.1801,-0.0917,-0.092,-0.1411,-0.2218,0.0,0.0,0.0,0.0,0.0,0.0,0.0,0.0,0.0,0.0,0.0,0.0,0.0,0.0,0.0,0.0,0.0,0.0,0.0,0.0,0.0,0.0,0.0,0.0,0.0,0.0,0.0,0.0,0.0,0.0,0.0,0.0,0.0,0.0,0.0,0.0,0.0,0.0,0.0,0.0,0.0,0.0,0.0,0.0,0.0,0.0,0.0,0.0,0.0,0.0,0.0,0.0,0.0,0.0,0.0,0.0,0.0,0.0,0.0,0.0,0.0,0.0,0.0,0.0,0.0,0.0,0.0,0.0,0.0,0.0,0.0,-0.9367,0.0,0.0,0.0,0.0,0.0,0.0,0.0,0.0,0.0,0.0,0.0,0.0,0.0,0.0,0.0,0.0,0.0,0.0,0.0,0.0,0.0,-0.1792,-0.1809,-0.0715,-0.0292,-0.1021,-0.2069,-0.2553,-0.2223,-0.2223,0.0,0.0,0.0,0.0,-0.2215,-0.2197,-0.2077,-0.1903,-0.2437,-0.178,0.0,0.0,-0.0821,-0.2246,-0.2226,0.0,0.0,0.0,0.0,0.0,0.0,0.0,0.0,0.0,0.0,0.0,0.0,0.0,0.0,0.0,0.0,0.0,0.0,0.0,0.0,0.0,0.0,0.0,0.0,0.0,0.0,0.0,0.0,0.0,0.0,0.0,0.0,0.0,0.0,0.0,0.0,0.0,0.0,0.0,0.0,0.0,0.0,0.0,0.0,0.0,0.0,0.0,0.0,0.0,0.0,0.0,0.0,0.0,0.0,0.0,0.0,0.0,0.0,0.0,0.0,0.0,0.0,0.0,-1.2305,-1.2841,-1.397,-1.3812,-1.3764,-1.3796,-1.0117,-1.0375,-1.3157,-1.039,0.0,0.0,0.0,0.0,0.0,0.0,0.0,0.0,0.0,0.0,0.0,0.0,0.0,0.0,0.0,0.0,0.0,0.0,0.0,-0.1803,-0.1796,-0.0722,-0.0057,-0.0151,-0.1715,-0.2663,-0.2616,-0.2472,0.0,0.0,0.0,0.0,-0.2211,-0.2144,-0.2177,-0.2323,-0.2595,-0.18,0.0,0.0,-0.0138,-0.0331,-0.0344,-0.0371,-0.0364,0.0,0.0,0.0,0.0,0.0,0.0,0.0,0.0,0.0,0.0,0.0,0.0,0.0,0.0,0.0,0.0,0.0,0.0,0.0,0.0,0.0,0.0,0.0,0.0,0.0,0.0,0.0,0.0,0.0,0.0,0.0,0.0,0.0,0.0,0.0,0.0,0.0,0.0,0.0,0.0,0.0,-1.1076,-1.002,0.0,0.0,0.0,0.0,0.0,0.0,0.0,0.0,0.0,0.0,0.0,0.0,0.0,-1.3574,-1.2888,-1.4875,-1.5108,-1.3538,-1.4488,-1.5187,-1.5517,-1.3178,-1.3457,-1.5539,-1.1151,0.0,-1.3959,-1.195,0.0,0.0,0.0,0.0,0.0,0.0,0.0,0.0,0.0,0.0,0.0,0.0,0.0,0.0,0.0,0.0,0.0,0.0,0.0,0.0,0.0,-0.0322,0.0,0.0,-0.0742,-0.1397,-0.1866,-0.232,0.0,0.0,0.0,-0.2582,-0.2489,-0.2469,-0.2488,-0.2587,-0.1629,-0.081,0.0,0.0,0.0,0.0,0.0,0.0,0.0,0.0,0.0,0.0,0.0,0.0,0.0,0.0,0.0,0.0,0.0,0.0,0.0,0.0,0.0,0.0,0.0,0.0,0.0,0.0,0.0,0.0,0.0,0.0,0.0,0.0,0.0,0.0,0.0,0.0,0.0,0.0,0.0,0.0,0.0,0.0,0.0,0.0,0.0,0.0,0.0,-1.0147,-1.0618,-1.0701,-1.0135,-0.9488,0.0,0.0,0.0,0.0,0.0,0.0,0.0,0.0,0.0,-1.3162,-1.3808,-1.4251,-1.4582,-1.4896,-1.4691,-1.3805,-1.4331,-1.4579,-1.4676,-1.3429,-1.3581,-1.46,-1.268,-1.2768,-1.4025,-1.1613,-1.0551,-1.057,0.0,0.0,0.0,0.0,-1.1544,-1.1218,0.0,0.0,0.0,0.0,0.0,0.0,0.0,0.0,0.0,0.0,0.0,0.0,-0.008,0.0,0.0,0.0,0.0,-0.0269,-0.0926,-0.1842,-0.2457,-0.2678,-0.2706,-0.27,-0.2708,-0.2697,-0.2464,-0.1993,-0.0678,0.0,0.0,0.0,0.0,0.0,0.0,0.0,0.0,0.0,0.0,-0.0096,0.0,0.0,0.0,0.0,0.0,0.0,0.0,0.0,0.0,0.0,0.0,0.0,0.0,0.0,0.0,0.0,0.0,0.0,0.0,0.0,0.0,0.0,0.0,0.0,0.0,0.0,0.0,0.0,0.0,0.0,0.0,0.0,0.0,0.0,0.0,0.0,0.0,-1.0424,-1.0864,-1.1306,-1.1034,-1.0325,0.0,0.0,0.0,0.0,0.0,0.0,-1.2049,-1.3484,-1.4639,-1.5338,-1.5109,-1.508,-1.5544,-1.4711,-1.4207,-1.3818,-1.3982,-1.4127,-1.4458,-1.4063,-1.4208,-1.4552,-1.4093,-1.4069,-1.4043,-1.1431,-1.0556,-1.1061,-1.198,-1.3275,-1.4555,-1.4888,-1.468,-1.4514,0.0,0.0,0.0,0.0,0.0,0.0,0.0,0.0,0.0,0.0,0.0,-0.0085,-0.0,0.0,0.0,0.0,0.0,-0.0,-0.0058,-0.0896,-0.1781,-0.2646,-0.2683,-0.2698,-0.2689,-0.2687,-0.186,-0.0145,-0.0077,0.0,0.0,0.0,0.0,0.0,0.0,0.0,0.0,0.0,0.0,-0.0,-0.0097,0.0,0.0,0.0,0.0,0.0,0.0,0.0,0.0,0.0,0.0,0.0,0.0,0.0,0.0,0.0,0.0,0.0,0.0,0.0,0.0,0.0,0.0,0.0,0.0,0.0,0.0,0.0,0.0,0.0,0.0,0.0,0.0,0.0,0.0,0.0,0.0,0.0,0.0,-1.1387,-1.2996,0.0,0.0,0.0,0.0,-1.1314,-1.1464,-1.2192,-1.353,-1.5197,-1.606,-1.5862,-1.7405,-1.7597,-1.6074,-1.6063,-1.5277,-1.3695,-1.4019,-1.4929,-1.6333,-1.5056,-1.5397,-1.6809,-1.5279,-1.4579,-1.445,-1.2551,-1.3353,-1.5609,-1.3711,-1.5438,-1.881,-1.6854,-1.7365,-1.8481,0.0,0.0,0.0,-0.0936,-0.1391,-0.1664,-0.1274,-0.1223,-0.1087,-0.0696,-0.0261,0.0,0.0,0.0,0.0,0.0,0.0,-0.0206,-0.0776,-0.1131,-0.2077,-0.3804,-0.3093,-0.2682,-0.2727,-0.3111,-0.2199,0.0,0.0,0.0,0.0,0.0,0.0,0.0,0.0,0.0,0.0,0.0,0.0,0.0,0.0,-0.0372,0.0,0.0,0.0,0.0,0.0,0.0,0.0,0.0,0.0,0.0,0.0,0.0,0.0,0.0,0.0,0.0,0.0,0.0,0.0,0.0,0.0,0.0,0.0,0.0,0.0,0.0,0.0,0.0,0.0,0.0,0.0,0.0,0.0,0.0,0.0,0.0,0.0,-1.2826,-1.2563,0.0,-1.0964,-1.2048,-1.2426,-1.1827,-1.4158,-1.5644,-1.5329,-1.5885,-1.6115,-1.6045,-1.558,-1.5705,-1.6331,-1.6331,-1.6172,-1.587,-1.5959,-1.577,-1.5194,-1.3727,-1.3407,-1.3875,-1.2217,-1.1495,-1.1495,-1.0838,-1.1079,-1.2209,-1.3526,-1.4599,-1.5311,-1.5192,-1.5666,-1.6267,0.0,0.0,0.0,-0.1274,-0.1524,-0.1654,-0.1253,-0.0848,-0.0447,-0.0066,0.0,0.0,0.0,0.0,0.0,0.0,0.0,-0.0535,-0.1717,-0.1774,-0.2411,-0.3831,-0.3106,-0.2679,-0.2686,-0.2467,-0.1632,0.0,0.0,0.0,0.0,0.0,0.0,0.0,0.0,0.0,0.0,0.0,0.0,0.0,0.0,0.0,-0.0111,0.0,0.0,0.0,0.0,0.0,0.0,0.0,0.0,0.0,0.0,0.0,0.0,0.0,0.0,0.0,0.0,0.0,0.0,0.0,0.0,0.0,0.0,0.0,0.0,0.0,0.0,0.0,0.0,0.0,0.0,0.0,0.0,0.0,0.0,-1.2586,-1.3385,-1.3021,-1.2768,-1.2374,-1.1855,-1.2909,-1.3587,-1.3225,-1.529,-1.6465,-1.6298,-1.5705,-1.541,-1.541,-1.5031,-1.5138,-1.5892,-1.6356,-1.6204,-1.5419,-1.5419,-1.4826,-1.3765,-1.2689,-1.2457,-1.2928,-1.1856,-1.1382,-1.1382,-1.1437,-1.1461,-1.1696,-1.3195,-1.3646,-1.3646,-1.4361,-1.4955,-1.5558,0.0,0.0,-0.1753,-0.1798,-0.1798,-0.1799,-0.1778,-0.0807,-0.0032,-0.0,0.0,0.0,0.0,0.0,0.0,0.0,-0.0157,-0.0943,-0.2675,-0.2788,-0.277,-0.2709,-0.2774,-0.2752,-0.2639,-0.0876,0.0,0.0,0.0,0.0,0.0,0.0,0.0,0.0,0.0,0.0,0.0,0.0,0.0,0.0,0.0,0.0,0.0,0.0,0.0,0.0,0.0,0.0,0.0,0.0,0.0,0.0,0.0,0.0,0.0,0.0,0.0,0.0,0.0,0.0,0.0,0.0,0.0,0.0,0.0,0.0,0.0,0.0,0.0,0.0,0.0,0.0,0.0,0.0,0.0,0.0,-1.2764,-1.3841,-1.3873,-1.2204,-1.3785,-1.4037,-1.1766,-1.2856,-1.4371,-1.5713,-1.4719,-1.4622,-1.5997,-1.4844,-1.4149,-1.4265,-1.5887,-1.6138,-1.4599,-1.6138,-1.53,-1.2217,-1.2217,-1.2217,-1.2217,-1.2217,-1.3057,-1.449,-1.45,-1.451,-1.452,-1.46,-1.4689,-1.4679,-1.2906,-1.3186,-1.45,-1.45,-1.5451,-1.6903,0.0112,-0.0267,-0.0781,-0.1642,-0.1798,-0.1662,-0.1221,-0.1233,-0.0979,-0.0125,0.0,0.0,0.0,0.0,0.0,0.0,-0.2832,-0.4815,-0.5291,-0.5332,-0.454,-0.2777,-0.4388,-0.3878,-0.083,-0.0235,0.0,0.0,0.0,0.0,0.0,0.0,0.0,0.0,0.0,0.0,0.0,0.0,0.0,0.0,0.0,0.0,0.0,0.0,0.0,0.0,0.0,0.0,0.0,0.0,0.0,0.0,0.0,0.0,0.0,0.0,0.0,0.0,0.0,0.0,0.0,0.0,0.0,0.0,0.0,0.0,0.0,0.0,0.0,0.0,0.0,0.0,0.0,0.0,-1.1431,-1.1977,-1.3783,-1.4558,-1.4676,-1.4208,-1.3964,-1.3592,-1.3143,-1.4397,-1.5177,-1.4852,-1.5396,-1.5517,-1.4993,-1.3523,-1.3323,-1.4508,-1.3846,-1.3885,-1.4599,-1.5074,-1.4837,-1.3885,-1.3885,-1.3885,-1.3894,-1.2838,-1.2542,-1.2917,-1.1953,-1.1518,-1.1518,-1.1564,-1.1587,-1.1705,-1.2266,-1.2862,-1.3243,-1.2009,-1.2499,-1.3853,0.0178,0.0,-0.0311,-0.1252,-0.1635,-0.1588,-0.0987,-0.0984,-0.0789,-0.0092,0.0,0.0,0.0,0.0,-0.0707,-0.2518,-0.4894,-0.623,-0.6086,-0.4599,-0.3701,-0.3811,-0.373,-0.2501,-0.008,0.0,0.0,0.0,0.0,0.0,0.0,0.0,0.0,0.0,0.0,0.0,0.0,0.0,0.0,0.0,0.0,0.0,0.0,0.0,0.0,-0.0217,-0.174,-0.2686,-0.3253,-0.3334,0.0,0.0,0.0,0.0,0.0,0.0,0.0,0.0,0.0,0.0,0.0,0.0,0.0,0.0,0.0,0.0,0.0,0.0,0.0,0.0,0.0,0.0,0.0,0.0,-1.1776,-1.2366,-1.3648,-1.4471,-1.4908,-1.4478,-1.4407,-1.4254,-1.3821,-1.4719,-1.5004,-1.4351,-1.458,-1.434,-1.3636,-1.2689,-1.2569,-1.3526,-1.3287,-1.3646,-1.4599,-1.4599,-1.4291,-1.3658,-1.438,-1.4067,-1.2821,-1.2687,-1.225,-1.151,-1.0615,-1.0283,-1.0283,-1.0344,-1.0749,0.0,0.0,0.0,0.0,0.0,-1.1894,-1.2649,0.0334,0.0044,-0.02,-0.0803,-0.1391,-0.1587,-0.0987,-0.0392,0.0,0.0,0.0,0.0,0.0,0.0,-0.1492,-0.5297,-0.6028,-0.5977,-0.5214,-0.2387,-0.1929,-0.4704,-0.1746,0.0,0.0,0.0,0.0,0.0,0.0,0.0,0.0,0.0,0.0,0.0,0.0,0.0,0.0,0.0,0.0,0.0,0.0,0.0,0.0,0.0,0.0,0.0,0.0,-0.107,-0.2374,-0.2035,0.0,0.0,0.0,0.0,0.0,0.0,0.0,0.0,0.0,0.0,0.0,0.0,0.0,0.0,0.0,0.0,0.0,0.0,0.0,0.0,0.0,0.0,0.0,0.0,-1.1899,-1.2578,-1.2694,-1.3868,-1.4456,-1.3768,-1.4834,-1.5166,-1.4065,-1.4259,-1.4392,-1.4286,-1.2949,-1.2337,-1.2449,0.0,0.0,0.0,0.0,-1.4361,-1.4361,-1.451,-1.3899,-1.2496,-1.3986,-1.3349,-1.0658,-1.2051,-1.1806,-1.0304,-1.0324,-1.0331,-1.0337,-1.0466,-1.1416,-1.2668,-1.1246,-1.0438,-1.0579,-1.1956,-1.2463,-1.2512,0.087,0.0335,-0.0202,-0.0803,-0.1396,-0.1599,-0.0987,-0.0392,0.0,0.0,0.0,0.0,0.0,0.0,-0.0314,-0.1178,-0.4334,-0.4828,-0.1328,-0.3577,-0.3857,-0.1136,-0.0386,0.0,0.0,0.0,0.0,0.0,0.0,0.0,0.0,0.0,0.0,0.0,0.0,0.0,0.0,0.0,0.0,0.0,0.0,0.0,0.0,0.0,0.0,0.0,0.0,-0.0261,-0.0515,-0.0427,-0.0645,-0.1276,-0.2931,-0.2902,0.0,0.0,0.0,0.0,0.0,0.0,0.0,0.0,0.0,0.0,0.0,0.0,0.0,0.0,0.0,0.0,0.0,0.0,0.0,-1.1183,-1.0451,-1.0277,-1.1952,-1.259,-1.3082,-1.3598,-1.4085,-1.4292,-1.429,-1.4235,-1.4336,-1.4518,-1.303,-1.2808,-1.4123,-1.1615,-1.1495,-1.4004,-1.3168,-1.2689,-1.2689,-1.4178,-1.4154,-1.2619,0.0,0.0,-1.2406,-1.1411,-1.0834,-1.046,-1.0582,-1.0636,-1.0636,-1.0663,-1.0809,-1.1308,-1.2169,-1.1804,-1.0636,-1.1023,-1.1101,-1.1495,0.1413,0.0625,-0.0201,-0.0803,-0.1397,-0.1598,-0.0993,-0.0374,0.0,0.0,0.0,0.0,0.0,0.0,0.0,0.0,-0.1957,-0.318,-0.3178,-0.3144,-0.2238,-0.0077,0.0,0.0,0.0,0.0,0.0,0.0,0.0,0.0,0.0,0.0,0.0,0.0,0.0,0.0,0.0,0.0,0.0,0.0,0.0,0.0,0.0,0.0,0.0,0.0,0.0,0.0,0.0,0.0,0.0,-0.0252,-0.143,-0.1419,-0.1291,0.0,0.0,0.0,0.0,0.0,0.0,0.0,0.0,0.0,0.0,0.0,0.0,0.0,0.0,-0.8678,-0.8102,0.0,-1.025,-1.0152,-1.0757,-1.0988,-1.0795,-1.0799,-1.1446,-1.268,-1.4251,-1.4646,-1.3466,-1.3249,-1.3296,-1.3398,-1.2697,-1.2569,-1.3407,-1.2689,-1.2577,-1.3407,-1.2664,-1.2717,-1.3555,-1.3882,-1.3545,-1.2892,-1.3861,-1.3462,-1.1782,-1.1858,-1.1381,-1.0609,-1.0609,-1.069,-1.0833,-1.0833,-1.0785,-1.0836,-1.1445,-1.1359,-1.0717,-1.0717,-1.0772,-1.0974,0.1798,0.0914,-0.0022,-0.0614,-0.1313,-0.1622,-0.1158,-0.0477,0.0,0.0,0.0,-0.0108,-0.0463,-0.0507,-0.037,-0.0,0.0,-0.1417,-0.4843,-0.188,0.0,0.0,0.0,0.0,0.0,0.0,0.0,0.0,0.0,0.0,0.0,0.0,0.0,0.0,0.0,0.0,0.0,0.0,0.0,0.0,0.0,0.0,0.0,0.0,0.0,0.0,0.0,0.0,0.0,0.0,0.0,0.0,0.0,-0.0349,-0.1073,-0.2756,-0.4235,0.0,0.0,0.0,0.0,0.0,0.0,0.0,0.0,-0.6648,-0.8178,-0.8218,-0.8527,-0.8942,-0.8947,-1.0045,-1.0543,-0.914,-1.1005,-1.1898,-0.9795,-1.0646,-1.1476,-1.1508,-1.3966,-1.4748,-1.244,-1.1976,-1.1856,-1.2217,-1.1856,-1.1976,-1.2569,-1.3287,-1.3186,-1.2268,-1.2053,-1.2636,-1.4014,-1.3358,-1.3029,-1.3165,-1.46,-1.382,-1.124,-1.2281,-1.2025,-1.0711,-1.0588,-1.0697,-1.0948,-1.0948,-1.086,-1.0711,-1.0616,-1.0636,-1.0717,-1.0717,-1.0738,-1.0765,0.1798,0.1252,0.0616,0.0,-0.1029,-0.1787,-0.1715,-0.0736,0.0,0.0,0.0,-0.0633,-0.2221,-0.2405,-0.1765,-0.0128,0.0,-0.0208,-0.0675,-0.0231,0.0,0.0,0.0,0.0,0.0,0.0,0.0,0.0,0.0,0.0,0.0,0.0,0.0,0.0,0.0,0.0,0.0,0.0,0.0,0.0,0.0,0.0,0.0,0.0,0.0,0.0,0.0,0.0,0.0,0.0,0.0,0.0,0.0,-0.1653,-0.3626,-0.3811,-0.4961,-0.6073,-0.5508,-0.5223,-0.5259,-0.6146,-0.6318,-0.6464,0.0,-0.7963,-0.8753,-0.8777,-0.8829,-0.8885,-0.8932,-0.9003,-0.914,-0.8937,-0.9624,-1.0076,-0.9808,-1.4687,-1.6198,-1.0642,-1.1583,-1.2543,-1.2209,-1.0899,-1.0657,-1.2097,-1.0899,-1.1382,-1.4123,-1.1736,-1.0966,-1.2339,-1.1024,-1.0489,-1.0876,-1.229,-1.3148,-1.3037,-1.3466,-1.343,-1.2931,-1.1637,-1.085,-1.0717,-1.0704,-1.0792,-1.0948,-1.0948,-1.086,-1.0731,-1.0853,-1.0826,-1.0717,-1.0717,-1.0806,-1.1077,0.1798,0.1591,0.1119,0.0158,-0.0404,-0.0974,-0.1679,-0.0761,0.0,0.0,0.0,-0.0706,-0.2488,-0.2717,-0.2422,-0.1634,-0.0635,0.0,0.0,0.0,0.0,0.0,0.0,0.0,0.0,0.0,0.0,0.0,0.0,0.0,0.0,0.0,0.0,0.0,0.0,0.0,0.0,0.0,0.0,0.0,0.0,0.0,0.0,0.0,0.0,-0.036,-0.3144,-0.2316,0.0,0.0,0.0,-0.0451,-0.2856,-0.4418,-0.5175,-0.409,-0.493,-0.6337,-0.6337,-0.6349,-0.6451,-0.7095,-0.7204,-0.7262,-0.7685,-0.7952,-0.835,-0.8817,-0.8845,-0.8879,-0.8883,-0.8858,-0.9064,-0.9401,-0.9683,-1.1161,-1.4847,-1.4461,-1.35,-1.2697,-1.2586,-1.2595,-1.2217,-1.1615,-1.1856,-1.3526,-1.2097,-1.1784,-1.322,-1.2012,-1.1248,-1.1173,-1.0637,-1.0842,-1.1923,-1.2726,-1.3206,-1.3206,-1.3282,-1.2856,-1.1911,-1.1114,-1.0806,-1.0724,-1.0812,-1.0785,-1.0697,-1.0873,-1.086,-1.0724,-1.0792,-1.0778,-1.0717,-1.0717,-1.0758,-1.0974,0.1599,0.1697,0.1429,0.022,0.0,-0.0295,-0.1159,-0.0556,0.0,0.0,0.0,-0.0589,-0.2134,-0.2529,-0.269,-0.2719,-0.1265,-0.0233,-0.0,0.0,0.0,0.0,0.0,0.0,0.0,0.0,0.0,0.0,0.0,0.0,0.0,0.0,0.0,0.0,0.0,0.0,0.0,0.0,0.0,0.0,0.0,0.0,0.0,0.0,-0.0717,-0.2225,-0.5625,-0.4682,-0.1653,-0.0957,-0.0788,-0.1414,-0.441,-0.5369,-0.522,-0.4639,-0.5389,-0.6491,-0.684,-0.7082,-0.7258,-0.7753,-0.797,-0.8119,-0.813,-0.8123,-0.8196,-0.8736,-0.8967,-0.9028,-0.9017,-0.9788,-1.0364,-0.9828,-1.1272,-1.347,-1.6317,-1.2715,-1.0981,-1.4272,-1.466,-1.4291,-1.2937,-1.2449,-1.2689,-1.3885,-1.25,-1.163,-1.1757,-1.1813,-1.1423,-1.0331,-1.0439,-1.1149,-1.2475,-1.2481,-1.2568,-1.2616,-1.2616,-1.2052,-1.1009,-1.1009,-1.0928,-1.0785,-1.09,-1.0819,-1.0629,-1.0812,-1.0846,-1.0785,-1.0785,-1.0806,-1.0839,-1.0839,-1.0819,-1.0806,0.1076,0.1409,0.1417,0.0222,0.0,-0.0,-0.0033,-0.0034,0.0,0.0,0.0,-0.0337,-0.1254,-0.2169,-0.2688,-0.2689,-0.1815,-0.0889,-0.0061,0.0,0.0,0.0,0.0,0.0,0.0,0.0,0.0,0.0,0.0,0.0,0.0,0.0,0.0,0.0,0.0,0.0,0.0,0.0,0.0,0.0,0.0,0.0,0.0,0.0,-0.2571,-0.6115,-0.6294,-0.6207,-0.5717,-0.3381,-0.2802,-0.3022,-0.3193,-0.3022,-0.33,-0.5928,-0.6583,-0.6512,-0.6668,-0.6919,-0.7285,-0.7882,-0.8364,-0.8682,-0.8696,-0.8811,-0.8913,-0.8933,-0.9049,-0.915,-0.915,-1.209,-1.34,-1.0332,-1.5032,-1.697,-1.0943,-0.9905,-1.1002,-1.4231,-1.7268,-1.7941,-1.4847,-1.3168,-1.2217,-1.2217,-1.0934,-1.0046,-1.0046,-1.0314,-1.0337,-1.048,-1.0487,-1.0561,-1.0711,-1.0717,-1.0792,-1.0941,-1.0941,-1.1016,-1.1158,-1.1158,-1.1077,-1.0941,-1.0948,-1.0941,-1.0921,-1.0785,-1.0812,-1.0941,-1.0941,-1.1029,-1.1151,-1.1151,-1.1063,-1.0962,0.1079,0.1379,0.1414,0.0207,0.0,0.0,0.0,0.0,0.0,0.0,0.0,0.0,0.0,0.0,0.0,0.0,-0.2392,-0.1579,-0.0118,0.0,0.0,0.0,0.0,0.0,0.0,0.0,0.0,0.0,0.0,0.0,0.0,0.0,0.0,0.0,0.0,0.0,0.0,0.0,0.0,0.0,0.0,0.0,-0.0451,-0.4358,-0.5552,-0.5266,0.0,-0.6135,-0.5647,-0.5229,-0.4908,-0.4658,-0.4809,-0.4794,-0.4872,-0.5821,-0.6351,-0.6675,-0.6926,-0.736,-0.7855,-0.8357,-0.8676,-0.8859,-0.8859,-0.8899,-0.894,-0.894,-0.9545,-1.0304,-1.0643,-1.2199,-1.3202,-1.2974,-1.6609,-1.7159,-1.0755,-0.9792,-1.1758,-1.7126,-1.6843,-1.6053,-1.5751,-1.4579,-1.3343,-1.2395,-1.0878,-1.0134,-1.0331,-1.0392,-1.0487,-1.0636,-1.0643,-1.0717,-1.0867,-1.0873,-1.0948,-1.109,-1.1192,-1.1267,-1.1314,-1.1314,-1.1233,-1.1084,-1.0989,-1.0948,-1.0948,-1.0894,-1.0962,-1.109,-1.109,-1.1118,-1.1172,-1.1274,-1.128,-1.1246,0.0,0.1335,0.0911,0.0122,0.0,0.0,0.0,0.0,0.0,0.0,0.0,0.0,0.0,0.0,0.0,0.0,0.0,-0.2187,-0.1063,-0.0775,-0.0654,-0.0774,-0.0718,-0.0657,-0.0818,-0.075,-0.0533,0.0,0.0,0.0,0.0,0.0,0.0,0.0,0.0,0.0,0.0,0.0,0.0,-0.0092,-0.1613,-0.214,-0.2244,-0.5379,-0.578,0.0,-0.5573,-0.5606,-0.5377,-0.5732,-0.5663,-0.5488,-0.567,-0.5835,-0.5925,-0.6009,-0.6396,-0.6885,-0.7339,-0.7787,-0.8228,-0.8682,-0.8825,-0.8859,-0.8859,-0.8859,-0.8859,-0.8859,-0.9738,-1.065,-1.0991,-1.2073,-1.3184,-1.3913,-1.6087,-1.5839,-1.0599,-1.1725,-1.4728,-1.8893,-1.656,-1.4697,-1.5168,-1.4351,-1.3453,-1.2488,-1.1018,-1.029,-1.048,-1.0548,-1.0616,-1.0717,-1.0717,-1.0792,-1.0948,-1.0948,-1.105,-1.1246,-1.1402,-1.1443,-1.1396,-1.145,-1.1389,-1.124,-1.1206,-1.1158,-1.1104,-1.1104,-1.1192,-1.1321,-1.1267,-1.1307,-1.1409,-1.1457,-1.147,-1.147,0.0,0.0,0.0124,0.0,0.0,0.0,0.0,0.0,0.0,0.0,0.0,0.0,0.0,0.0,0.0,0.0,0.0,0.0,-0.2711,-0.2155,-0.194,-0.2252,-0.2017,-0.2014,-0.2264,-0.2277,-0.1601,-0.0216,-0.0148,-0.0077,0.0,0.0,0.0,0.0,0.0,0.0,0.0,0.0,-0.0091,-0.0564,-0.4612,-0.5877,-0.521,-0.3157,-0.3634,-0.5312,-0.4731,-0.4766,-0.5108,-0.5128,-0.5352,-0.563,-0.5644,-0.5942,-0.6322,-0.6458,-0.6729,-0.7143,-0.7848,-0.8167,-0.8397,-0.8818,-0.8811,-0.8703,-0.871,-0.871,-0.8703,-0.8797,-0.9625,-1.0445,-1.0518,-1.2135,-1.3417,-1.3067,-1.4009,-1.358,-1.0465,-1.5505,-1.9391,-1.9404,-1.6419,-1.3994,-1.3242,-1.2653,-1.2283,-1.2283,-1.1217,-1.0493,-1.05,-1.0643,-1.0717,-1.0717,-1.0724,-1.0806,-1.0955,-1.0975,-1.1124,-1.1402,-1.1552,-1.1545,-1.1409,-1.1558,-1.1545,-1.1409,-1.1565,-1.1545,-1.1416,-1.1416,-1.1504,-1.1626,-1.1484,-1.1592,-1.1816,-1.1687,-1.1633,-1.1619,0.0,0.0,0.0,0.0,0.0,0.0,0.0,0.0,0.0,0.0,0.0,0.0,0.0,0.0,0.0,0.0,0.0,0.0,-0.2713,-0.2561,-0.2596,-0.2865,-0.3256,-0.3366,-0.3236,-0.3466,-0.3339,-0.2963,-0.2348,-0.1293,0.0,0.0,0.0,0.0,0.0,0.0,0.0,0.0,-0.1311,-0.3471,-0.4554,-0.5162,-0.5343,-0.5151,-0.4916,-0.4815,-0.528,-0.5212,-0.4836,-0.5053,-0.5555,-0.6125,-0.6349,-0.6573,-0.6763,-0.6803,-0.7258,-0.7801,-0.7991,-0.8316,-0.8628,-0.8737,-0.8655,-0.8567,-0.8682,-0.871,-0.8855,-0.9457,-1.0408,-1.1306,-1.1518,-1.3877,-1.5409,-1.3868,-1.4822,-1.5226,-1.3584,-1.6831,-1.9351,-1.9391,-1.448,-1.0997,-1.108,-1.0973,-1.0884,-1.1012,-1.0704,-1.0541,-1.0656,-1.0697,-1.0717,-1.0717,-1.0833,-1.0962,-1.1104,-1.1335,-1.1484,-1.1558,-1.1599,-1.1599,-1.1565,-1.1708,-1.1701,-1.1565,-1.1714,-1.1755,-1.1721,-1.1721,-1.1809,-1.1945,-1.1904,-1.1864,-1.1837,-1.1918,-1.1809,-1.1777,0.0,0.0,0.0,0.0,0.0,0.0,0.0,0.0,0.0,0.0,0.0,0.0,0.0,0.0,0.0,0.0,0.0,0.0,0.0,-0.2759,-0.2873,-0.3088,-0.3441,-0.3628,-0.3586,-0.3702,-0.3857,-0.4089,-0.3394,-0.2649,-0.1725,-0.096,-0.0558,-0.056,-0.0869,-0.0963,-0.0976,-0.0984,-0.1921,0.0,0.0,-0.4899,-0.5165,-0.5429,-0.5106,-0.4671,-0.5158,-0.5298,-0.5345,-0.5772,-0.6159,-0.6491,-0.6729,-0.6946,-0.7163,-0.736,-0.776,-0.818,-0.8377,-0.8567,-0.871,-0.871,-0.8547,-0.8391,-0.8411,-0.8667,-0.9034,-0.9283,-1.0501,-1.1478,-1.1534,-1.3549,-1.4961,-1.3924,-1.5127,-1.5943,-1.5429,-1.7681,-1.8302,-1.5525,-1.1963,-1.0005,-1.0426,-1.0371,-1.039,-1.0588,-1.0595,-1.0629,-1.0717,-1.0717,-1.0751,-1.0819,-1.09,-1.105,-1.126,-1.1497,-1.1619,-1.1619,-1.1619,-1.1619,-1.1626,-1.1769,-1.1823,-1.1823,0.0,-1.2033,-1.2033,-1.2033,-1.2081,-1.2155,-1.2088,-1.2047,-1.2033,-1.2054,-1.1959,-1.1962,0.0,0.0,0.0,0.0,0.0,0.0,0.0,0.0,0.0,0.0,0.0,-0.2706,-0.27,-0.27,0.0,0.0,0.0,0.0,0.0,0.0,-0.2937,-0.3059,-0.308,-0.3215,-0.3487,-0.342,-0.3597,-0.4041,-0.3723,-0.3708,-0.3806,-0.2325,-0.1555,-0.1504,-0.2005,-0.2342,-0.2357,-0.2393,-0.2369,-0.2545,-0.4255,-0.4888,-0.474,0.0,-0.4775,-0.4667,-0.4728,-0.5298,-0.6118,-0.6729,-0.6878,-0.6851,-0.7021,-0.7278,-0.7597,-0.7984,-0.8221,-0.8445,-0.8832,-0.8811,-0.8682,-0.8682,-0.8459,-0.8201,-0.8045,-0.8661,-0.9177,-0.8861,-1.0218,-1.1328,-1.109,-1.2441,-1.3613,-1.3706,-1.5256,-1.632,-1.6177,-1.8022,-1.7008,-1.0565,-0.9917,-1.0107,-1.0596,-1.05,-1.0561,-1.0711,-1.0717,-1.0717,-1.0717,-1.0738,-1.0826,-1.1002,-1.1009,-1.1138,-1.1416,-1.1552,-1.1619,-1.1619,-1.1619,-1.1633,-1.1653,-1.1796,-1.1945,-1.2101,-1.225,0.0,-1.2318,-1.2318,-1.2318,-1.2305,-1.2176,-1.2189,-1.2277,-1.2162,-1.2094,-1.2047,0.0,0.0,0.0,0.0,0.0,0.0,0.0,0.0,0.0,0.0,-0.1756,-0.2706,0.0,0.0,0.0,0.0,0.0,0.0,0.0,0.0,0.0,-0.2754,-0.2876,-0.2971,-0.3025,-0.3113,-0.3189,-0.3275,-0.3517,-0.3435,-0.3156,-0.3184,-0.2951,-0.2439,-0.2588,-0.2875,-0.334,-0.3338,-0.3447,-0.3639,-0.3942,-0.4289,-0.4571,-0.4579,-0.458,0.0,-0.4918,-0.5474,-0.6118,-0.6729,-0.7156,-0.7489,-0.776,-0.8052,-0.8303,-0.8384,-0.8601,-0.8838,-0.892,-0.8737,-0.852,-0.852,-0.8303,-0.8038,-0.7882,-0.8394,-0.9017,-0.9274,-1.015,-1.087,-1.1293,-1.2778,-1.4265,-1.4969,-1.651,-1.7353,-1.6343,-1.8109,-1.7028,-1.053,-1.0294,-1.0608,-1.0732,-1.0678,-1.0622,-1.0711,-1.0717,-1.0717,-1.0717,-1.0839,-1.1036,-1.1307,-1.1314,-1.1402,-1.1579,-1.1606,-1.1619,-1.1619,-1.1619,-1.1681,-1.1796,-1.1952,-1.2108,-1.2257,-1.2406,0.0,-1.2467,-1.2467,-1.2467,-1.2461,-1.2433,-1.2372,-1.2298,-1.2393,-1.2271,-1.2373,0.0,0.0,0.0,0.0,0.0,0.0,0.0,-0.059,-0.0663,-0.2548,-0.2874,-0.2839,-0.273,-0.2688,-0.2686,0.0,0.0,0.0,0.0,0.0,0.0,-0.2712,-0.2754,-0.2788,-0.2788,-0.2856,-0.2964,-0.3082,0.0,-0.3109,-0.3048,-0.3124,-0.2994,-0.2711,-0.2832,-0.306,-0.3358,-0.3602,-0.3792,-0.3977,-0.4036,-0.4227,-0.4519,-0.4519,-0.4558,0.0,-0.5026,-0.5569,-0.6207,-0.6566,-0.7095,-0.7651,-0.7943,-0.8241,-0.8479,-0.8479,-0.8696,-0.894,-0.894,-0.8771,-0.8581,-0.8499,-0.8316,-0.8038,-0.757,-0.8419,-0.9275,-0.899,-0.9963,-1.0866,-1.0943,-1.2425,-1.3814,-1.4389,-1.6353,-1.7334,-1.6156,-1.6446,-1.5782,-1.2662,-1.1366,-1.1449,-1.324,-1.1709,-1.0677,-1.0717,-1.0717,-1.0758,-1.0833,-1.1056,-1.1246,-1.1389,-1.147,-1.1545,-1.1619,-1.1619,-1.1619,-1.1619,-1.1694,-1.1769,-1.1837,-1.2074,-1.2223,-1.2298,-1.244,0.0,-1.2501,-1.2501,-1.2501,-1.2501,-1.2501,-1.2461,-1.2406,-1.2474,-1.2413,-1.2443,0.0,0.0,0.0,0.0,0.0,0.0,0.0,-0.1231,-0.1806,-0.5179,-0.4436,-0.3442,-0.3021,-0.2907,-0.2857,0.0,0.0,0.0,0.0,0.0,0.0,0.0,0.0,0.0,-0.2712,0.0,0.0,-0.3025,-0.2795,0.0,0.0,0.0,0.0,0.0,-0.2924,-0.3025,-0.3052,-0.3439,-0.371,0.0,0.0,-0.426,-0.4423,0.0,0.0,0.0,0.0,-0.5562,-0.6187,-0.6383,-0.6844,-0.7373,-0.7733,-0.814,-0.8479,-0.8479,-0.8696,-0.8933,-0.8899,-0.8777,-0.8628,-0.8472,-0.833,-0.8024,-0.7265,-0.8418,-0.9404,-0.8561,-0.9738,-1.0848,-1.0688,-1.185,-1.3026,-1.3641,-1.5297,-1.6302,-1.5292,-1.4877,-1.4407,-1.3793,-1.3216,-1.3475,-1.4688,-1.2297,-1.0704,-1.0717,-1.0778,-1.0867,-1.0989,-1.1246,-1.1409,-1.1436,-1.1558,-1.1619,-1.1619,-1.1619,-1.1619,-1.1619,-1.1762,-1.185,-1.1891,-1.2162,-1.2305,-1.2338,-1.2454,0.0,0.0,-1.2501,-1.2501,-1.2501,-1.2501,-1.2501,-1.2501,-1.2501,-1.2501,-1.2488,0.0,0.0,0.0,0.0,0.0,0.0,0.0,-0.1523,-0.3335,-0.5887,-0.5584,-0.4852,-0.3887,-0.3631,-0.3276,0.0,0.0,0.0,0.0,0.0,0.0,0.0,0.0,0.0,0.0,0.0,0.0,-0.272,-0.2726,0.0,0.0,0.0,0.0,0.0,0.0,-0.272,-0.2734,-0.291,0.0,0.0,0.0,0.0,0.0,0.0,0.0,0.0,0.0,-0.5452,-0.5617,-0.624,-0.643,-0.6485,-0.7048,-0.7801,-0.8479,-0.8479,-0.8696,-0.8906,-0.8771,-0.8621,-0.8465,-0.8323,-0.8174,-0.7862,-0.7115,-0.8154,-0.9113,-0.8344,-0.9545,-1.0675,-1.0915,-1.1303,-1.2131,-1.3774,-1.3698,-1.3414,-1.3495,-1.4104,-1.3674,-1.0996,-1.6308,-1.781,-1.1803,-1.0878,-1.0643,-1.0717,-1.0968,-1.1131,-1.1145,-1.1301,-1.1457,-1.1592,-1.1613,-1.1619,-1.1619,-1.1619,-1.1619,-1.1619,-1.1762,-1.1904,-1.2047,-1.2216,-1.2359,-1.2481,-1.2494,0.0,0.0,-1.2501,-1.2501,-1.2501,-1.2501,-1.2501,-1.2501,-1.2501,-1.2501,-1.2501,0.0,0.0,0.0,0.0,0.0,0.0,-0.1729,-0.1314,-0.2344,-0.5845,-0.5919,-0.5426,-0.4854,-0.431,-0.3629,-0.2788,0.0,0.0,0.0,0.0,0.0,0.0,0.0,0.0,0.0,0.0,-0.2727,-0.2815,-0.2815,0.0,0.0,0.0,0.0,0.0,0.0,-0.2862,-0.2951,-0.3012,0.0,0.0,0.0,0.0,0.0,0.0,0.0,0.0,0.0,0.0,-0.5542,-0.584,-0.6139,-0.643,-0.6661,-0.717,-0.7746,-0.8106,-0.8431,-0.8669,-0.8703,-0.8669,-0.856,-0.833,-0.8221,-0.8034,-0.7692,-0.847,-0.9203,-0.8904,-0.979,-1.0658,-1.0715,-1.0969,-1.157,-1.2812,-1.3387,-1.3464,-1.3062,-1.3922,-1.3502,-1.0377,-1.6619,-1.8324,-1.1381,-1.0643,-1.0724,-1.0846,-1.105,-1.1206,-1.1294,-1.1443,-1.1558,-1.1619,-1.1619,-1.1619,-1.1619,-1.1619,-1.1619,-1.1619,-1.1857,-1.1999,-1.2074,-1.2311,-1.2447,-1.2501,-1.2501,0.0,0.0,-1.2501,-1.2501,-1.2501,-1.2501,-1.2501,-1.2501,-1.2501,-1.2501,-1.2501,0.0,0.0,0.0,0.0,0.0,-0.2095,-0.2599,-0.1161,-0.1091,-0.4024,-0.4476,-0.4745,-0.5401,-0.4605,-0.3683,-0.2944,-0.2754,0.0,0.0,0.0,0.0,0.0,0.0,0.0,0.0,0.0,-0.2822,-0.2971,-0.3018,-0.3039,0.0,0.0,-0.3113,-0.2971,0.0,0.0,0.0,0.0,0.0,0.0,0.0,0.0,0.0,0.0,0.0,0.0,0.0,0.0,0.0,0.0,0.0,-0.6227,-0.6315,-0.6559,-0.6966,-0.7746,-0.8153,-0.8391,-0.8587,-0.8642,-0.8581,-0.833,-0.8201,-0.8174,-0.8013,-0.8611,-0.9261,-0.9308,-0.9983,-1.0618,-1.0618,-1.0728,-1.1156,-1.2024,-1.2635,-1.2974,-1.2825,-1.306,-1.2656,-1.0899,-1.5043,-1.6156,-1.1133,-1.0761,-1.0853,-1.1002,-1.1145,-1.1294,-1.145,-1.1558,-1.1619,-1.1619,-1.1619,-1.1619,-1.1619,-1.1619,-1.164,-1.1687,-1.1938,-1.2088,-1.2135,-1.2386,-1.2501,-1.2501,-1.2501,0.0,0.0,-1.2501,-1.2501,-1.2501,-1.2501,-1.2501,-1.2501,-1.2501,-1.2501,-1.2501,0.0,0.0,0.0,0.0,0.0,0.0,-0.241,-0.1168,-0.0,-0.0063,-0.0813,-0.2427,-0.5393,-0.4349,-0.3399,-0.3303,-0.2937,0.0,0.0,0.0,0.0,0.0,0.0,0.0,0.0,0.0,-0.2978,-0.3082,-0.331,-0.3344,-0.3303,-0.3344,-0.331,-0.3075,0.0,0.0,0.0,0.0,0.0,0.0,0.0,0.0,0.0,0.0,0.0,0.0,0.0,0.0,0.0,0.0,0.0,0.0,0.0,-0.6037,-0.6274,-0.7468,-0.7923,-0.8106,-0.8404,-0.8486,-0.8452,-0.8303,-0.8038,-0.7806,-0.795,-0.8577,-0.915,-0.9262,-0.9983,-1.0618,-1.0618,-1.0631,-1.0913,-1.173,-1.1095,-1.1044,-1.2768,-1.1444,-1.0852,-1.2555,-1.1661,-1.0763,-1.0723,-1.0918,-1.1009,-1.1151,-1.1301,0.0,-1.1606,-1.1619,-1.1619,-1.1619,-1.1619,-1.1619,-1.1619,-1.1619,-1.1687,-1.183,-1.1986,-1.2142,-1.2291,-1.2433,-1.2501,-1.2501,0.0,0.0,0.0,-1.2501,-1.2501,-1.2501,-1.2501,-1.2501,-1.2501,-1.2501,-1.2501,-1.2501,0.0,0.0,0.0,0.0,0.0,0.0,0.0,-0.0377,0.0,0.0,-0.0767,-0.1874,-0.3492,-0.3481,-0.3351,-0.3351,-0.2973,0.0,0.0,0.0,0.0,0.0,0.0,0.0,0.0,-0.2978,-0.3229,-0.3581,-0.3731,-0.386,-0.3912,-0.386,-0.3724,-0.3568,-0.3276,-0.329,0.0,0.0,0.0,0.0,0.0,0.0,0.0,0.0,0.0,0.0,0.0,0.0,0.0,0.0,0.0,0.0,0.0,0.0,0.0,-0.7651,-0.784,-0.7792,-0.854,-0.8445,-0.7936,-0.7584,-0.7428,-0.7531,-0.8453,-0.8826,-0.9194,-1.0027,-1.0428,-1.0618,-1.0618,-1.0618,-1.1049,-1.2545,-1.2544,-1.2257,-1.1977,-1.2824,-1.3871,-1.4691,-1.2043,-1.0283,-1.0704,-1.1024,-1.1145,-1.1151,-1.1307,-1.1457,-1.1613,-1.1619,-1.1619,-1.1619,-1.1619,-1.1619,-1.1619,-1.1714,-1.1789,-1.1837,-1.2094,-1.2244,-1.2298,-1.2433,-1.2501,0.0,0.0,0.0,0.0,-1.2501,-1.2501,-1.2501,-1.2501,-1.2501,-1.2501,-1.2501,-1.2501,-1.2501,0.0,0.0,0.0,0.0,0.0,0.0,0.0,0.0,0.0,0.0,-0.0755,-0.1666,-0.2591,-0.2922,-0.3168,-0.3379,-0.2973,0.0,0.0,0.0,0.0,0.0,0.0,0.0,-0.2903,-0.2998,-0.3344,-0.3961,-0.4056,-0.4187,-0.4442,-0.4402,-0.4185,-0.3866,-0.3622,-0.3541,0.0,0.0,0.0,0.0,0.0,0.0,-0.3812,0.0,0.0,0.0,0.0,0.0,0.0,0.0,0.0,0.0,0.0,0.0,0.0,0.0,-0.778,-0.719,-0.852,-0.8328,-0.767,-0.7743,-0.7358,-0.726,-0.8681,-0.8861,-0.898,-0.99,-1.0364,-1.0618,-1.0618,-1.0618,-1.0955,-1.2171,-1.2559,-1.2485,-1.1958,-1.2662,-1.3402,-1.3841,-1.1709,-1.035,-1.0622,-1.1015,-1.1207,-1.1158,-1.1355,-1.1518,-1.1613,-1.1619,-1.1619,-1.1619,-1.1619,-1.1619,-1.1619,-1.1762,-1.1864,-1.1925,-1.2169,-1.2318,-1.2372,-1.2461,-1.2501,0.0,0.0,0.0,0.0,-1.2501,-1.2501,-1.2501,-1.2501,-1.2501,-1.2501,-1.2501,-1.2501,-1.2501,0.0,0.0,0.0,0.0,0.0,0.0,0.0,0.0,0.0,0.0,-0.0745,-0.1666,-0.2585,-0.2716,-0.2884,-0.331,0.0,0.0,0.0,0.0,0.0,0.0,0.0,0.0,-0.2903,-0.2944,-0.3336,-0.4194,-0.4241,-0.4482,-0.4965,-0.4958,-0.4633,-0.4063,-0.3894,-0.3731,-0.3568,0.0,0.0,0.0,0.0,0.0,0.0,0.0,0.0,0.0,0.0,0.0,0.0,0.0,0.0,0.0,0.0,0.0,0.0,0.0,0.0,0.0,0.0,-0.8087,-0.7569,-0.8535,-0.7741,-0.7075,-0.8808,-0.8772,0.0,-0.9244,-1.0047,-1.0631,-1.0672,-1.0658,-1.0766,-1.1116,-1.1567,-1.2018,-1.2338,-1.1039,-1.0248,-1.0636,-1.0689,-1.0671,-1.076,-1.1049,-1.1165,-1.1179,-1.145,-1.1619,-1.1619,-1.1619,-1.1619,-1.1619,-1.1619,-1.1619,-1.1619,-1.1769,-1.1918,-1.206,-1.223,-1.2372,-1.2501,-1.2501,-1.2501,0.0,0.0,0.0,0.0,-1.2501,-1.2501,-1.2501,-1.2501,-1.2501,-1.2501,-1.2501,-1.2501,-1.2501,0.0,0.0,0.0,0.0,0.0,0.0,0.0,0.0,0.0,0.0,-0.0746,-0.1648,-0.2579,-0.2684,-0.2754,0.0,0.0,0.0,0.0,0.0,0.0,0.0,0.0,0.0,-0.2903,-0.3249,-0.3697,-0.4194,-0.4643,-0.5094,-0.5426,-0.5311,-0.4999,-0.4524,-0.426,-0.3934,-0.3581,-0.3541,0.0,0.0,0.0,0.0,0.0,0.0,0.0,0.0,-0.4579,-0.4938,0.0,0.0,0.0,0.0,0.0,0.0,0.0,0.0,-0.7351,-0.6288,-0.8295,0.0,-0.6901,-0.7821,-0.7224,-0.6972,0.0,-0.9048,-0.8769,-1.002,-1.0428,-1.0766,-1.1142,-1.0862,-1.1102,-1.2759,-1.233,-1.1878,-1.216,-1.0745,-0.9861,-1.0586,-1.0746,-1.0754,-1.0685,-1.1036,-1.1212,-1.1328,-1.1511,-1.1619,-1.1619,-1.1619,-1.1619,-1.1619,-1.1619,-1.1619,-1.1619,-1.1877,-1.2026,-1.2067,-1.2325,-1.2467,-1.2501,-1.2501,-1.2501,0.0,0.0,0.0,-1.2501,-1.2501,-1.2501,-1.2501,-1.2501,-1.2501,-1.2501,-1.2501,-1.2501,-1.2501,0.0,0.0,0.0,0.0,0.0,0.0,0.0,0.0,0.0,0.0,0.0,-0.1208,-0.2566,-0.2693,0.0,0.0,0.0,0.0,0.0,0.0,0.0,0.0,0.0,-0.2754,-0.2903,-0.3208,-0.369,-0.4348,-0.4676,-0.5125,-0.5684,-0.5679,-0.5359,-0.4775,-0.4267,-0.3866,-0.3575,-0.3507,-0.3514,-0.3575,-0.3543,0.0,0.0,0.0,0.0,0.0,-0.4518,-0.4911,0.0,-0.5698,-0.5901,-0.6017,0.0,0.0,0.0,0.0,-0.6826,-0.5978,-0.761,-0.7258,-0.6849,-0.832,-0.7459,-0.6874,-0.9134,-0.8964,-0.8507,-0.9274,-1.0034,-1.056,-1.0527,-1.0504,-1.0755,-1.1441,-1.1445,-1.167,-1.2238,-1.1002,-1.0203,-1.0699,-1.067,-1.0645,-1.0657,-1.1077,-1.1365,-1.1235,-1.1531,-1.1619,-1.1619,-1.1619,-1.1619,-1.1619,-1.1619,-1.1619,-1.1619,-1.1911,-1.206,-1.2067,-1.2359,-1.2501,-1.2501,-1.2501,-1.2501,0.0,0.0,0.0,-1.2501,-1.2501,-1.2501,-1.2501,-1.2501,-1.2501,-1.2501,-1.2501,-1.2501,-1.2656,0.0,0.0,0.0,0.0,0.0,0.0,0.0,0.0,0.0,0.0,0.0,0.0,0.0,0.0,0.0,0.0,0.0,0.0,0.0,0.0,0.0,0.0,-0.2712,-0.2774,-0.2971,-0.3093,-0.3588,-0.4519,-0.4526,-0.4977,-0.5761,-0.5943,-0.5637,-0.4952,-0.4124,-0.369,-0.3568,-0.3396,-0.3459,-0.3568,-0.3482,0.0,0.0,0.0,0.0,0.0,0.0,0.0,0.0,-0.5637,-0.5867,-0.5996,-0.5827,0.0,0.0,0.0,0.0,0.0,-0.6871,-0.6851,-0.6995,-0.8892,-0.7794,-0.6857,-0.8788,-0.8735,-0.8253,-0.8265,-0.9444,-1.0315,-0.9845,-0.9977,-1.0021,-0.9562,-1.0352,-1.1272,-1.1777,-1.1253,-1.0685,-1.0747,-1.0677,-1.0785,-1.0826,-1.1234,-1.1525,-1.1409,-1.1545,-1.1619,-1.1619,-1.1619,-1.1619,-1.1619,-1.1619,-1.1633,-1.1653,-1.1925,-1.2074,-1.2101,-1.2372,-1.2501,-1.2501,-1.2501,-1.2501,-1.2501,0.0,0.0,-1.2501,-1.2501,-1.2501,-1.2501,-1.2501,-1.2501,-1.2501,-1.2501,-1.2501,-1.2804,0.0,0.0,0.0,0.0,0.0,0.0,0.0,0.0,0.0,0.0,0.0,0.0,0.0,0.0,0.0,0.0,0.0,0.0,0.0,0.0,0.0,-0.2712,-0.2712,-0.2869,-0.3236,-0.3303,-0.3743,-0.4519,-0.4671,-0.4996,-0.547,-0.6032,-0.593,-0.5243,-0.4117,-0.3602,-0.3581,-0.3554,-0.3561,-0.3581,-0.3598,0.0,0.0,0.0,0.0,0.0,0.0,0.0,0.0,-0.5332,-0.5698,-0.5983,-0.5705,0.0,0.0,0.0,0.0,0.0,-0.7146,-0.7205,-0.695,-0.7542,-0.7079,-0.6913,-0.8522,-0.8814,-0.8796,-0.9198,-0.9585,-1.0077,-1.0875,-1.0094,-0.9698,-1.0953,-1.108,-1.0609,-0.9619,-1.0115,-1.069,-1.0704,-1.0711,-1.0967,-1.1386,-1.1572,-1.1566,-1.1565,-1.1606,-1.1619,-1.1619,-1.1619,-1.1619,-1.1619,-1.1619,-1.1681,-1.1796,-1.1972,-1.2128,-1.2257,-1.242,-1.2501,-1.2501,-1.2501,-1.2501,-1.2501,0.0,-1.2501,-1.2501,-1.2501,-1.2501,-1.2501,-1.2501,-1.2501,-1.2501,-1.2501,-1.2501,-1.3112,0.0,0.0,0.0,0.0,0.0,0.0,0.0,0.0,0.0,0.0,0.0,0.0,0.0,0.0,0.0,0.0,0.0,0.0,0.0,0.0,-0.2788,-0.3032,-0.3039,-0.3102,-0.3303,-0.3432,-0.3846,-0.4519,-0.4565,-0.5116,-0.6067,-0.6237,-0.604,-0.5542,-0.43,-0.3683,-0.3588,-0.3663,-0.3649,-0.3588,0.0,0.0,0.0,0.0,0.0,0.0,0.0,0.0,0.0,0.0,-0.5603,-0.5867,-0.5657,0.0,0.0,0.0,0.0,0.0,-0.6276,-0.64,-0.6496,-0.6847,-0.714,-0.7638,-0.9052,-0.9189,-0.8977,-0.8955,-0.9311,-0.9766,-0.9904,-0.9625,-0.9636,-1.0572,-1.0368,-1.0109,-0.9645,-1.0038,-1.034,-1.0649,-1.0697,-1.0974,-1.1558,-1.1586,-1.158,-1.1599,-1.1619,-1.1619,-1.1619,-1.1619,-1.1619,-1.1619,-1.1694,-1.1803,-1.1952,-1.2108,-1.2223,-1.2291,-1.2433,-1.2501,-1.2501,-1.2501,-1.2501,-1.2501,0.0,-1.2501,-1.2501,-1.2501,-1.2501,-1.2501,-1.2501,-1.2501,-1.2501,-1.2501,-1.3267,-1.4475,0.0,0.0,0.0,0.0,0.0,0.0,0.0,0.0,0.0,0.0,0.0,0.0,0.0,0.0,0.0,0.0,0.0,0.0,0.0,-0.2686,-0.2862,-0.3236,-0.3323,-0.3457,-0.3664,-0.3832,-0.4199,-0.483,-0.4842,-0.5467,-0.6813,-0.6464,-0.5988,-0.5438,-0.4246,-0.3705,-0.3701,-0.3717,-0.3697,-0.3636,0.0,0.0,0.0,0.0,0.0,0.0,0.0,0.0,0.0,0.0,0.0,0.0,0.0,0.0,0.0,-0.5528,-0.544,-0.5447,-0.5652,-0.5874,-0.6261,-0.6783,-0.7292,-0.7924,-0.9143,-0.9172,-0.8885,-0.8607,-0.9161,-0.9508,-0.9064,-0.9338,-0.9669,-1.006,-0.9875,-0.9797,-1.027,-1.0104,-1.0163,-1.0622,-1.0683,-1.0974,-1.142,-1.1586,-1.1573,-1.1599,-1.1619,-1.1619,-1.1619,-1.1619,-1.1619,-1.1619,-1.1755,-1.1904,-1.206,-1.221,-1.2305,-1.2338,-1.2447,-1.2501,-1.2501,-1.2501,-1.2501,-1.2501,-1.2501,-1.2501,-1.2501,-1.2501,-1.2501,-1.2501,-1.2501,-1.2501,-1.2501,-1.2501,-1.3714,-1.5845,0.0,0.0,0.0,0.0,0.0,0.0,0.0,0.0,0.0,0.0,0.0,0.0,0.0,0.0,0.0,0.0,0.0,0.0,0.0,-0.2686,-0.2815,-0.3088,-0.3412,-0.3955,-0.4789,-0.4816,-0.5182,-0.5915,-0.5737,-0.6219,-0.7038,-0.6572,-0.5704,-0.4554,-0.3597,-0.3462,-0.3941,-0.3715,-0.3663,-0.3778,-0.3785,0.0,0.0,0.0,0.0,0.0,0.0,0.0,0.0,0.0,0.0,0.0,0.0,0.0,-0.58,-0.5779,-0.5677,-0.5691,-0.624,-0.6417,-0.6614,-0.7353,-0.7054,-0.6837,-0.7911,-0.8434,-0.8812,-0.8997,-0.918,-0.9429,-0.9642,-0.9676,-0.9792,-1.0181,-1.0256,-1.0351,-1.0656,-1.0697,-1.0704,-1.0711,-1.0717,-1.0839,-1.1138,-1.1303,-1.1434,-1.1599,-1.1619,-1.1619,-1.1619,-1.1619,-1.1619,-1.1619,-1.1755,-1.1904,-1.206,-1.221,-1.2352,-1.2488,-1.2494,-1.2501,-1.2501,-1.2501,-1.2501,-1.2501,-1.2501,-1.2501,-1.2501,-1.2501,-1.2501,-1.2501,-1.2501,-1.2501,-1.2501,-1.2501,-1.3714,-1.5863,0.0,0.0,0.0,0.0,0.0,0.0,0.0,0.0,0.0,0.0,0.0,0.0,0.0,0.0,0.0,0.0,0.0,0.0,0.0,-0.2686,-0.2896,-0.3385,-0.3697,-0.4144,-0.4762,-0.5298,-0.5949,-0.6722,-0.7041,-0.6956,-0.6569,-0.6014,-0.527,-0.4488,-0.3729,-0.3754,-0.4293,-0.3966,-0.3988,-0.4199,-0.4111,-0.4016,0.0,0.0,0.0,0.0,0.0,0.0,0.0,0.0,-0.5148,-0.5488,-0.5406,-0.5644,-0.5908,-0.5725,-0.563,-0.5677,-0.6084,-0.6403,-0.6749,-0.7319,-0.7312,-0.7421,-0.8377,-0.88,-0.9086,-0.9269,-0.9327,-0.9377,-0.9565,-0.9655,-0.9863,-1.0222,-1.0283,-1.0385,-1.0677,-1.0717,-1.0717,-1.0717,-1.108,-1.1219,-1.1283,-1.1392,-1.1537,-1.1606,-1.1619,-1.1619,-1.1619,-1.1619,-1.1619,-1.1619,-1.185,-1.2006,-1.206,-1.2298,-1.2447,-1.2501,-1.2501,-1.2501,-1.2501,-1.2501,-1.2501,-1.2501,-1.2501,-1.2501,-1.2501,-1.2501,-1.2501,-1.2501,-1.2501,-1.2501,-1.2501,-1.2501,-1.2958,-1.4199,0.0,0.0,0.0,0.0,0.0,0.0,0.0,0.0,0.0,0.0,0.0,0.0,0.0,0.0,0.0,0.0,0.0,0.0,-0.2626,-0.2693,-0.291,-0.3412,-0.3724,-0.4138,-0.4738,-0.5277,-0.5983,-0.6865,-0.7563,-0.7366,-0.625,-0.569,-0.5083,-0.4487,-0.4254,-0.4284,-0.4477,-0.4254,-0.4273,-0.4498,-0.4253,-0.4093,0.0,0.0,0.0,0.0,0.0,0.0,0.0,0.0,-0.504,-0.5372,-0.5352,-0.5623,-0.5928,-0.5772,-0.5861,-0.6057,-0.6261,-0.6539,-0.6905,-0.7448,-0.7556,-0.7773,-0.8723,-0.894,-0.9049,-0.9442,-0.9449,-0.9408,-0.9503,-0.9605,-0.9815,-1.0215,-1.0276,-1.0385,-1.0677,-1.0717,-1.0717,-1.0717,-1.1135,-1.1424,-1.1289,-1.1447,-1.1598,-1.1606,-1.1619,-1.1619,-1.1619,-1.1619,-1.164,-1.1687,-1.1932,-1.2088,-1.2135,-1.2379,-1.2501,-1.2501,-1.2501,-1.2501,-1.2501,-1.2501,-1.2501,-1.2501,-1.2501,-1.2501,-1.2501,-1.2501,-1.2501,-1.2501,-1.2501,-1.2501,-1.2501,-1.2501,-1.2958,-1.4053,0.0,0.0,0.0,0.0,0.0,0.0,0.0,0.0,0.0,0.0,0.0,0.0,0.0,0.0,0.0,0.0,0.0,0.0,-0.256,-0.27,-0.2822,-0.3068,-0.3419,-0.3976,-0.4782,-0.4584,-0.5114,-0.6345,-0.7156,-0.7141,-0.6296,-0.5657,-0.5072,-0.4532,-0.5123,-0.5068,-0.452,-0.448,-0.4525,-0.4498,-0.4151,-0.4066,-0.418,0.0,0.0,0.0,0.0,0.0,0.0,0.0,-0.4918,-0.502,-0.561,-0.58,-0.5833,-0.5983,-0.6451,-0.6919,-0.6919,-0.6926,-0.7109,-0.7848,-0.7706,-0.7665,-0.8703,-0.871,-0.8743,-0.9639,-0.9591,-0.9476,-0.9768,-0.9585,-0.9578,-1.0049,-1.0149,-1.0385,-1.0677,-1.0717,-1.0717,-1.0717,-1.086,-1.1145,-1.1289,-1.1307,-1.1457,-1.1606,-1.1619,-1.1619,-1.1619,-1.1619,-1.1687,-1.1823,-1.1979,-1.2135,-1.2291,-1.2433,-1.2501,-1.2501,-1.2501,-1.2501,-1.2501,-1.2501,-1.2501,-1.2501,-1.2501,-1.2501,-1.2501,-1.2501,-1.2501,-1.2501,-1.2501,-1.2501,-1.2501,-1.2501,-1.3722,-1.5897,0.0,0.0,0.0,0.0,0.0,0.0,0.0,0.0,0.0,0.0,0.0,0.0,0.0,0.0,0.0,0.0,0.0,0.0,-0.0772,-0.1986,-0.2794,-0.3004,-0.3376,-0.3731,-0.3949,-0.4492,-0.5637,-0.7496,-0.7727,-0.737,-0.6296,-0.5667,-0.551,-0.5776,-0.6152,-0.599,-0.5353,-0.4972,-0.4904,-0.5143,-0.4877,-0.4701,-0.4565,0.0,0.0,0.0,0.0,0.0,0.0,0.0,0.0,0.0,-0.5243,-0.5549,-0.5813,-0.5854,-0.5996,-0.6159,-0.6268,-0.6837,-0.7428,-0.7543,-0.818,-0.8838,-0.9042,-0.9022,-0.9117,-0.97,-0.9747,-0.972,-0.9802,-0.9747,-0.9815,-1.0082,-1.0149,-1.0385,-1.0677,-1.0717,-1.0717,-1.0717,-1.0948,-1.1118,-1.1158,-1.1396,-1.1572,-1.1613,-1.1619,-1.1619,0.0,-1.1619,-1.1687,-1.1823,-1.1979,-1.2135,-1.2291,-1.2433,-1.2501,-1.2501,-1.2501,-1.2501,-1.2501,-1.2501,-1.2501,-1.2501,-1.2501,-1.2501,-1.2501,-1.2501,-1.2501,-1.2501,-1.2501,-1.2501,-1.2501,-1.2501,-1.3944,-1.6233,0.0,0.0,0.0,0.0,0.0,0.0,0.0,0.0,0.0,0.0,0.0,0.0,0.0,0.0,0.0,0.0,0.0,0.0,0.0,-0.1684,-0.2753,-0.2895,-0.3437,-0.3798,-0.3964,-0.4249,-0.5113,-0.6604,-0.7315,-0.7065,-0.5937,-0.5835,-0.6082,-0.6596,-0.6596,-0.62,-0.5596,-0.5339,-0.527,-0.5257,-0.5108,-0.4938,-0.4782,0.0,0.0,0.0,0.0,0.0,0.0,0.0,0.0,0.0,-0.4931,-0.5223,-0.5596,-0.5895,-0.6234,-0.66,-0.6987,-0.7604,-0.8167,-0.8309,-0.8777,-0.9245,-0.9388,-0.9415,-0.9496,-0.9768,-0.9774,-0.9754,-0.9808,-0.97,-0.9794,-0.9969,-1.0062,-1.0181,-1.0683,-1.0717,-1.0717,-1.0717,-1.0982,-1.1158,-1.1165,-1.1443,-1.1619,-1.1619,0.0,0.0,0.0,-1.1619,-1.1714,-1.1918,-1.2013,-1.2162,-1.2372,-1.2461,-1.2501,-1.2501,-1.2501,-1.2501,-1.2501,-1.2501,-1.2501,-1.2501,-1.2501,-1.2501,-1.2501,-1.2501,-1.2501,-1.2501,-1.2501,-1.2501,-1.2501,-1.2501,-1.4431,-1.739,0.0,0.0,0.0,0.0,0.0,0.0,0.0,0.0,0.0,0.0,0.0,0.0,0.0,0.0,0.0,0.0,0.0,0.0,0.0,-0.1533,-0.2564,-0.2808,-0.3577,-0.414,-0.4575,-0.3972,-0.3908,-0.4442,-0.6074,-0.6333,-0.5362,-0.603,-0.6642,-0.7148,-0.6595,-0.6059,-0.5464,-0.561,-0.544,-0.5101,-0.4999,-0.4938,-0.4884,-0.4762,0.0,0.0,0.0,0.0,0.0,0.0,0.0,0.0,-0.468,-0.4863,-0.5216,-0.5942,-0.6783,-0.7631,-0.8336,-0.8716,-0.9049,-0.9605,-0.9374,-0.9157,-0.97,-0.9822,-0.9822,-0.9822,-0.972,-0.9666,-0.9795,-0.9707,-0.9562,-0.9843,-0.9871,-1.0006,-1.0565,-1.0717,-1.0717,-1.0717,-1.0846,-1.102,-1.1165,-1.1443,-1.1619,0.0,0.0,0.0,0.0,-1.1619,-1.1755,-1.2054,-1.206,-1.2203,-1.2501,-1.2501,-1.2501,-1.2501,-1.2501,-1.2501,-1.2501,-1.2501,-1.2501,-1.2501,-1.2501,-1.2501,-1.2501,-1.2501,-1.2501,-1.2501,-1.2501,-1.2501,-1.2501,-1.2501,-1.5212,-1.9111,0.0,0.0,0.0,0.0,0.0,0.0,0.0,0.0,0.0,0.0,0.0,0.0,0.0,0.0,0.0,0.0,0.0,0.0,0.0,-0.0366,-0.1537,-0.3626,-0.3673,-0.4174,-0.5159,-0.4622,-0.4155,-0.3806,-0.462,-0.4937,-0.473,-0.5795,-0.6857,-0.7805,-0.7207,-0.6464,-0.5682,-0.5356,-0.5133,-0.4986,-0.5182,-0.5053,-0.4748,-0.4836,-0.4633,0.0,0.0,0.0,0.0,0.0,0.0,0.0,-0.4619,-0.4653,-0.4707,-0.5223,-0.5928,-0.6634,-0.7027,-0.7929,-0.8818,-0.9069,-0.9381,-0.9666,-0.9795,-0.9822,-0.9822,-0.9822,-0.9795,-0.9781,-0.9815,-0.9794,-0.981,-1.0122,-0.9999,-1.0006,-1.0565,-1.0717,-1.0717,-1.0717,-1.0982,-1.1165,-1.1165,-1.1443,0.0,0.0,0.0,0.0,-1.1619,-1.1619,-1.1755,-1.2054,-1.206,-1.2203,-1.2501,-1.2501,-1.2501,0.0,-1.2501,-1.2501,-1.2501,-1.2501,-1.2501,-1.2501,-1.2501,-1.2501,-1.2501,-1.2501,-1.2501,-1.2501,-1.2501,-1.2501,-1.2501,-1.2501,-1.5441,-1.9169,0.0,0.0,0.0,0.0,0.0,0.0,0.0,0.0,0.0,0.0,0.0,0.0,0.0,0.0,0.0,0.0,0.0,0.0,0.0,0.0,-0.0643,-0.2014,-0.3596,-0.4731,-0.5408,-0.5363,-0.4763,-0.3603,-0.3917,-0.4222,-0.4502,-0.5719,-0.6767,-0.7515,-0.7266,-0.6409,-0.5155,-0.4944,-0.4817,-0.4836,-0.5128,-0.5088,-0.4889,-0.4972,-0.4633,-0.408,-0.404,0.0,0.0,0.0,0.0,0.0,0.0,0.0,-0.4382,-0.5047,-0.5671,-0.6356,-0.7299,-0.8174,-0.8906,-0.9273,-0.9591,-0.9822,-0.9822,-0.9822,-0.9822,-0.9822,-0.9822,-0.9822,-0.9822,-0.9751,-0.9797,-1.0009,-1.0194,-1.0359,-1.0711,-1.0717,-1.0717,-1.0717,-1.1118,-1.1303,-1.1165,-1.1443,0.0,0.0,0.0,-1.1619,-1.1619,-1.1619,-1.1755,-1.2054,-1.206,-1.2203,-1.2501,-1.2501,-1.2501,-1.2501,-1.2501,-1.2501,-1.2501,-1.2501,-1.2501,-1.2501,-1.2501,-1.2501,-1.2501,-1.2501,-1.2501,-1.2501,-1.2501,-1.2501,-1.2501,-1.2501,-1.4851,-1.7826,0.0,0.0,0.0,0.0,0.0,0.0,0.0,0.0,0.0,0.0,0.0,0.0,0.0,0.0,0.0,0.0,0.0,0.0,0.0,0.0,0.0,0.0,-0.2896,-0.4741,-0.5374,-0.572,-0.5114,-0.3591,-0.3725,-0.4018,-0.4509,-0.5761,-0.6564,-0.6951,-0.6784,-0.5806,-0.4438,-0.444,-0.4522,-0.4599,-0.487,-0.4949,-0.4976,-0.5009,-0.4538,-0.3896,-0.3832,-0.3955,-0.4113,-0.4029,0.0,0.0,0.0,0.0,-0.4131,-0.4904,-0.5501,-0.6227,-0.7672,-0.8472,-0.9049,-0.9666,-0.9822,-0.9822,-0.9822,-0.9822,-0.9822,-0.9822,-0.9822,-0.9829,-0.9856,-0.983,-0.9767,-0.9787,-1.0273,-1.0717,-1.0717,-1.0717,-1.0731,-1.0758,-1.1138,-1.131,-1.1199,0.0,0.0,0.0,0.0,-1.1619,-1.1619,-1.164,-1.1782,-1.2054,-1.2088,-1.223,-1.2501,-1.2501,-1.2501,-1.2501,-1.2501,-1.2501,-1.2501,-1.2501,-1.2501,-1.2501,-1.2501,-1.2501,-1.2501,-1.2501,-1.2501,-1.2501,-1.2501,-1.2501,-1.2508,-1.2528,-1.4109,-1.6106,0.0,0.0,0.0,0.0,0.0,0.0,0.0,0.0,0.0,0.0,0.0,0.0,0.0,0.0,0.0,0.0,0.0,0.0,0.0,0.0,0.0,0.0,-0.0473,-0.2164,-0.5328,-0.4429,-0.3856,-0.3584,-0.4129,-0.4431,-0.4532,-0.5719,-0.6325,-0.635,-0.5346,-0.4556,-0.4094,-0.42,-0.4178,-0.4124,-0.446,-0.4481,-0.4344,-0.4485,-0.4333,-0.3912,-0.352,-0.3602,-0.3921,-0.3846,-0.4009,0.0,0.0,0.0,-0.3873,-0.4124,-0.4796,-0.5583,-0.6193,-0.7522,-0.8913,-0.9639,-0.9822,-0.9822,-0.9822,-0.9822,-0.9822,-0.9822,-0.9822,-0.9863,-0.9744,-0.9777,-0.9793,-0.978,-1.034,-1.0717,-1.0717,-1.0717,-1.0772,-1.1042,-1.12,-1.1212,0.0,0.0,0.0,0.0,-1.1619,-1.1619,-1.1619,-1.1735,-1.1884,-1.2054,-1.2189,-1.2338,-1.2501,-1.2501,-1.2501,-1.2501,-1.2501,-1.2501,-1.2501,-1.2501,-1.2501,-1.2501,-1.2501,-1.2501,-1.2501,-1.2501,-1.2501,-1.2501,-1.2501,-1.2501,-1.2515,-1.2651,-1.4207,-1.5964,0.0,0.0,0.0,0.0,0.0,0.0,0.0,0.0,0.0,0.0,0.0,0.0,0.0,0.0,0.0,0.0,0.0,0.0,0.0,0.0,0.0,0.0,0.0,-0.1228,-0.3798,-0.3345,-0.3084,-0.3106,-0.4038,-0.4487,-0.4517,-0.5712,-0.6264,-0.6263,-0.5377,-0.4797,-0.4451,-0.405,-0.3951,-0.4136,-0.4254,-0.4335,-0.4385,-0.4463,-0.4205,-0.3704,-0.3147,-0.3166,-0.3434,-0.3774,-0.388,-0.3853,-0.3717,0.0,0.0,0.0,-0.4294,-0.504,-0.641,-0.7726,-0.8886,-0.9632,-0.9822,-0.9822,-0.9822,-0.9822,-0.9822,-0.9822,-0.9822,-0.9747,-0.9771,-0.9916,-1.0189,-1.033,-1.0484,-1.0717,-1.0717,-1.0717,-1.0778,-1.1212,-1.1214,0.0,0.0,0.0,0.0,0.0,-1.1619,-1.1619,-1.1619,-1.1755,-1.1904,-1.2054,-1.221,-1.2359,-1.2501,-1.2501,-1.2501,-1.2501,-1.2501,-1.2501,-1.2501,-1.2501,-1.2501,-1.2501,-1.2501,-1.2501,-1.2501,-1.2501,-1.2501,-1.2501,-1.2501,-1.2501,-1.2522,-1.2671,-1.3454,-1.4244,0.0,0.0,0.0,0.0,0.0,0.0,0.0,0.0,0.0,0.0,0.0,0.0,0.0,0.0,0.0,0.0,0.0,0.0,0.0,0.0,0.0,0.0,0.0,-0.0618,-0.1969,-0.2478,-0.2712,-0.2712,-0.377,-0.4298,-0.4308,-0.5696,-0.6268,-0.6311,-0.583,-0.4868,-0.3556,-0.3693,-0.3853,-0.4026,-0.4036,-0.4129,-0.4376,-0.5081,-0.4628,-0.35,-0.2932,-0.2829,-0.3076,-0.3533,-0.3673,-0.3676,-0.3602,-0.3602,0.0,0.0,0.0,-0.4542,-0.6464,-0.7516,-0.8323,-0.9293,-0.9571,-0.9639,-0.9788,-0.9822,-0.9822,-0.9822,-0.9822,-0.9754,-0.9817,-1.0069,-1.0344,-1.0651,-1.0649,-1.0717,-1.0717,-1.0717,-1.0792,-1.1125,-1.1234,0.0,0.0,0.0,0.0,0.0,-1.1619,-1.1633,-1.1674,-1.1809,-1.1959,-1.2115,-1.2264,-1.2393,-1.2501,-1.2501,-1.2501,-1.2501,-1.2501,-1.2501,-1.2501,-1.2501,-1.2501,-1.2501,-1.2501,-1.2501,-1.2501,-1.2501,-1.2501,-1.2501,-1.2501,-1.2501,-1.2522,-1.2718,-1.2861,-1.299,0.0,0.0,0.0,0.0,0.0,0.0,0.0,0.0,0.0,0.0,0.0,0.0,0.0,0.0,0.0,0.0,0.0,0.0,0.0,0.0,0.0,0.0,0.0,0.0,-0.0139,-0.1827,-0.2712,-0.2712,-0.3317,-0.3638,-0.3675,-0.5461,-0.6288,-0.6338,-0.6295,-0.4026,-0.0446,-0.3025,-0.3948,-0.3626,-0.3638,-0.3646,-0.3965,-0.6765,-0.6058,-0.35,-0.2932,-0.2869,-0.31,-0.3063,-0.3446,-0.3948,-0.367,-0.367,-0.3758,0.0,0.0,0.0,-0.5549,-0.6132,-0.677,-0.837,-0.8879,-0.913,-0.9693,-0.9822,-0.9822,-0.9822,-0.9822,-0.9787,-0.9823,-1.0015,-1.0371,-1.0663,-1.0717,-1.0717,-1.0717,-1.0717,-1.0826,-1.1118,0.0,0.0,0.0,0.0,0.0,0.0,-1.1619,-1.1681,-1.1816,-1.1965,-1.2121,-1.2271,-1.242,-1.2494,-1.2501,-1.2501,-1.2501,-1.2501,-1.2501,-1.2501,-1.2501,-1.2501,-1.2501,-1.2501,-1.2501,-1.2501,-1.2501,-1.2501,-1.2501,-1.2501,-1.2501,-1.2501,-1.2542,-1.284,-1.2956,-1.3003,0.0,0.0,0.0,0.0,0.0,0.0,0.0,0.0,0.0,0.0,0.0,0.0,0.0,0.0,0.0,0.0,0.0,0.0,0.0,0.0,0.0,0.0,0.0,0.0,0.0,-0.0636,-0.0971,-0.0971,-0.2748,-0.3805,-0.4179,-0.561,-0.6313,-0.6179,-0.347,-0.218,-0.1946,-0.1624,-0.2559,-0.4146,-0.3758,-0.2693,-0.1803,-0.6687,-0.7918,-0.6993,-0.6776,-0.5284,-0.3454,-0.3594,-0.3623,-0.3548,-0.3575,-0.3548,-0.3457,-0.3403,-0.3731,-0.4287,-0.5148,-0.5806,-0.6519,-0.7584,-0.8323,-0.8872,-0.9184,-0.9551,-0.9822,-0.9822,-0.9774,-0.9777,-0.9849,-0.9888,-1.0115,-1.067,-1.0717,-1.0717,-1.0717,-1.0672,-1.0799,-1.1138,0.0,0.0,0.0,0.0,0.0,0.0,0.0,-1.1681,-1.1823,-1.1979,-1.2135,-1.2284,-1.2427,-1.2501,-1.2501,-1.2501,-1.2501,-1.2501,-1.2501,-1.2501,-1.2501,-1.2501,-1.2501,-1.2501,-1.2501,-1.2501,-1.2501,-1.2501,-1.2501,-1.2501,-1.2501,-1.2562,-1.2671,-1.2881,-1.3017,-1.3125,0.0,0.0,0.0,0.0,0.0,0.0,0.0,0.0,0.0,0.0,0.0,0.0,0.0,0.0,0.0,0.0,0.0,0.0,0.0,0.0,0.0,0.0,0.0,0.0,0.0,0.0,0.0,-0.0,-0.1616,-0.3021,-0.4204,-0.5638,-0.556,-0.4053,-0.1238,-0.08,-0.1967,-0.0561,-0.1176,-0.302,-0.3445,-0.2136,-0.0618,-0.6636,-0.894,-0.894,-0.894,-0.7407,-0.5223,-0.4435,-0.4165,-0.4161,-0.371,-0.3507,-0.3376,-0.3323,-0.3658,-0.414,-0.464,-0.5237,-0.5962,-0.6912,-0.7597,-0.8221,-0.8927,-0.9313,-0.9578,-0.9781,-0.9814,-0.9843,-0.9989,-1.0055,-1.0168,-1.0677,-1.0717,-1.0717,-1.0717,-1.0853,-1.1138,0.0,0.0,0.0,0.0,0.0,0.0,0.0,0.0,0.0,-1.1898,-1.2006,-1.2155,-1.2352,-1.2454,-1.2501,-1.2501,-1.2501,-1.2501,-1.2501,-1.2501,-1.2501,-1.2501,-1.2501,-1.2501,-1.2501,-1.2501,-1.2501,-1.2501,-1.2501,-1.2501,-1.2501,-1.2501,-1.2596,-1.2752,-1.2901,-1.3051,-1.3193,0.0,0.0,0.0,0.0,0.0,0.0,0.0,0.0034,0.0101,0.0135,0.0,0.0,0.0,0.0,0.0,0.0,0.0,0.0,0.0,0.0,0.0,0.0,0.0,0.0,0.0,0.0,0.0,0.0,0.0,-0.1193,-0.3534,-0.5303,-0.3903,0.0,0.0,0.0,0.0,0.0,0.0,-0.019,-0.2559,-0.2093,-0.064,-0.6535,-0.8872,-0.8886,-0.8866,-0.8893,-0.8499,-0.5596,-0.5315,-0.5739,-0.4111,-0.3588,-0.3548,-0.3356,-0.3561,-0.3832,0.0,0.0,0.0,-0.6315,-0.6661,-0.7143,-0.8899,-0.9096,-0.9069,-0.968,-0.9794,-0.9955,-1.0256,-1.0534,-1.0685,-1.0697,-1.0717,-1.0717,-1.0717,-1.127,-1.1575,0.0,0.0,0.0,0.0,0.0,0.0,0.0,-1.1619,-1.1748,-1.2047,-1.2074,-1.2203,-1.2494,-1.2501,-1.2501,-1.2501,-1.2501,-1.2501,-1.2501,-1.2501,-1.2501,-1.2501,-1.2501,-1.2501,-1.2501,-1.2501,-1.2501,-1.2501,-1.2501,-1.2501,-1.2501,-1.2501,-1.2596,-1.2752,-1.2908,-1.3057,-1.32,0.0,0.0,0.0,0.0,0.0,0.0,0.0,0.1106,0.2281,0.0,0.0,0.0,0.0,0.0,0.0,0.0,0.0,0.0,0.0,0.0,0.0,0.0,0.0,0.0,0.0,0.0,0.0,0.0,0.0,-0.0331,-0.0986,-0.1529,-0.1141,0.0,0.0,0.0,0.0,0.0,0.0,-0.0064,-0.072,-0.06,-0.0512,-0.5261,-0.7265,-0.7584,-0.7156,-0.7834,-0.8886,-0.8414,-0.7984,-0.7048,-0.4653,-0.3751,-0.3548,-0.3398,-0.3636,-0.3941,-0.3873,0.0,0.0,0.0,0.0,0.0,-0.7251,-0.7719,-0.8337,-0.9497,-0.9821,-0.9988,-1.0458,-1.0692,-1.067,-1.0711,-1.0717,-1.0717,-1.0717,-1.1219,0.0,0.0,0.0,0.0,0.0,0.0,0.0,0.0,-1.1619,-1.1748,-1.2047,-1.2264,-1.242,-1.2501,-1.2501,-1.2501,-1.2501,-1.2501,-1.2501,-1.2501,-1.2501,-1.2501,-1.2501,-1.2501,-1.2501,-1.2501,-1.2501,-1.2501,-1.2501,-1.2501,-1.2501,-1.2501,-1.2501,-1.2664,-1.2901,-1.2942,-1.3119,-1.3342,0.0,0.0,0.2864,0.3031,0.2277,0.1528,0.1176,0.1899,0.2788,0.0,0.0,0.0,0.0126,0.0,0.0,0.0,0.0,0.0,0.0,0.0,0.0,0.0,0.0,0.0,0.0,0.0,0.0,0.0,0.0,0.0,0.0,0.0,0.0,0.0,0.0,0.0,0.0,0.0,0.0,0.0,0.0,0.0,-0.0568,-0.5466,-0.7746,-0.7801,-0.472,-0.4316,-0.5268,-0.5604,-0.633,-0.6786,-0.5323,-0.4432,-0.3928,-0.3591,-0.3853,-0.4253,-0.4036,-0.4375,-0.4816,-0.4938,0.0,0.0,-0.7027,-0.7482,-0.8137,-0.9624,-1.0017,-1.0162,-1.0534,-1.0616,-1.0717,-1.0717,-1.0717,-1.0717,-1.0717,-1.0975,0.0,0.0,0.0,0.0,0.0,-1.1619,-1.1619,-1.1619,-1.1619,-1.1748,-1.2047,-1.2338,-1.2501,-1.2501,-1.2501,-1.2501,-1.2501,-1.2501,-1.2501,-1.2501,-1.2501,-1.2501,-1.2501,-1.2501,-1.2501,-1.2501,-1.2501,-1.2501,-1.2501,-1.2501,-1.2501,-1.2501,-1.2501,-1.2691,-1.2963,-1.2963,-1.3146,-1.3403,0.0,0.0,0.3076,0.3531,0.3844,0.3762,0.3049,0.2699,0.2622,0.0,0.388,0.334,0.0353,0.0,0.0,0.0,0.0,0.0,0.0,0.0,0.0,0.0,0.0,0.0,0.0,0.0,0.0,0.0,0.0,0.0,0.0,0.0,0.0,0.0,0.0,0.0,0.0,0.0,0.0,0.0,0.0,0.0,-0.0603,-0.594,-0.8188,-0.7978,-0.2093,-0.037,-0.074,-0.0244,-0.2283,-0.523,-0.5755,-0.539,-0.4542,-0.3887,-0.4219,-0.4741,-0.4354,-0.4569,-0.5006,-0.527,-0.5425,0.0,-0.738,-0.7672,-0.8018,-0.9435,-0.9971,-1.0149,-1.0229,-1.0392,-1.0493,-1.0473,-1.0555,-1.0649,-1.0711,0.0,0.0,0.0,0.0,0.0,-1.1619,-1.1619,-1.1619,-1.1619,-1.1647,-1.1782,-1.2047,-1.2338,-1.2501,-1.2501,-1.2501,-1.2501,-1.2501,-1.2501,-1.2501,-1.2501,-1.2501,-1.2501,-1.2501,-1.2501,-1.2501,-1.2501,-1.2501,-1.2501,-1.2501,-1.2501,-1.2501,-1.2501,-1.2501,-1.2691,-1.2963,-1.2963,-1.3146,-1.3403,0.2842,0.2978,0.3215,0.3681,0.4262,0.4636,0.465,0.4415,0.4511,0.503,0.4752,0.3329,0.0314,0.0,0.0,0.0,0.0,0.0,0.0,0.0,0.0,0.0,0.0,0.0,0.0,0.0,0.0,0.0,0.0,0.0,0.0,0.0,0.0,0.0,0.0,0.0,0.0,0.0,0.0,0.0,0.0,0.0,-0.0105,-0.1281,-0.1829,-0.1725,-0.0494,-0.2719,-0.5762,-0.148,-0.0533,-0.1671,-0.4768,-0.575,-0.5561,-0.4598,-0.4904,-0.5467,-0.4931,-0.4931,-0.5101,-0.5162,-0.5365,0.0,-0.5833,-0.6139,-0.6634,-0.7716,-0.8035,-0.8341,-0.8757,-0.9113,-0.9174,-0.894,-0.9891,-1.0685,-1.0656,0.0,0.0,0.0,0.0,0.0,-1.1606,-1.1619,-1.1619,-1.1619,-1.1843,-1.1999,-1.206,-1.2338,-1.2501,-1.2501,-1.2501,-1.2501,-1.2501,-1.2501,-1.2501,-1.2501,-1.2501,-1.2501,-1.2501,-1.2501,-1.2501,-1.2501,-1.2501,-1.2501,-1.2501,-1.2501,-1.2501,-1.2501,-1.2501,-1.2691,-1.2963,-1.2963,-1.3146,-1.3403,0.291,0.3202,0.3595,0.405,0.4608,0.5061,0.5396,0.5389,0.5396,0.5697,0.5501,0.4683,0.2876,0.2954,0.3025,0.269,0.1021,0.0,0.0,0.0,0.0,0.0,0.0,0.0,0.0,0.0,0.0,0.0,0.0,0.0,0.0,0.0,0.0,0.0,0.0,0.0,0.0,0.0,0.0,0.0,0.0,0.0,0.0,0.0,0.0,0.0,0.0,-0.173,-0.3564,-0.094,-0.0772,-0.2138,-0.4438,-0.5554,-0.5873,-0.5239,-0.5291,-0.5501,-0.5128,-0.5189,-0.5359,-0.5359,-0.5474,0.0,0.0,-0.6146,-0.6505,-0.7499,-0.7629,-0.7787,-0.8357,-0.8425,-0.8425,-0.8355,-0.9225,-1.0116,-1.0579,-1.0746,0.0,0.0,0.0,0.0,-1.1606,-1.1619,-1.1619,-1.1619,-1.1891,-1.206,-1.206,-1.2338,-1.2501,-1.2501,-1.2501,-1.2501,-1.2501,-1.2501,-1.2501,-1.2501,-1.2501,-1.2501,-1.2501,-1.2501,-1.2501,-1.2501,-1.2501,-1.2501,-1.2501,-1.2501,-1.2501,-1.2508,-1.2583,-1.2759,-1.2969,-1.3044,-1.3207,-1.3403,0.2937,0.3364,0.3894,0.4341,0.4836,0.5304,0.5698,0.5786,0.5766,0.5727,0.6044,0.5973,0.5092,0.5018,0.4908,0.4422,0.1714,0.0,0.0,0.0,0.0,0.0,0.0,0.0,0.0,0.0,0.0,0.0,0.0,0.0,0.0,0.0,0.0,0.0,0.0,0.0,0.0,0.0,0.0,0.0,0.0,0.0,0.0,0.0,0.0,0.0,0.0,0.0,0.0,0.0,-0.1267,-0.3132,-0.4572,-0.5742,-0.6532,-0.5901,-0.5793,-0.5806,-0.5481,-0.5589,-0.5786,-0.5698,-0.5739,-0.5915,0.0,0.0,0.0,-0.7407,-0.74,-0.74,-0.7875,-0.7821,0.0,0.0,0.0,0.0,0.0,-1.0095,0.0,0.0,0.0,0.0,0.0,-1.1275,-1.1315,-1.1606,-1.1762,-1.1911,-1.2054,-1.2338,-1.2501,-1.2501,-1.2501,-1.2501,-1.2501,-1.2501,-1.2501,-1.2501,-1.2501,-1.2501,-1.2501,-1.2501,-1.2501,-1.2501,-1.2501,-1.2501,-1.2501,-1.2501,-1.2501,-1.2515,-1.2671,-1.2827,-1.2976,-1.3119,-1.3268,-1.3403,0.2937,0.3283,0.3744,0.414,0.4863,0.5399,0.5583,0.5718,0.5793,0.5779,0.6098,0.5567,0.3615,0.1789,0.068,0.0612,0.0245,0.0,0.0,0.0,0.0,0.0,0.0,0.0,0.0,0.0,0.0,0.0,0.0,0.0,0.0,0.0,0.0,0.0,0.0,0.0,0.0,0.0,0.0,0.0,0.0,0.0,0.0,0.0,0.0,0.0,0.0,0.0,0.0,0.0,-0.0122,-0.1184,-0.5461,-0.7824,-0.8662,-0.677,-0.6919,-0.7529,-0.658,-0.6444,-0.6478,-0.6078,-0.6281,-0.639,-0.5677,0.0,-0.6037,-0.5901,0.0,-0.6023,-0.6091,0.0,0.0,0.0,0.0,0.0,-0.8175,-0.7833,-0.8307,-1.0509,0.0,0.0,0.0,0.0,-1.02,-1.1565,-1.128,-1.1362,-1.2026,-1.2338,-1.2501,-1.2501,-1.2501,-1.2501,-1.2501,-1.2501,-1.2501,-1.2501,-1.2501,-1.2501,-1.2501,-1.2501,-1.2501,-1.2501,-1.2501,-1.2501,-1.2501,-1.2501,-1.2501,-1.2515,-1.2671,-1.2827,-1.2976,-1.3119,-1.3268,-1.3403,0.2903,0.3405,0.3866,0.3968,0.4606,0.5148,0.5264,0.5576,0.5867,0.6044,0.6179,0.5944,0.5079,0.4808,0.467,0.4679,0.4675,0.4613,0.4615,0.1724,0.0,0.0,0.0,0.0,0.0,0.0,0.0,0.0,0.0,0.0,0.0,0.0,0.0,0.0,0.0,0.0,0.0,0.0,0.0,0.0,0.0,0.0,0.0,0.0,0.0,0.0,0.0,0.0,0.0,0.0,0.0,0.0,-0.5554,-0.7539,-0.7992,-0.7746,-0.7584,-0.7346,-0.6559,-0.6647,-0.6831,-0.6295,-0.6437,-0.6512,-0.5779,-0.563,-0.563,-0.5596,0.0,0.0,0.0,0.0,0.0,0.0,-0.6728,0.0,0.0,0.0,-0.8412,0.0,0.0,0.0,0.0,0.0,0.0,0.0,0.0,-1.1559,-1.2175,-1.2345,-1.2501,-1.2501,-1.2501,-1.2501,-1.2501,-1.2501,-1.2501,-1.2501,-1.2501,-1.2501,-1.2501,-1.2501,-1.2501,-1.2501,-1.2501,-1.2501,-1.2501,-1.2501,-1.2501,-1.2515,-1.2671,-1.2827,-1.2976,-1.3119,-1.3268,-1.3403,0.2937,0.3439,0.3812,0.3744,0.4368,0.4992,0.5404,0.5623,0.5915,0.622,0.6338,0.6338,0.6338,0.7177,0.7794,0.7794,0.7943,0.8113,0.8275,0.31,0.0,0.0,0.0,0.0,0.0,0.0,0.0,0.0,0.0,0.0,0.0,0.0,0.0,0.0,0.0,0.0,0.0,0.0,0.0,0.0,0.0,0.0,0.0,0.0,0.0,0.0,0.0,0.0,0.0,0.0,0.0,0.0,-0.4083,-0.5118,-0.5565,-0.7833,-0.8113,-0.7563,-0.6871,-0.7061,-0.7258,-0.6458,-0.6451,-0.6471,-0.5827,-0.561,-0.5555,-0.5583,-0.5508,0.0,0.0,0.0,-0.5867,-0.6152,0.0,-0.7048,0.0,-0.7171,-0.8099,0.0,0.0,0.0,0.0,0.0,0.0,0.0,0.0,0.0,-1.2162,-1.2457,-1.2461,-1.2501,-1.2501,-1.2501,-1.2501,-1.2501,-1.2501,-1.2501,-1.2501,-1.2501,-1.2501,-1.2501,-1.2501,-1.2501,-1.2501,-1.2501,-1.2501,-1.2501,-1.2501,-1.2515,-1.2623,-1.2786,-1.2976,-1.3119,-1.3268,-1.3403,0.3086,0.3209,0.3376,0.3561,0.4292,0.5157,0.6146,0.5983,0.5915,0.622,0.6338,0.6338,0.6338,0.6803,0.717,0.717,0.7706,0.8289,0.8872,0.3323,0.0,0.0,0.0,0.0,0.0,0.0,0.0,0.0,0.0,0.0,0.0,0.0,0.0,0.0,0.0,0.0,0.0,0.0,0.0,0.0,0.0,0.0,0.0,0.0,0.0,0.0,0.0,0.0,0.0,0.0,0.0,0.0,0.0,0.0,0.0,-0.65,-0.8587,-0.8967,-0.8018,0.0,-0.7916,-0.6593,-0.6369,-0.6288,-0.561,-0.5705,-0.5928,-0.565,-0.5928,-0.6179,-0.6051,-0.6139,-0.6193,-0.6057,-0.6424,0.0,0.0,-0.651,-0.6702,-0.6789,0.0,0.0,0.0,0.0,0.0,0.0,0.0,0.0,-1.2127,-1.2368,-1.2519,-1.2501,-1.2501,-1.2501,-1.2501,-1.2501,-1.2501,-1.2501,-1.2501,-1.2501,-1.2501,-1.2501,-1.2501,-1.2501,-1.2501,-1.2501,-1.2501,-1.2501,-1.2501,-1.2501,-1.2508,-1.2691,-1.2976,-1.3119,-1.3268,-1.3403,0.3222,0.3398,0.3432,0.3222,0.3887,0.458,0.5061,0.5657,0.6146,0.6247,0.6338,0.6338,0.6338,0.7143,0.7896,0.8296,0.852,0.8723,0.8927,0.7053,0.5196,0.3658,0.5078,0.4046,0.0064,0.0,0.0,0.0,0.0,0.0,0.0,0.0,0.0,0.0,0.0,0.0,0.0,0.0,0.0,0.0,0.0,0.0,0.0,0.0,0.0,0.0,0.0,0.0,0.0,0.0,0.0,0.0,0.0,0.0,-0.0367,-0.2224,-0.5983,0.0,0.0,0.0,-0.8066,-0.7389,0.0,0.0,-0.5915,-0.5847,-0.5942,-0.565,-0.5949,-0.6213,-0.6057,-0.6159,-0.624,-0.6193,-0.639,-0.6485,0.0,-0.6462,0.0,0.0,0.0,0.0,0.0,0.0,0.0,0.0,0.0,0.0,0.0,-1.2264,-1.2512,-1.2494,-1.2501,-1.2501,-1.2501,-1.2501,-1.2501,-1.2501,-1.2501,-1.2501,-1.2501,-1.2501,-1.2501,-1.2501,-1.2501,-1.2501,-1.2501,-1.2501,-1.2501,-1.2515,-1.2617,-1.2779,-1.2969,-1.3017,-1.3186,-1.3403,0.3544,0.3643,0.3602,0.3344,0.4065,0.4766,0.5109,0.583,0.6338,0.6338,0.6817,0.7217,0.7217,0.7896,0.8513,0.8906,0.894,0.894,0.894,0.894,0.7963,0.5851,0.7773,0.6825,0.2366,0.0766,0.0,0.0,0.0,0.0,0.0,0.0,0.0,0.0,0.0,0.0,0.0,0.0,0.0,0.0,0.0,0.0,0.0,0.0,0.0,0.0,0.0,0.0,0.0,0.0,0.0,0.0,0.0,0.0,0.0,0.0,-0.2966,-0.6485,-0.7593,-0.8436,0.0,-0.8392,-0.8195,0.0,-0.6485,0.0,-0.6505,-0.62,-0.6288,-0.6532,-0.6912,-0.6627,-0.6424,-0.6695,-0.6586,-0.6424,0.0,-0.6342,0.0,0.0,0.0,0.0,0.0,0.0,0.0,0.0,0.0,0.0,0.0,0.0,-1.2512,-1.2494,-1.2501,-1.2501,-1.2501,-1.2501,-1.2501,-1.2501,-1.2501,-1.2501,-1.2501,-1.2501,-1.2501,-1.2501,-1.2501,-1.2501,-1.2501,-1.2501,-1.2535,-1.2589,-1.2691,-1.2854,-1.3037,-1.3037,-1.3193,-1.3403,0.4029,0.3968,0.3921,0.3948,0.4793,0.5631,0.6242,0.6338,0.6295,0.6383,0.7882,0.894,0.894,0.894,0.894,0.894,0.894,0.894,0.894,0.8859,0.8085,0.6464,0.8024,0.8153,0.6471,0.2572,0.0416,0.034,0.0121,0.0,0.0,0.0,0.0,0.0,0.0,0.0,0.0,0.0,0.0,0.0,0.0,0.0,0.0,0.0,0.0,0.0,0.0,0.0,0.0,0.0,0.0,0.0,0.0,0.0,0.0,0.0,0.0,-0.067,-0.3811,-0.7403,-1.0128,-0.9683,0.0,0.0,0.0,0.0,-0.757,-0.7258,-0.6993,-0.719,-0.8431,-0.7489,-0.6749,-0.7434,-0.6932,-0.6417,-0.6281,-0.6338,-0.6322,0.0,0.0,0.0,0.0,0.0,0.0,0.0,0.0,0.0,0.0,0.0,-1.2471,-1.2508,-1.2508,-1.2501,-1.2501,-1.2501,-1.2501,-1.2501,-1.2501,-1.2501,-1.2501,-1.2501,-1.2501,-1.2501,-1.2501,-1.2501,-1.2501,-1.2501,-1.2589,-1.2732,-1.2739,-1.2922,-1.3186,-1.3186,-1.3275,-1.3403,0.416,0.426,0.4512,0.4965,0.5253,0.5631,0.6242,0.6338,0.6742,0.8079,0.8655,0.894,0.894,0.894,0.894,0.894,0.894,0.894,0.894,0.7692,0.7339,0.8214,0.8689,0.8927,0.8906,0.7877,0.6435,0.4672,0.1563,0.0,0.0,0.0,0.0,0.0,0.0,0.0,0.0,0.0,0.0,0.0,0.0,0.0,0.0,0.0,0.0,0.0,0.0,0.0,0.0,0.0,0.0,0.0,0.0,0.0,0.0,0.0,0.0,-0.0134,-0.107,-0.2008,-0.3988,-0.91,-1.028,-0.9917,0.0,0.0,0.0,0.0,0.0,0.0,0.0,0.0,0.0,-0.6824,-0.6512,-0.6302,-0.6345,0.0,0.0,-0.677,0.0,0.0,0.0,0.0,0.0,0.0,0.0,0.0,0.0,0.0,0.0,-1.2481,-1.2562,-1.2501,-1.2501,-1.2501,-1.2501,-1.2501,-1.2501,-1.2501,-1.2501,-1.2501,-1.2501,-1.2501,-1.2501,-1.2501,-1.2501,-1.2501,-1.2589,-1.2739,-1.2854,-1.3085,-1.3342,-1.3342,-1.337,-1.3403,0.4969,0.4729,0.4793,0.5672,0.6078,0.6349,0.6383,0.6393,0.6905,0.8703,0.894,0.894,0.894,0.894,0.894,0.894,0.894,0.894,0.894,0.8235,0.8269,0.9279,0.9327,0.9483,0.9815,0.9822,0.8655,0.6338,0.3921,0.1842,0.0,0.0,0.0,0.0,0.0,0.0,0.0,0.0,0.0,0.0,0.0,0.0,0.0,0.0,0.0,0.0,0.0,0.0,0.0,0.0,0.0,0.0,0.0,0.0,0.0,0.0,0.0,0.0,0.0,0.0,-0.0941,-0.4958,-0.8435,-1.0602,-1.0148,-0.9557,-0.9076,0.0,0.0,0.0,0.0,0.0,0.0,-0.6403,-0.6268,-0.6338,0.0,0.0,0.0,0.0,-0.7122,0.0,0.0,0.0,0.0,0.0,0.0,0.0,0.0,0.0,0.0,-1.2534,-1.23,-1.2372,-1.2501,-1.2372,-1.2372,-1.2501,-1.2501,-1.2501,-1.2501,-1.2501,-1.2501,-1.2501,-1.2501,-1.2501,-1.2501,-1.2501,-1.263,-1.2854,-1.3071,-1.3254,-1.3403,-1.3403,-1.3403,-1.3403,0.578,0.5131,0.502,0.6166,0.6959,0.7258,0.677,0.6512,0.0,0.8397,0.0,0.8676,0.8913,0.9008,0.9055,0.9055,0.9055,0.9055,0.9055,0.9537,0.9822,0.9822,0.9822,0.9822,0.9822,0.9822,0.8804,0.6729,0.6417,0.4357,0.0591,0.0177,0.0,0.0,0.0,0.0,0.0,0.0,0.0,0.0,0.0,0.0,0.0,0.0,0.0,0.0,0.0,0.0,0.0,0.0,0.0,0.0,0.0,0.0,0.0,0.0,0.0,0.0,0.0,0.0,0.0,0.0,-0.469,-0.951,-1.0452,-1.0243,-0.9836,-0.9834,-0.9374,-0.9293,0.0,0.0,0.0,-0.6257,0.0,0.0,0.0,0.0,0.0,0.0,0.0,0.0,0.0,0.0,0.0,0.0,0.0,0.0,0.0,0.0,0.0,-1.2534,-1.2172,0.0,-1.2286,0.0,-1.223,-1.2447,-1.2481,-1.2501,-1.2501,-1.2501,-1.2501,-1.2501,-1.2501,-1.2501,-1.2501,-1.2522,-1.2712,-1.3017,-1.3295,-1.3403,-1.3403,-1.3403,-1.3403,-1.3403,0.502,0.5044,0.5583,0.6776,0.6715,0.6702,0.7326,0.717,0.6926,0.6749,0.6729,0.7292,0.8777,0.9374,0.9666,0.9666,0.9666,0.0,0.0,0.0,0.0,0.9822,0.9822,0.9822,0.9822,0.9822,0.9618,0.0,0.7224,0.5409,0.3634,0.1186,0.0,0.0,0.0,0.0,0.0,0.0,0.0,0.0,0.0,0.0,0.0,0.0,0.0,0.0,0.0,0.0,0.0,0.0,0.0,0.0,0.0,0.0,0.0,0.0,0.0,0.0,0.0,0.0,0.0,0.0,-0.0941,-0.3488,-0.9377,-1.0632,-1.0545,-1.0571,-1.0665,-1.0677,-1.077,0.0,0.0,0.0,0.0,0.0,0.0,0.0,0.0,0.0,0.0,0.0,0.0,0.0,0.0,0.0,0.0,0.0,0.0,0.0,-1.3136,0.0,-1.2373,0.0,0.0,0.0,-1.2332,-1.2142,-1.2386,-1.2501,-1.2501,-1.2501,-1.2501,-1.2501,-1.2501,-1.2501,-1.2515,-1.2637,-1.2868,-1.3152,-1.3329,-1.3403,-1.3403,-1.3403,-1.3403,-1.3403,0.5374,0.548,0.601,0.6586,0.6451,0.6722,0.0,0.8167,0.797,0.7685,0.7651,0.8092,0.9266,0.9652,0.9822,0.9822,0.9822,0.9822,0.9822,0.9822,0.9822,0.9822,0.9822,0.9822,0.9822,0.9822,0.9822,0.9822,0.0,0.5095,0.4463,0.3012,0.2341,0.2271,0.0724,0.0,0.0,0.0,0.0,0.0,0.0,0.0,0.0,0.0,0.0,0.0,0.0,0.0,0.0,0.0,0.0,0.0,0.0,0.0,0.0,0.0,0.0,0.0,0.0,0.0,0.0,0.0,0.0,-0.0948,-0.4308,-0.6577,-0.7985,-0.7985,-0.8119,-0.8209,-0.798,-0.7943,0.0,0.0,0.0,0.0,0.0,0.0,-0.8425,0.0,0.0,0.0,0.0,0.0,0.0,0.0,0.0,0.0,0.0,0.0,-1.2832,0.0,0.0,0.0,0.0,0.0,0.0,-1.2291,-1.2433,-1.2501,-1.2501,-1.2501,-1.2501,-1.2501,-1.2501,-1.2501,-1.2522,-1.2752,-1.2976,-1.3186,-1.3342,-1.3403,-1.3403,-1.3403,-1.3403,-1.3403,0.6333,0.6942,0.7886,0.765,0.8384,0.9592,1.0967,1.1123,1.0683,0.9236,0.9123,0.9306,0.9768,0.9822,0.9822,0.9822,0.9822,0.9822,0.9822,0.9822,0.9822,0.9822,0.9822,0.9822,0.9822,0.9822,0.9822,0.0,0.0,0.4773,0.4463,0.3849,0.353,0.3422,0.1108,0.0,0.0,0.0,0.0,0.0,0.0,0.0,0.0,0.0,0.0,0.0,0.0,0.0,0.0,0.0,0.0,0.0,0.0,0.0,0.0,0.0,0.0,0.0,0.0,0.0,0.0,0.0,0.0,0.0,0.0,-0.2164,-0.4282,-0.4282,-0.4251,-0.4255,-0.4276,-0.5989,0.0,0.0,0.0,0.0,0.0,0.0,0.0,0.0,0.0,0.0,0.0,0.0,0.0,0.0,0.0,0.0,-0.6369,0.0,0.0,0.0,0.0,-1.2508,-1.2526,0.0,-1.1776,0.0,-1.2474,-1.2501,-1.2501,-1.2501,-1.2501,-1.2501,-1.2501,-1.2542,-1.2623,-1.2895,-1.3091,-1.3234,-1.3356,-1.3403,-1.3403,-1.3403,-1.3403,-1.3403,0.7811,1.0434,1.299,1.1953,1.5274,1.8233,1.8442,1.8378,1.6355,1.0448,0.9741,0.9761,0.9815,0.9822,0.9822,0.9822,0.9822,0.9822,0.9822,0.9822,0.9822,0.9822,0.9822,0.9822,0.9822,0.9822,0.9822,0.0,0.0,0.5603,0.4463,0.1676,0.0389,0.0,0.0,0.0,0.0,0.0,0.0,0.0,0.0,0.0,0.0,0.0,0.0,0.0,0.0,0.0,0.0,0.0,0.0,0.0,0.0,0.0,0.0,0.0,0.0,0.0,0.0,0.0,0.0,0.0,0.0,0.0,0.0,-0.0291,-0.0437,-0.0437,-0.0436,-0.0565,-0.0513,-0.3506,-0.6262,0.0,0.0,0.0,0.0,0.0,-0.97,-1.0107,0.0,0.0,0.0,0.0,0.0,0.0,-0.9111,0.0,0.0,0.0,0.0,-1.2438,-1.2431,-1.243,-1.2447,-1.238,0.0,-1.2108,-1.2372,-1.2501,-1.2501,-1.2501,-1.2501,-1.2501,-1.2501,-1.2657,-1.2929,-1.3085,-1.3241,-1.3383,-1.3397,-1.3403,-1.3403,-1.3403,-1.3403,-1.3403,1.1649,1.453,0.0,0.0,0.0,0.0,0.0,1.3636,1.2689,1.0179,0.9822,0.9822,0.9822,0.9822,0.9822,0.9822,0.9822,0.9822,0.9822,0.9822,0.9822,0.9822,0.9822,0.9822,0.9822,0.9822,0.9822,0.0,0.0,0.0,0.5521,0.36,0.0,0.0,0.0,0.0,0.0,0.0,0.0,0.0,0.0,0.0,0.0,0.0,0.0,0.0,0.0,0.0,0.0,0.0,0.0,0.0,0.0,0.0,0.0,0.0,0.0,0.0,0.0,0.0,0.0,0.0,0.0,0.0,0.0,0.0,0.0,0.0,0.0,0.0,0.0,-0.1237,-0.3947,0.0,0.0,0.0,0.0,0.0,0.0,-1.1063,0.0,-1.0405,0.0,0.0,0.0,0.0,0.0,0.0,0.0,0.0,0.0,-1.0361,0.0,-1.1045,-1.2459,-1.2498,-1.244,-1.2325,-1.2447,-1.2501,-1.2501,-1.2501,-1.2501,-1.2508,-1.2596,-1.2759,-1.2969,-1.3112,-1.3261,-1.3403,-1.3403,-1.3403,-1.3403,-1.3403,-1.3403,-1.3403,1.5645,0.0,1.9372,0.0,1.9372,1.7923,1.3278,1.2569,1.1968,1.0058,0.9822,0.9822,0.9822,0.9822,0.9822,0.9822,0.9822,0.9822,0.9822,0.9822,0.9822,0.9822,0.9822,0.0,0.9822,0.9822,0.9822,0.9822,0.9822,0.0,0.0,0.6105,0.0,0.0,0.3012,0.1931,0.0,0.0,0.0,0.0,0.0,0.0,0.0,0.0,0.0,0.0,0.0,0.0,0.0,0.0,0.0,0.0,0.0,0.0,0.0,0.0,0.0,0.0,0.0,0.0,0.0,0.0,0.0,0.0,0.0,0.0,0.0,0.0,0.0,0.0,0.0,0.0,-0.1781,-0.7226,0.0,0.0,0.0,-1.1362,0.0,-1.1294,-1.0975,-1.0751,-1.0724,0.0,0.0,0.0,0.0,0.0,0.0,0.0,0.0,0.0,0.0,0.0,0.0,-1.2567,-1.2501,-1.2501,-1.2501,-1.2501,-1.2501,-1.2501,-1.2501,-1.2515,-1.2712,-1.2861,-1.2976,-1.3159,-1.3302,-1.3403,-1.3403,-1.3403,-1.3403,-1.3403,-1.3403,-1.3403,1.9305,1.9332,1.9372,1.9372,1.9372,1.9372,1.9243,1.9243,1.6973,1.0657,0.9822,0.9822,0.9822,0.9822,0.9822,0.9822,0.9822,0.9822,0.9822,0.9822,0.9822,0.0,0.0,0.9822,0.9822,0.9822,0.9822,0.9822,0.0,0.0,0.6315,0.8662,0.9761,0.968,1.0303,0.6592,0.0,0.0,0.0,0.0,0.0,0.0,0.0,0.0,0.0,0.0,0.0,0.0,0.0,0.0,0.0,0.0,0.0,0.0,0.0,0.0,0.0,0.0,0.0,0.0,0.0,0.0,0.0,0.0,0.0,0.0,0.0,0.0,0.0,0.0,0.0,0.0,-0.0,-0.0136,0.0,0.0,0.0,-1.0611,0.0,-1.0521,-0.9462,-0.9266,-1.0588,0.0,0.0,0.0,0.0,0.0,0.0,0.0,0.0,-1.2323,-1.0731,0.0,-1.251,-1.2519,-1.2501,-1.2501,-1.2501,-1.2501,-1.2501,-1.2501,-1.2501,-1.2522,-1.2827,-1.2963,-1.2983,-1.3275,-1.3397,-1.3403,-1.3403,-1.3403,-1.3403,-1.3403,-1.3403,-1.3403,1.9372,1.9372,1.9372,1.9372,1.9372,1.9372,1.9372,1.9372,1.8648,1.6621,1.6374,1.6374,1.6374,1.2449,0.9822,0.0,0.9822,0.9822,0.0,0.9822,0.9822,0.9822,0.9822,0.9822,0.9822,0.9822,0.9822,0.9822,0.0,0.0,0.0,0.9883,1.0432,1.0439,1.0636,0.9462,0.7008,0.214,0.0,0.0,0.0,0.0,0.0,0.0,0.0,0.0,0.0,0.0,0.0,0.0,0.0,0.0,0.0,0.0,0.0,0.0,0.0,0.0,0.0,0.0,0.0,0.0,0.0,0.0,0.0,0.0,0.0,0.0,0.0,0.0,0.0,0.0,0.0,0.0,-0.2011,0.0,-1.053,0.0,-1.1491,-1.1416,-1.1165,-1.1206,0.0,-1.0711,0.0,0.0,0.0,0.0,0.0,0.0,0.0,0.0,-1.1894,0.0,-1.2518,-1.2567,-1.2501,-1.2501,-1.2501,-1.2501,-1.2501,-1.2501,-1.2556,-1.2671,-1.2874,-1.3017,-1.3119,-1.3315,-1.3403,-1.3403,-1.3403,-1.3403,-1.3403,-1.3403,-1.3403,-1.3403,1.9372,1.9372,1.9372,1.9372,1.9372,1.9372,1.9372,1.9372,1.9372,1.9372,1.9372,1.9372,1.9372,1.5784,0.0,1.0065,0.9822,0.9822,0.9822,0.9822,0.9822,0.9822,0.9822,0.9822,0.9822,0.0,0.0,0.9822,0.9822,0.9937,1.0168,1.0541,1.0717,1.0717,1.0717,1.0717,1.0452,0.5893,0.2415,0.0,0.0,0.0,0.0,0.0,0.0,0.0,0.0,0.0,0.0,0.0,0.0,0.0,0.0,0.0,0.0,0.0,0.0,0.0,0.0,0.0,0.0,0.0,0.0,0.0,0.0,0.0,0.0,0.0,0.0,0.0,0.0,0.0,0.0,0.0,0.0,-0.1768,-0.6628,0.0,-1.1857,0.0,0.0,0.0,0.0,-1.1321,0.0,0.0,0.0,0.0,0.0,0.0,0.0,-1.2527,-1.2522,0.0,-1.255,-1.2519,-1.2501,-1.2501,-1.2501,-1.2501,-1.2501,-1.2501,-1.2589,-1.2739,-1.2895,-1.3044,-1.3186,-1.3336,-1.3403,-1.3403,-1.3403,-1.3403,-1.3403,-1.3403,-1.3403,-1.3403,1.9372,1.9372,1.9372,0.0,1.9372,0.0,1.9372,1.9372,1.9372,1.9372,1.9372,1.9372,1.9372,1.901,1.6374,1.0301,0.0,0.0,0.0,0.9822,0.9822,0.9822,0.9822,0.9822,0.9822,0.9822,0.9842,0.9883,0.9883,1.0168,1.0717,1.0717,1.0717,1.0717,1.0717,1.0717,1.0717,1.0717,0.6836,0.0809,0.0539,0.027,0.0,0.0,0.0,0.0,0.0,0.0,0.0,0.0,0.0,0.0,0.0,0.0,0.0,0.0,0.0,0.0,0.0,0.0,0.0,0.0,0.0,0.0,0.0,0.0,0.0,0.0,0.0,0.0,0.0,0.0,0.0,0.0,0.0,0.0,0.0,-0.6337,-1.1417,0.0,0.0,0.0,0.0,-1.1382,-1.1728,0.0,0.0,0.0,0.0,0.0,-1.1309,-1.2454,-1.2501,-1.2501,-1.2501,-1.2501,-1.2501,-1.2501,-1.2501,-1.2501,-1.2501,-1.2501,-1.2589,-1.2759,-1.2901,-1.3051,-1.32,-1.3342,-1.3403,-1.3403,-1.3403,-1.3403,-1.3403,-1.3403,-1.3403,-1.3403,0.0,0.0,1.9372,1.9372,1.9372,1.9372,1.9372,1.9372,1.9372,1.9372,1.9372,1.9372,1.9372,1.5063,1.1495,0.9943,0.9822,0.9822,0.9822,0.9822,0.9822,0.9822,0.9822,0.9822,0.9822,0.9822,1.0046,1.0507,1.0507,1.0582,1.0717,1.0717,1.0717,1.0717,1.0717,1.0717,1.0717,1.0717,0.9899,0.828,0.5495,0.2651,0.0,0.0,0.0,0.0,0.0,0.0,0.0,0.0,0.0,0.0,0.0,0.0,0.0,0.0,0.0,0.0,0.0,0.0,0.0,0.0,0.0,0.0,0.0,0.0,0.0,0.0,0.0,0.0,0.0,0.0,0.0,0.0,0.0,0.0,0.0,-0.1673,-0.517,0.0,-1.2142,-1.2216,-1.2189,-1.2216,-1.2026,0.0,0.0,0.0,0.0,-1.1369,-1.1674,-1.2474,-1.2501,-1.2501,-1.2501,-1.2501,-1.2501,-1.2501,-1.2501,-1.2501,-1.2501,-1.2501,-1.2651,-1.2742,-1.2942,-1.3105,-1.3349,-1.3383,-1.3403,-1.3403,-1.3403,-1.3403,-1.3403,-1.3403,-1.3403,-1.3403,1.9372,1.9372,1.9372,1.9372,1.9372,1.9372,1.9372,1.9372,1.9372,1.9372,1.9372,1.9372,1.9372,1.6256,1.3048,1.0058,0.9822,0.9822,0.9822,0.9822,0.9822,0.9822,0.9822,0.9822,0.9822,1.0093,1.0392,1.0717,1.0717,1.0717,1.0717,1.0717,1.0717,1.0717,1.0717,1.0717,1.0717,1.0717,1.0867,1.096,0.8894,0.6915,0.4907,0.1309,0.0,0.0,0.0,0.0,0.0,0.0,0.0,0.0,0.0,0.0,0.0,0.0,0.0,0.0,0.0,0.0,0.0,0.0,0.0,0.0,0.0,0.0,0.0,0.0,0.0,0.0,0.0,0.0,0.0,0.0,0.0,0.0,0.0,0.0,0.0,-0.8678,-1.1244,-1.2542,-1.2508,-1.2501,-1.2298,-1.1809,0.0,0.0,-1.1782,-1.1932,-1.2169,-1.2488,-1.2501,-1.2501,-1.2501,-1.2501,-1.2501,-1.2501,-1.2501,-1.2501,-1.2501,-1.2569,-1.2574,-1.2635,-1.2862,-1.3186,-1.3403,-1.3403,-1.3403,-1.3403,-1.3403,-1.3403,-1.3403,-1.3403,-1.3403,-1.3403,1.9372,1.9372,1.9372,1.9372,1.9372,1.9372,1.9372,1.9372,1.9372,1.9372,1.9372,1.9372,1.9372,1.9372,1.7208,1.1736,1.1253,1.0899,0.9822,0.9822,0.9863,0.9951,0.9958,0.9958,0.9958,1.046,1.0717,1.0717,1.0717,1.0717,1.0717,1.0717,1.0717,1.0717,1.0717,1.0717,1.0717,1.0717,1.0873,1.1262,1.0935,1.0907,1.0315,0.3477,0.0583,0.0,0.0,0.0,0.0,0.0,0.0,0.0,0.0,0.0,0.0,0.0,0.0,0.0,0.0,0.0,0.0,0.0,0.0,0.0,0.0,0.0,0.0,0.0,0.0,0.0,0.0,0.0,0.0,0.0,0.0,0.0,0.0,0.0,-0.1408,-0.4847,-0.9558,-1.2549,-1.2515,-1.2508,-1.2508,-1.2501,-1.2501,-1.2501,0.0,-1.2501,-1.2501,-1.2501,-1.2501,-1.2501,-1.2501,-1.2501,-1.2501,-1.2501,-1.2501,-1.2501,-1.2508,-1.2501,-1.2489,-1.2635,-1.2943,-1.3254,-1.3403,-1.3403,-1.3403,-1.3403,-1.3403,-1.3403,-1.3403,-1.3403,-1.3403,-1.3403,1.9372,1.9372,1.9372,1.9372,1.9372,1.9372,1.9372,1.9372,1.9372,1.9372,1.9372,1.9372,1.9372,1.9372,1.901,1.8052,1.7923,1.5548,1.0179,0.9822,1.0046,1.0555,1.0582,1.0582,1.0582,1.067,1.0717,1.0717,1.0717,1.0717,1.0717,1.0717,1.0717,1.0717,1.0717,1.0717,1.0717,1.0717,1.1029,1.1511,1.1369,0.9989,0.8107,0.5805,0.2903,0.0,0.0,0.0,0.0,0.0,0.0,0.0,0.0,0.0,0.0,0.0,0.0,0.0,0.0,0.0,0.0,0.0,0.0,0.0,0.0,0.0,0.0,0.0,0.0,0.0,0.0,0.0,0.0,0.0,0.0,0.0,0.0,0.0,-0.0314,-0.0938,-0.7846,-1.2447,-1.2549,-1.2542,-1.2535,-1.2501,-1.2501,-1.2501,-1.2501,-1.2501,-1.2501,-1.2501,-1.2501,-1.2501,-1.2501,-1.2501,-1.2501,-1.2501,-1.2501,-1.2501,-1.2508,-1.2501,-1.2813,-1.3297,-1.3112,-1.309,-1.3403,-1.3403,-1.3403,-1.3403,-1.3403,-1.3403,-1.3403,-1.3403,-1.3403,-1.3403,1.9372,1.9372,1.9372,1.9372,1.9372,1.9372,1.9372,1.9372,1.9372,1.9372,1.9372,1.9372,1.9372,1.9372,1.9372,1.9372,1.9947,1.9048,1.6043,1.2304,1.0432,1.0711,1.0717,1.0717,1.0717,1.0717,1.0717,1.0717,1.0717,1.0717,1.0717,1.0717,1.0717,1.0717,1.0717,1.0717,1.0744,1.107,1.1369,1.1613,1.1538,1.0836,0.974,0.9173,0.5232,0.0,0.0,0.0,0.0,0.0,0.0,0.0,0.0,0.0,0.0,0.0,0.0,0.0,0.0,0.0,0.0,0.0,0.0,0.0,0.0,0.0,0.0,0.0,0.0,0.0,0.0,0.0,0.0,0.0,0.0,0.0,0.0,0.0,0.0,0.0,-0.3445,-0.6893,-1.0008,-1.1597,-1.2542,-1.2508,-1.2501,-1.2501,-1.2501,-1.2501,-1.2501,-1.2501,-1.2501,-1.2501,-1.2501,-1.2501,-1.2501,-1.2501,-1.2501,-1.2542,-1.2467,-1.2456,-1.2775,-1.3415,-1.3234,-1.3336,-1.3403,-1.3403,-1.3403,-1.3403,-1.3403,-1.3403,-1.3403,-1.3403,-1.3403,-1.3383,1.9372,1.9372,1.9372,1.9372,1.9372,1.9372,1.9372,1.9372,1.9372,1.9372,1.9372,1.9372,1.9372,1.9372,1.9479,1.9746,2.0588,2.1109,2.1109,1.6043,1.2413,1.0717,1.0717,1.0717,1.0717,1.0717,1.0717,1.0717,1.0717,1.0717,1.0717,1.0717,1.0717,1.0717,1.0717,1.0799,1.0962,1.1423,1.1619,1.1619,1.1647,1.1653,1.1647,1.1536,0.786,0.2467,0.0581,0.0,0.0,0.0,0.0,0.0,0.0,0.0,0.0,0.0,0.0,0.0,0.0,0.0,0.0,0.0,0.0,0.0,0.0,0.0,0.0,0.0,0.0,0.0,0.0,0.0,0.0,0.0,0.0,0.0,0.0,0.0,0.0,0.0,0.0,-0.172,-0.5929,-1.0025,-1.2556,-1.2515,-1.2515,-1.2508,-1.2501,-1.2501,-1.2501,-1.2501,-1.2501,-1.2501,-1.2501,-1.2501,-1.2501,-1.2501,-1.2535,-1.2454,-1.2574,-1.2595,-1.2903,-1.3349,-1.3336,-1.3403,-1.3403,-1.3403,-1.3403,-1.3403,-1.3403,-1.3403,-1.339,-1.3322,-1.3342,-1.3363,1.9372,1.9372,1.9372,1.9372,1.9372,1.9372,1.9372,1.9372,1.9372,1.9372,1.9372,1.9372,1.9372,1.9372,1.98,2.0882,2.1056,2.1109,2.1109,2.0589,1.7474,1.0982,1.0717,1.0717,1.0717,1.0717,1.0717,1.0717,1.0717,1.0717,1.0717,1.0717,1.0717,1.0717,1.0717,1.1029,1.1558,1.1599,1.1619,1.1619,1.1619,1.1619,1.1626,1.1647,1.1214,0.9746,0.2612,0.0,0.0,0.0,0.0,0.0,0.0,0.0,0.0,0.0,0.0,0.0,0.0,0.0,0.0,0.0,0.0,0.0,0.0,0.0,0.0,0.0,0.0,0.0,0.0,0.0,0.0,0.0,0.0,0.0,0.0,0.0,0.0,0.0,0.0,-0.0157,-0.0626,-0.7846,-1.2454,-1.2556,-1.2549,-1.2535,-1.2501,-1.2501,-1.2501,-1.2501,-1.2501,-1.2501,-1.2501,-1.2501,-1.2501,-1.2501,-1.2487,-1.2554,-1.2574,-1.3024,-1.3329,-1.3349,-1.3336,-1.3403,-1.3403,-1.3403,-1.3403,-1.3403,-1.3403,-1.3403,-1.337,-1.3091,-1.3166,-1.3349,1.9372,1.9372,1.9372,1.9372,1.9372,1.9372,1.9372,1.9372,1.9372,1.9372,1.9372,1.9372,1.9372,2.0013,2.0628,2.1069,2.1109,2.1109,2.1109,2.1109,1.7988,1.0982,1.0717,1.0717,1.0717,1.0717,1.0717,1.0717,1.0717,1.0717,1.0724,1.0907,1.1097,1.128,1.128,1.1402,1.1619,1.1619,1.1619,1.1619,1.1619,1.1619,1.1619,1.1626,1.164,1.1214,0.828,0.4064,0.0,0.0,0.0,0.0,0.0,0.0,0.0,0.0,0.0,0.0,0.0,0.0,0.0,0.0,0.0,0.0,0.0,0.0,0.0,0.0,0.0,0.0,0.0,0.0,0.0,0.0,0.0,0.0,0.0,0.0,0.0,0.0,0.0,0.0,0.0,-0.517,-0.8636,-0.8608,-1.0987,-1.2569,-1.2535,-1.2515,-1.2501,-1.2501,-1.2501,-1.2501,-1.2501,-1.2501,-1.2501,-1.2501,-1.2657,-1.2944,-1.3047,-1.3246,-1.3391,-1.3322,-1.3376,-1.3403,-1.3403,-1.3403,-1.3403,-1.3403,-1.3403,-1.3403,-1.339,-1.3275,-1.3247,-1.3234,1.9439,1.9372,1.9372,1.9372,1.9372,1.9372,1.9372,1.9372,1.9372,1.9372,1.9372,1.9372,1.9372,2.0414,2.1109,2.1109,2.1109,2.1109,2.1109,2.1109,1.7988,1.0982,1.0717,1.0717,1.0717,1.0717,1.0717,1.0717,1.0717,1.0765,1.0867,1.107,1.1328,1.1619,1.1619,1.1619,1.1619,1.1619,1.1619,1.1619,1.1619,1.1619,1.1619,1.1619,1.1626,1.1647,1.1653,0.8136,0.3482,0.2178,0.1018,0.0,0.0,0.0,0.0,0.0,0.0,0.0,0.0,0.0,0.0,0.0,0.0,0.0,0.0,0.0,0.0,0.0,0.0,0.0,0.0,0.0,0.0,0.0,0.0,0.0,0.0,0.0,0.0,0.0,0.0,0.0,0.0,-0.2664,-0.4388,-0.4378,-0.8154,-1.1155,-1.24,-1.2528,-1.2515,-1.2515,-1.2515,-1.2522,-1.2535,-1.2515,-1.2528,-1.2576,-1.2889,-1.3047,-1.336,-1.3343,-1.3466,-1.3403,-1.3403,-1.3403,-1.3403,-1.3403,-1.3403,-1.3397,-1.3349,-1.3322,-1.3302,-1.3234,-1.3186,-1.3125,1.9703,1.9475,1.9372,1.9372,1.9372,1.9372,1.9372,1.9372,1.9372,1.9372,1.9372,1.9372,1.9372,2.0414,2.1109,2.1109,2.1109,2.1109,2.1109,2.1109,1.7988,1.0982,1.0717,1.0717,1.0717,1.0717,1.0717,1.0717,1.0717,1.0873,1.1158,1.1165,1.1328,1.1619,1.1619,1.1619,1.1619,1.1619,1.1619,1.1619,1.1619,1.1619,1.1619,1.1619,1.1619,1.1619,1.1647,1.1653,1.1063,0.7119,0.3339,0.0146,0.0,0.0,0.0,0.0,0.0,0.0,0.0,0.0,0.0,0.0,0.0,0.0,0.0,0.0,0.0,0.0,0.0,0.0,0.0,0.0,0.0,0.0,0.0,0.0,0.0,0.0,0.0,0.0,0.0,0.0,0.0,0.0,0.0,0.0,-0.3914,-0.7994,-1.2238,-1.2393,-1.2556,-1.2556,-1.2393,-1.2414,-1.2447,-1.2535,-1.2576,-1.2732,-1.2722,-1.2869,-1.3173,-1.3329,-1.3403,-1.3403,-1.3403,-1.3403,-1.3403,-1.3403,-1.3403,-1.3383,-1.3227,-1.3139,-1.3078,-1.2874,-1.2769,-1.2876,2.5697,2.2266,1.9372,1.9372,1.9372,1.9372,1.9372,1.9372,1.9372,1.9372,1.9372,1.9679,2.0494,2.0895,2.1109,2.1109,2.1109,2.1109,2.1109,2.1109,1.7988,1.0982,1.0717,1.0717,1.0717,1.0717,1.0717,1.0717,1.0717,1.0839,1.1063,1.1206,1.1321,1.1416,1.1558,1.1619,1.1619,1.1619,1.1619,1.1619,1.1619,1.1619,1.1619,1.1619,1.1619,1.1619,1.1626,1.164,1.1378,1.0444,0.9443,0.7551,0.1812,0.0,0.0,0.0,0.0,0.0,0.0,0.0,0.0,0.0,0.0,0.0,0.0,0.0,0.0,0.0,0.0,0.0,0.0,0.0,0.0,0.0,0.0,0.0,0.0,0.0,0.0,0.0,0.0,0.0,0.0,0.0,0.0,0.0,-0.1096,-0.2347,-0.3593,-0.9251,-1.2434,-1.2434,-0.9719,-0.8172,-0.8089,-1.1011,-1.2467,-1.2483,-1.2749,-1.3044,-1.3043,-1.3342,-1.3403,-1.3403,-1.3403,-1.3403,-1.3403,-1.3403,-1.3403,-1.3383,-1.3363,-1.3132,-1.2963,-1.2969,-1.2908,-1.3047,2.918,2.6434,2.303,1.9904,1.9372,1.9372,1.9372,1.9372,1.9372,1.9372,1.9773,2.0321,2.1029,2.1109,2.1109,2.1109,2.1109,2.1109,2.1109,2.1109,1.9164,1.5005,1.215,1.0717,1.0717,1.0717,1.0717,1.0717,1.0717,1.0819,1.1023,1.1226,1.1362,1.1443,1.1565,1.1619,1.1619,1.1619,1.1619,1.1619,1.1619,1.1619,1.1619,1.1619,1.1619,1.1619,1.1619,1.1626,1.166,1.1816,1.1959,1.1039,0.4586,0.1389,0.0,0.0,0.0,0.0,0.0,0.0,0.0,0.0,0.0,0.0,0.0,0.0,0.0,0.0,0.0,0.0,0.0,0.0,0.0,0.0,0.0,0.0,0.0,0.0,0.0,0.0,0.0,0.0,0.0,0.0,0.0,0.0,0.0,0.0,0.0,-0.4852,-0.9105,-1.246,-1.0106,-0.7927,-0.6387,-0.8758,-1.0889,-1.2514,-1.1068,-1.1329,-1.3164,-1.3397,-1.3431,-1.3424,-1.341,-1.3403,-1.3403,-1.3403,-1.3403,-1.3383,-1.3349,-1.3071,-1.2675,-1.284,-1.2786,-1.2834,3.0586,3.0393,2.7661,2.0568,1.9452,1.9492,1.9386,1.9372,1.9399,1.9506,2.0535,2.1229,2.1122,2.1109,2.1109,2.1109,2.1109,2.1109,2.1109,2.1109,2.1109,2.1109,1.5005,1.163,1.163,1.0982,1.0717,1.0717,1.0772,1.0894,1.1077,1.126,1.1443,1.1619,1.1619,1.1619,1.1619,1.1619,1.1619,1.1619,1.1619,1.1619,1.1619,1.1619,1.1619,1.1619,1.1619,1.1619,1.164,1.1796,1.2067,1.1568,0.7999,0.4183,0.1095,0.0626,0.0313,0.0,0.0,0.0,0.0,0.0,0.0,0.0,0.0,0.0,0.0,0.0,0.0,0.0,0.0,0.0,0.0,0.0,0.0,0.0,0.0,0.0,0.0,0.0,0.0,0.0,0.0,0.0,0.0,0.0,0.0,0.0,0.0,0.0,-0.3445,-1.1197,-1.214,-1.028,-0.5777,-0.5671,-0.7693,-1.1265,-0.7917,-0.8301,-1.2136,-1.2624,-1.2958,-1.3458,-1.3417,-1.337,-1.3322,-1.3376,-1.3403,-1.3383,-1.3343,-1.2969,-1.2456,-1.2434,-1.2481,-1.2529,3.082,2.6028,2.138,1.9631,2.012,2.0428,1.9506,1.9372,1.9693,2.0615,2.175,2.2138,2.1203,2.1109,2.1109,2.1109,2.1109,2.1109,2.1109,2.1109,2.1109,2.1109,1.9674,1.8896,1.8896,1.3456,1.0717,1.0717,1.1192,1.145,1.1491,1.1531,1.1579,1.1619,1.1619,1.1619,1.1619,1.1619,1.1619,1.1619,1.1619,1.1619,1.1619,1.1619,1.1619,1.1619,1.1619,1.1619,1.166,1.1925,1.223,1.2347,1.1399,1.0491,0.91,0.5945,0.2658,0.0,0.0,0.0,0.0,0.0,0.0,0.0,0.0,0.0,0.0,0.0,0.0,0.0,0.0,0.0,0.0,0.0,0.0,0.0,0.0,0.0,0.0,0.0,0.0,0.0,0.0,0.0,0.0,0.0,0.0,0.0,0.0,0.0,-0.0785,-0.2669,-0.9099,-0.887,-0.1459,-0.1312,-0.1816,-0.2811,-0.5111,-0.5137,-0.3018,-0.6526,-1.0044,-1.3417,-1.3403,-1.3132,-1.2732,-1.3207,-1.3403,-1.3376,-1.3429,-1.3075,-1.2463,-1.2548,-1.2568,-1.2536,3.0898,2.5152,2.0201,2.0201,2.0708,2.0909,2.0294,2.0201,2.0615,2.179,2.1991,2.179,2.1176,2.1603,2.1724,2.1162,2.1109,2.1109,2.1109,2.1376,2.1483,2.139,2.1203,2.1283,2.1657,1.835,1.4792,1.1151,1.1463,1.1619,1.1626,1.1911,1.1891,1.1619,1.1687,1.1721,1.1721,1.1721,1.1721,1.1714,1.1647,1.1619,1.1619,1.1619,1.1619,1.1619,1.1619,1.1708,1.1864,1.2094,1.2332,1.2528,1.2528,1.2549,1.2102,0.9869,0.7669,0.5165,0.1095,0.0,0.0,0.0,0.0,0.0,0.0,0.0,0.0,0.0,0.0,0.0,0.0,0.0,0.0,0.0,0.0,0.0,0.0,0.0,0.0,0.0,0.0,0.0,0.0,0.0,0.0,0.0,0.0,0.0,0.0,0.0,0.0,0.0,-0.4319,-0.4372,-0.0,0.0,0.0,-0.0,-0.2164,-0.217,-0.0,-0.2517,-0.486,-0.7201,-1.1552,-1.322,-1.2935,-1.2963,-1.3139,-1.3356,-1.3082,-1.2766,-1.247,-1.2423,-1.2628,-1.2929,3.0898,2.6486,2.2827,2.2827,2.2019,2.1403,2.1403,2.1403,2.1764,2.2739,2.2017,2.1403,2.1403,2.2098,2.2178,2.1189,2.1296,2.1323,2.1122,2.1657,2.1951,2.1897,2.1523,2.1617,2.2258,2.2859,2.0169,1.3778,1.2381,1.1619,1.1633,1.2223,1.2244,1.1775,1.1837,1.187,1.187,1.187,1.187,1.1857,1.1714,1.1674,1.1687,1.164,1.1633,1.1653,1.1626,1.1809,1.2088,1.2237,1.2386,1.2501,1.2501,1.2522,1.2542,1.2542,1.2569,1.0999,0.4064,0.1095,0.0,0.0,0.0,0.0,0.0,0.0,0.0,0.0,0.0,0.0,0.0,0.0,0.0,0.0,0.0,0.0,0.0,0.0,0.0,0.0,0.0,0.0,0.0,0.0,0.0,0.0,0.0,0.0,0.0,0.0,0.0,0.0,0.0,0.0,0.0,0.0,0.0,0.0,0.0,0.0,0.0,0.0,0.0,-0.0337,-0.7869,-1.1168,-1.1055,-1.0639,-1.1525,-1.3227,-1.2705,-1.2447,-1.2588,-1.2581,-1.3027,-1.3401,3.0898,3.0157,2.9549,2.9549,2.5769,2.2619,2.2619,2.2619,2.2686,2.2846,2.2726,2.2619,2.2619,2.1857,2.1283,2.1122,2.2031,2.2191,2.1176,2.1657,2.2205,2.2686,2.2325,2.2164,2.2271,2.3674,2.3943,2.289,1.5334,1.1619,1.1633,1.2223,1.2461,1.2372,1.2135,1.2033,1.2033,1.2033,1.2033,1.202,1.1864,1.1884,1.1972,1.1714,1.1694,1.1789,1.166,1.1809,1.2088,1.2237,1.2386,1.2501,1.2501,1.2508,1.2508,1.2508,1.2535,1.2245,1.1125,0.5468,0.0,0.0,0.0,0.0,0.0,0.0,0.0,0.0,0.0,0.0,0.0,0.0,0.0,0.0,0.0,0.0,0.0,0.0,0.0,0.0,0.0,0.0,0.0,0.0,0.0,0.0,0.0,0.0,0.0,0.0,0.0,0.0,0.0,0.0,0.0,0.0,0.0,0.0,0.0,0.0,0.0,0.0,0.0,-0.0,-0.1346,-0.1808,-0.1741,-0.1729,-0.5994,-1.2608,-1.2576,-1.2515,-1.2562,-1.3054,-1.336,-1.3349,3.2109,3.1543,3.1191,3.2129,3.032,2.7487,2.3529,2.2859,2.2859,2.2859,2.2859,2.2619,2.1951,2.2004,2.2084,2.2084,2.1964,2.1804,2.1617,2.2151,2.2512,2.2605,2.2605,2.2766,2.31,2.3794,2.4315,2.4636,2.0704,1.6527,1.2121,1.2379,1.2501,1.2494,1.2284,1.2189,1.2189,1.2189,1.2189,1.2182,1.2115,1.2026,1.1932,1.1884,1.185,1.1857,1.2047,1.2149,1.2223,1.2461,1.2522,1.2501,1.2501,1.2501,1.2501,1.2501,1.2515,1.2528,1.2549,0.9864,0.641,0.4064,0.1721,0.0,0.0,0.0,0.0,0.0,0.0,0.0,0.0,0.0,0.0,0.0,0.0,0.0,0.0,0.0,0.0,0.0,0.0,0.0,0.0,0.0,0.0,0.0,0.0,0.0,0.0,0.0,0.0,0.0,0.0,0.0,0.0,0.0,0.0,0.0,0.0,0.0,0.0,0.0,0.0,0.0,0.0,0.0,0.0,0.0,-0.22,-0.5981,-1.0705,-1.2487,-1.2561,-1.3186,-1.345,-1.3403]}]]